MPMG - Transparência

Contra-cheque - Remuneração de todos os servidores ativos - Pré Resolução CNMP 200/2019

Período: 2015 - Fevereiro

Ordem Matrícula Nome Cargo Efetivo Situação Unidade Administrativa Rendimentos Descontos Rendimento Líquido Total Indenizações Outras Remunerações Retroativas/Temporárias Data de Referência
Remuneração Básica Remuneração Eventual ou Temporária Total de Rendimentos Brutos Obrigatórios/Legais Total de Descontos
Remuneração do Cargo Efetivo Outras Verbas Remuneratórias Função de Confiança ou Cargo em Comissão Gratificação Natalina Férias Abono de Permanência Contribuição Previdenciária Imposto de Renda Retenção por Teto Constitucional
1 498900 ABDON MARCIO BARBOSA DA SILVA OFICIAL DO MP ATIVO ABRE CAMPO - COMARCA; ABRE CAMPO-PJ-02PJ 3.355,81 201,35 0,00 0,00 1.185,72 0,00 4.742,88 391,29 254,84 0,00 646,13 4.096,75 868,41 0,00 28/02/2015
2 177800 ADALBERTO MENEZES FARIA SAMORA OFICIAL DO MP ATIVO BELO HORIZONTE - COMARCA; CGMP-DIVIS DE APOIO FISC ORIENTACAO FUNCIONAL 9.358,72 2.807,62 0,00 0,00 0,00 0,00 12.166,34 1.338,30 2.052,72 0,00 3.391,02 8.775,32 4.983,31 372,42 28/02/2015
3 306400 ADALBERTO MOREIRA GONCALVES ANALISTA DO MP ATIVO CONTAGEM - COMARCA; CONTAGEM-PJ-01PJ 9.663,38 1.932,68 0,00 0,00 0,00 0,00 11.596,06 1.275,57 2.011,98 0,00 3.287,55 8.308,51 685,50 0,00 28/02/2015
4 179300 ADENISE AUXILIADORA SOUZA SAD OFICIAL DO MP ATIVO BARBACENA - COMARCA; BARBACENA-PJ-06PJ 8.501,02 2.550,31 0,00 0,00 0,00 0,00 11.051,33 1.215,65 1.779,82 0,00 2.995,47 8.055,86 4.748,31 372,42 28/02/2015
5 77700 ADIL EXPEDITO DE OLIVEIRA JUNIOR ASSESSOR ATIVO BELO HORIZONTE - COMARCA; SUPERINTENDENCIA DE RECURSOS HUMANOS 0,00 6.378,72 7.973,40 0,00 0,00 1.578,73 15.930,85 1.578,73 3.120,68 0,00 4.699,41 11.231,44 685,50 0,00 28/02/2015
6 272200 ADILSON BATISTA ORNELAS OFICIAL DO MP ATIVO LAVRAS - COMARCA; LAVRAS-PJ-SECRETARIA 3.938,84 787,77 0,00 0,00 0,00 0,00 4.726,61 519,93 222,24 0,00 742,17 3.984,44 4.748,31 304,71 28/02/2015
7 380100 ADILSON GONCALVES DE MELO JUNIOR ANALISTA DO MP ATIVO ARAXÁ - COMARCA; ARAXA-PJ-05PJ 7.014,37 701,44 0,00 0,00 0,00 0,00 7.715,81 848,74 963,45 0,00 1.812,19 5.903,62 4.573,50 334,86 28/02/2015
8 148800 ADILSON JANUARIO OFICIAL DO MP ATIVO BELO HORIZONTE - COMARCA; BH-22PJ PES COM DEF E IDOSOS-SECRETARIA 10.638,28 5.319,14 0,00 0,00 0,00 0,00 15.957,42 1.755,32 2.980,59 0,00 4.735,91 11.221,51 4.748,31 372,42 28/02/2015
9 322601 ADMILSON SILVEIRA ANALISTA DO MP ATIVO SAO JOAO DO PARAISO COMARCA; SAO JOAO DO PARAISO-PJ-UNPJ 4.848,98 0,00 0,00 0,00 0,00 0,00 4.848,98 533,39 368,05 0,00 901,44 3.947,54 685,50 0,00 28/02/2015
10 333700 ADRIANA ABRITTA TEIXEIRA OFICIAL DO MP ATIVO BELO HORIZONTE - COMARCA; DIRET DE PESSOAL DO MINISTERIO PUBLICO - DPMP 6.068,01 606,80 0,00 0,00 0,00 0,00 6.674,81 734,23 807,51 0,00 1.541,74 5.133,07 3.297,50 239,43 28/02/2015
11 468500 ADRIANA APARECIDA FIRMINO ANALISTA DO MP ATIVO CARATINGA - COMARCA; CARATINGA-PJ-04PJ 6.793,15 407,59 0,00 0,00 2.400,25 0,00 9.600,99 792,08 1.546,88 0,00 2.338,96 7.262,03 920,50 0,00 28/02/2015
12 326100 ADRIANA AUGUSTA AMARAL BELO OFICIAL DO MP ATIVO BARBACENA - COMARCA; BARBACENA-PJ-08PJ 6.068,01 606,80 0,00 0,00 0,00 0,00 6.674,81 734,23 708,67 0,00 1.442,90 5.231,91 920,50 0,00 28/02/2015
13 605700 ADRIANA COSTA LIRA OFICIAL DO MP ATIVO BELO HORIZONTE - COMARCA; DIRET DE FORMACAO, APERFEIC. E POS-GRADUACAO 3.250,03 0,00 0,00 0,00 0,00 0,00 3.250,03 390,27 138,62 0,00 528,89 2.721,14 804,65 303,84 28/02/2015
14 541100 ADRIANA CRISTINA DE OLIVEIRA OFICIAL DO MP ATIVO GUAPÉ - COMARCA; GUAPE-PJ-UNPJ 2.952,15 0,00 0,00 0,00 0,00 0,00 2.952,15 324,74 49,50 0,00 374,24 2.577,91 920,50 0,00 28/02/2015
15 254800 ADRIANA DAS GRACAS FERNANDES ANALISTA DO MP ATIVO UBERABA - COMARCA; UBERABA-PJ-07PJ 10.984,62 5.492,31 0,00 0,00 0,00 0,00 16.476,93 1.812,46 3.157,16 0,00 4.969,62 11.507,31 685,50 0,00 28/02/2015
16 246900 ADRIANA DE ALMEIDA ANTONINI ASSESSOR ATIVO BELO HORIZONTE - COMARCA; PROCON-MG-SECRETARIA DE FISCALIZACOES 0,00 471,82 2.359,08 0,00 0,00 0,00 2.830,90 386,80 134,41 0,00 521,21 2.309,69 685,50 0,00 28/02/2015
17 217400 ADRIANA DE CARVALHO CATAO BRAGA ASSESSOR ATIVO BELO HORIZONTE - COMARCA; EXTINTA - DIRETORIA DE CONTRATOS E CONVÊNIOS 0,00 1.253,12 6.265,58 0,00 0,00 0,00 7.518,70 513,01 1.288,93 0,00 1.801,94 5.716,76 685,50 0,00 28/02/2015
18 434600 ADRIANA FERREIRA DA SILVA ANALISTA DO MP ATIVO BELO HORIZONTE - COMARCA; BH-14PJ DEFESA CONSUMIDOR-GAB 112PJ 7.014,37 701,44 0,00 0,00 0,00 0,00 7.715,81 848,74 1.062,29 0,00 1.911,03 5.804,78 685,50 0,00 28/02/2015
19 499800 ADRIANA FERREIRA TIAGO OFICIAL DO MP ATIVO SALINAS - COMARCA; SALINAS-PJ-02PJ 4.000,95 240,06 0,00 0,00 0,00 0,00 4.241,01 466,51 246,30 0,00 712,81 3.528,20 685,50 0,00 28/02/2015
20 543400 ADRIANA GUIMARAES NUNES DE PAULA ANALISTA DO MP ATIVO PATROCÍNIO - COMARCA; PATROCINIO-PJ-01PJ 5.006,87 0,00 0,00 0,00 0,00 0,00 5.006,87 550,76 399,66 0,00 950,42 4.056,45 685,50 0,00 28/02/2015
21 471500 ADRIANA HORTA DE CARVALHO RODRIGUES DE SOUSA ANALISTA DO MP ATIVO BELO HORIZONTE - COMARCA; GRUPO ESP PROM PROC JUST DEF PROB ADM PAT PUB 6.793,15 407,59 0,00 0,00 0,00 0,00 7.200,74 792,08 886,81 0,00 1.678,89 5.521,85 1.155,50 0,00 28/02/2015
22 86400 ADRIANA MOREIRA CALDEIRA BRANT OFICIAL DO MP ATIVO BELO HORIZONTE - COMARCA; EXTINTA-TUTELA DAS FUNDACOES-21 PJ- GABINETE 9.358,72 4.679,36 0,00 0,00 0,00 0,00 14.038,08 1.544,19 2.560,25 0,00 4.104,44 9.933,64 4.748,31 372,42 28/02/2015
23 480700 ADRIANA MOREIRA DE AVELLAR CEZILIO OFICIAL DO MP ATIVO BELO HORIZONTE - COMARCA; EXTINTA - DIVISAO DE MATERIAL DE CONSUMO 3.694,41 221,66 0,00 0,00 0,00 0,00 3.916,07 551,24 274,73 0,00 825,97 3.090,10 1.155,50 1.214,86 28/02/2015
24 326000 ADRIANA PEREIRA CARNEIRO RESENDE OFICIAL DO MP ATIVO BELO HORIZONTE - COMARCA; CAO-DIREITOS HUMANOS E APOIO COMUNITARIO 5.691,44 569,14 0,00 0,00 0,00 0,00 6.260,58 735,88 712,35 0,00 1.448,23 4.812,35 685,50 429,28 28/02/2015
25 502200 ADRIANA PETRUCCI DAVINA OFICIAL DO MP ATIVO PATROCÍNIO - COMARCA; PATROCINIO-PJ-03PJ 4.000,95 240,06 0,00 0,00 0,00 0,00 4.241,01 466,51 246,30 0,00 712,81 3.528,20 685,50 0,00 28/02/2015
26 201900 ADRIANA REIS PIMENTA OFICIAL DO MP ATIVO TEÓFILO OTONI - COMARCA; TEOFILO OTONI-PJ-03PJ 8.501,02 2.550,31 0,00 0,00 0,00 0,00 11.051,33 1.215,65 1.878,66 0,00 3.094,31 7.957,02 4.748,31 372,42 28/02/2015
27 278700 ADRIANA RODRIGUES PINTO COELHO AMARAL ANALISTA DO MP ATIVO BELO HORIZONTE - COMARCA; ASSESS TECNICA DA CORREGEDORIA-GERAL DO MP 9.977,95 1.995,59 0,00 0,00 0,00 0,00 11.973,54 1.317,09 2.005,53 0,00 3.322,62 8.650,92 685,50 0,00 28/02/2015
28 468000 ADRIANA SANTOS DE SANTANA MOREIRA ANALISTA DO MP ATIVO ARAÇUAÍ - COMARCA; ARACUAI-PJ-01PJ 6.793,15 2.037,95 0,00 0,00 0,00 0,00 8.831,10 1.046,15 1.464,95 0,00 2.511,10 6.320,00 5.897,63 1.340,45 28/02/2015
29 194700 ADRIANA TSUKIDE OFICIAL DO MP ATIVO UBERABA - COMARCA; COORD REG BACIAS PARANAIBA BAIXO RIO GRANDE 8.501,02 2.550,31 0,00 0,00 0,00 0,00 11.051,33 1.215,65 1.829,24 0,00 3.044,89 8.006,44 685,50 0,00 28/02/2015
30 206400 ADRIANE MENDES DE SOUZA ANALISTA DO MP ATIVO BELO HORIZONTE - COMARCA; BH-23PJ CIVEL-FISC AC POL PUB II 12.356,19 6.178,10 0,00 0,00 0,00 0,00 18.534,29 2.038,77 3.660,70 0,00 5.699,47 12.834,82 685,50 0,00 28/02/2015
31 465500 ADRIANO CASSIANO MATOS ANALISTA DO MP ATIVO ARAXÁ - COMARCA; ARAXA-PJ-02PJ 6.265,58 375,93 0,00 0,00 0,00 0,00 6.641,51 730,57 799,36 0,00 1.529,93 5.111,58 685,50 0,00 28/02/2015
32 500500 ADRIANO DE ALMEIDA SILVA OFICIAL DO MP ATIVO UBERABA - COMARCA; UBERABA-PJ-12PJ 4.000,95 240,06 0,00 0,00 0,00 0,00 4.241,01 466,51 246,30 0,00 712,81 3.528,20 863,70 13,37 28/02/2015
33 187200 ADRIANO DE FREITAS MARON OFICIAL DO MP ATIVO PONTE NOVA - COMARCA; PONTE NOVA-PJ-03PJ 6.793,15 4.755,22 0,00 0,00 0,00 0,00 11.548,37 1.270,32 2.000,31 0,00 3.270,63 8.277,74 4.748,31 372,42 28/02/2015
34 477900 ADRIANO FERREIRA DE ALMEIDA OFICIAL DO MP ATIVO MONTES CLAROS - COMARCA; MONTES CLAROS-PJ-04PJ 4.404,59 264,28 0,00 0,00 0,00 0,00 4.668,87 513,58 251,11 0,00 764,69 3.904,18 685,50 0,00 28/02/2015
35 269101 ADRIANO PEREIRA SILVA ANALISTA DO MP ATIVO UBERABA - COMARCA; UBERABA-PJ-02PJ 6.793,15 407,59 0,00 0,00 0,00 0,00 7.200,74 792,08 837,39 0,00 1.629,47 5.571,27 4.058,43 287,64 28/02/2015
36 414200 ADRIANO RODRIGUES FERNANDES ANALISTA DO MP ATIVO CARANDAÍ - COMARCA; CARANDAI-PJ-UNPJ 6.469,61 646,96 0,00 0,00 0,00 0,00 7.116,57 782,82 767,37 0,00 1.550,19 5.566,38 4.983,31 372,42 28/02/2015
37 536700 ADRIELLE COSTA MARIA OFICIAL DO MP ATIVO SERRO - COMARCA; SERRO-PJ-SECRETARIA 2.952,15 0,00 0,00 0,00 0,00 0,00 2.952,15 324,74 62,98 0,00 387,72 2.564,43 685,50 0,00 28/02/2015
38 514300 ADRIENE DAMASCENO BRAGA ANALISTA DO MP ATIVO ALFENAS - COMARCA; ALFENAS-PJ-03PJ 6.265,58 375,93 0,00 0,00 0,00 0,00 6.641,51 786,93 924,76 0,00 1.711,69 4.929,82 685,50 512,37 28/02/2015
39 254600 ADRIENE DOMINGUES COSTA ANALISTA DO MP ATIVO BELO HORIZONTE - COMARCA; PROC. JUSTICA DIR. DIFUSOS E COLETIVOS-SEC 9.358,72 1.871,74 0,00 0,00 0,00 0,00 11.230,46 1.235,35 1.922,51 0,00 3.157,86 8.072,60 0,00 0,00 28/02/2015
40 252001 ADRIENE GOMES BARRETO ANALISTA DO MP ATIVO BELO HORIZONTE - COMARCA; BH-19PJ SAUDE-SECRETARIA 150PJ 8.233,02 2.469,91 0,00 0,00 0,00 0,00 10.702,93 1.177,32 1.793,39 0,00 2.970,71 7.732,22 685,50 0,00 28/02/2015
41 118100 AGENOR ALCIR RODRIGUES DA SILVA OFICIAL DO MP ATIVO SÃO JOÃO NEPOMUCENO - COMARCA; SAO JOAO NEPOMUCENO-PJ-01PJ 10.984,62 7.689,24 0,00 0,00 0,00 0,00 18.673,86 2.054,12 3.744,28 0,00 5.798,40 12.875,46 4.748,31 372,42 28/02/2015
42 302500 AGENOR JOSE DA SILVA JUNIOR ANALISTA DO MP ATIVO JUIZ DE FORA - COMARCA; JUIZ DE FORA-PJ-07PJ 9.663,38 966,34 0,00 0,00 0,00 0,00 10.629,72 1.169,27 1.676,63 0,00 2.845,90 7.783,82 4.748,31 372,42 28/02/2015
43 357500 AILSON WAGNER DE ALENCAR SILVA OFICIAL DO MP ATIVO BELO HORIZONTE - COMARCA; DIRETORIA DO COLEGIO E DA CAMARA DE PJ 5.876,69 1.763,01 0,00 0,00 0,00 0,00 7.639,70 840,37 895,41 0,00 1.735,78 5.903,92 4.497,39 327,88 28/02/2015
44 366400 AILTON ALEXSSANDRO ALVES OFICIAL DO MP ATIVO PARÁ DE MINAS - COMARCA; PARA DE MINAS-PJ-05PJ 5.511,94 1.653,58 0,00 0,00 0,00 0,00 7.165,52 788,21 927,61 0,00 1.715,82 5.449,70 3.788,21 284,42 28/02/2015
45 318900 AILTON DE CASTRO RIBEIRO JUNIOR OFICIAL DO MP ATIVO POUSO ALEGRE - COMARCA; POUSO ALEGRE-PJ-03PJ 6.068,01 2.321,92 0,00 0,00 0,00 0,00 8.389,93 1.021,18 1.500,35 0,00 2.521,53 5.868,40 5.415,59 2.657,86 28/02/2015
46 464400 ALAN MONTEIRO GASPAR ANALISTA DO MP ATIVO SETE LAGOAS - COMARCA; SETE LAGOAS-PJ-03PJ 6.793,15 407,59 0,00 0,00 0,00 0,00 7.200,74 792,08 936,23 0,00 1.728,31 5.472,43 685,50 0,00 28/02/2015
47 492000 ALANA DE CASTRO FREITAS OFICIAL DO MP ATIVO BOM SUCESSO - COMARCA; BOM SUCESSO-PJ-UNPJ 3.355,81 201,35 0,00 0,00 0,00 0,00 3.557,16 391,29 139,85 0,00 531,14 3.026,02 685,50 0,00 28/02/2015
48 306700 ALANA MARCIA DE OLIVEIRA OFICIAL DO MP ATIVO BELO HORIZONTE - COMARCA; DIRETORIA DE ADMINISTRACAO FINANCEIRA 5.691,44 1.138,29 0,00 0,00 0,00 0,00 6.829,73 751,27 845,43 0,00 1.596,70 5.233,03 3.452,42 253,63 28/02/2015
49 324500 ALANMAR COUTINHO COSTA OFICIAL DO MP ATIVO LEOPOLDINA - COMARCA; LEOPOLDINA-PJ-02PJ 5.338,12 533,81 0,00 0,00 0,00 0,00 5.871,93 645,91 306,42 0,00 952,33 4.919,60 4.828,44 304,71 28/02/2015
50 508200 ALBERTO DA SILVA VIEIRA ASSESSOR ATIVO BELO HORIZONTE - COMARCA; ASSESS ESPECIAL DO PGJ ATUACAO JUNTO A PGJAA 0,00 0,00 8.777,78 0,00 0,00 0,00 8.777,78 513,01 1.536,33 0,00 2.049,34 6.728,44 4.748,31 372,42 28/02/2015
51 407300 ALBERTO LUIZ SOARES DE OLIVEIRA ANALISTA DO MP ATIVO BELO HORIZONTE - COMARCA; SUPERINTENDÊNCIA DE ENGENHARIA E ARQUITETURA 7.721,95 772,20 0,00 0,00 0,00 0,00 8.494,15 934,36 1.252,79 0,00 2.187,15 6.307,00 685,50 0,00 28/02/2015
52 118200 ALBERTO PEREIRA DA COSTA OFICIAL DO MP ATIVO DORES DO INDAIÁ - COMARCA; DORES DO INDAIA-PJ-UNPJ 9.663,38 6.764,36 0,00 0,00 0,00 0,00 16.427,74 1.807,05 3.095,70 0,00 4.902,75 11.524,99 685,50 0,00 28/02/2015
53 282400 ALCILENE MARISE DE ARAUJO ANALISTA DO MP ATIVO BELO HORIZONTE - COMARCA; BH-23PJ INF-FISC MED SOC FEC 9.977,95 1.995,59 0,00 0,00 0,00 0,00 11.973,54 1.317,09 2.005,53 0,00 3.322,62 8.650,92 685,50 0,00 28/02/2015
54 112600 ALCIONE DA MOTA JARDIM OFICIAL DO MP ATIVO BELO HORIZONTE - COMARCA; CAO-CRIANCAS E ADOLESCENTES 7.973,40 3.986,70 0,00 0,00 0,00 0,00 11.960,10 1.315,61 2.051,66 0,00 3.367,27 8.592,83 685,50 0,00 28/02/2015
55 396400 ALCIONE DE FREITAS E SILVA ANALISTA DO MP ATIVO BELO HORIZONTE - COMARCA; DIRET DE PESSOAL DO MINISTERIO PUBLICO - DPMP 8.233,02 2.469,91 0,00 0,00 0,00 0,00 10.702,93 1.177,32 1.793,39 0,00 2.970,71 7.732,22 4.748,31 372,42 28/02/2015
56 161600 ALCIONE NERY SOUZA ASSESSOR ATIVO BELO HORIZONTE - COMARCA; GRUPO ESPECIAL DE DEFESA DA FAUNA 0,00 2.506,23 6.265,58 0,00 0,00 0,00 8.771,81 513,01 1.633,53 0,00 2.146,54 6.625,27 685,50 0,00 28/02/2015
57 376000 ALDA GOMES LANA OFICIAL DO MP ATIVO BELO HORIZONTE - COMARCA; BH-18PJ VIOLENCIA DOMESTICA-SECRETARIA 5.169,86 516,99 0,00 0,00 0,00 0,00 5.686,85 625,55 516,29 0,00 1.141,84 4.545,01 685,50 0,00 28/02/2015
58 148000 ALDA MARTINS SIMOES OFICIAL DO MP ATIVO BELO HORIZONTE - COMARCA; BH-23PJ CIVEL- FISC ENT AB POL 9.512,31 3.991,18 0,00 0,00 0,00 0,00 13.503,49 1.536,60 2.464,74 0,00 4.001,34 9.502,15 1.155,50 0,00 28/02/2015
59 318400 ALDO CREPALDI JUNIOR OFICIAL DO MP ATIVO BELO HORIZONTE - COMARCA; EXTINTA - DIVISAO DE MATERIAL DE CONSUMO 5.691,44 1.138,29 0,00 0,00 0,00 0,00 6.829,73 751,27 1.352,41 0,00 2.103,68 4.726,05 920,50 2.023,29 28/02/2015
60 118400 ALECIO JOSE GUIMARAES DE OLIVEIRA ANALISTA DO MP ATIVO BOM SUCESSO - COMARCA; BOM SUCESSO-PJ-UNPJ 14.432,31 11.545,84 0,00 0,00 0,00 2.857,60 28.835,75 2.857,60 6.317,84 0,00 9.175,44 19.660,31 685,50 0,00 28/02/2015
61 604500 ALENIZE APARECIDA RODRIGUES HENRIQUE OFICIAL DO MP ATIVO RIO NOVO - COMARCA; RIO NOVO-PJ-UNPJ 2.952,15 0,00 0,00 0,00 984,05 0,00 3.936,20 324,74 209,62 0,00 534,36 3.401,84 685,50 0,00 28/02/2015
62 197900 ALESSA DE SOUSA E SILVA OFICIAL DO MP ATIVO OLIVEIRA - COMARCA; OLIVEIRA-PJ-02PJ 9.358,72 2.807,62 0,00 0,00 0,00 0,00 12.166,34 1.338,30 2.052,72 0,00 3.391,02 8.775,32 4.904,31 372,42 28/02/2015
63 428500 ALESSANDRA ALVES DINIZ OFICIAL DO MP ATIVO BELO HORIZONTE - COMARCA; CENTRAL DE APOIO TECNICO-SECRETARIA 3.814,70 1.525,88 0,00 0,00 0,00 0,00 5.340,58 587,46 480,96 0,00 1.068,42 4.272,16 685,50 0,00 28/02/2015
64 286801 ALESSANDRA BOTELHO JUNQUEIRA DE MENEZES ANALISTA DO MP ATIVO PASSOS - COMARCA; PASSOS-PJ-05PJ 7.973,40 2.392,02 0,00 0,00 0,00 0,00 10.365,42 1.227,90 1.757,68 0,00 2.985,58 7.379,84 1.155,50 797,34 28/02/2015
65 307000 ALESSANDRA CRISTINA SANTOS MENDES ANALISTA DO MP ATIVO BELO HORIZONTE - COMARCA; BH-18PJ VIOLENCIA DOMESTICA 7.014,37 1.402,87 0,00 0,00 0,00 0,00 8.417,24 925,90 1.184,55 0,00 2.110,45 6.306,79 685,50 0,00 28/02/2015
66 264400 ALESSANDRA DE SOUZA SANTOS COORDENADOR/ANALISTA ATIVO BELO HORIZONTE - COMARCA; DIRETORIA DE PRODUCAO EDITORIAL 10.984,62 5.355,96 0,00 0,00 0,00 0,00 16.340,58 1.570,80 3.235,54 0,00 4.806,34 11.534,24 685,50 0,00 28/02/2015
67 441500 ALESSANDRA DRUMMOND DE FIGUEIREDO ROSSI ANALISTA DO MP ATIVO BELO HORIZONTE - COMARCA; DIRETORIA DE PROJETOS DE EDIFICACOES 6.469,61 646,96 0,00 0,00 0,00 0,00 7.116,57 782,82 915,63 0,00 1.698,45 5.418,12 685,50 0,00 28/02/2015
68 524000 ALESSANDRA LUCIOLI DE BARROS GUERRA ANALISTA DO MP ATIVO BELO HORIZONTE - COMARCA; BH-19PJ SAUDE--SECRETARIA 6.068,01 0,00 0,00 0,00 0,00 0,00 6.068,01 667,48 510,74 0,00 1.178,22 4.889,79 685,50 0,00 28/02/2015
69 479900 ALESSANDRA MARA ANDRADE DE FARIA OFICIAL DO MP ATIVO UBERABA - COMARCA; UBERABA-PJ-09PJ 4.404,59 264,28 0,00 0,00 0,00 0,00 4.668,87 654,76 565,22 0,00 1.219,98 3.448,89 1.091,64 1.439,04 28/02/2015
70 226700 ALESSANDRA MARA VASCONCELOS REZENDE OFICIAL DO MP ATIVO CONSELHEIRO LAFAIETE - COMARCA; CONSELHEIRO LAFAIETE-PJ-07PJ 5.338,12 1.067,62 0,00 0,00 0,00 0,00 6.405,74 704,63 741,66 0,00 1.446,29 4.959,45 685,50 0,00 28/02/2015
71 112100 ALESSANDRA MARCIA FERREIRA OFICIAL DO MP ATIVO BELO HORIZONTE - COMARCA; BELO HORIZONTE- SECRETARIA DAS PROMOTORIAS 7.721,95 3.088,79 0,00 0,00 0,00 0,00 10.810,74 1.189,18 1.770,36 0,00 2.959,54 7.851,20 685,50 0,00 28/02/2015
72 196500 ALESSANDRA MARIA RIBEIRO LUCIANO OFICIAL DO MP ATIVO RIO PARANAÍBA - COMARCA; RIO PARANAIBA-PJ-UNPJ 9.358,72 2.807,62 0,00 0,00 0,00 0,00 12.166,34 1.338,30 2.102,14 0,00 3.440,44 8.725,90 920,50 0,00 28/02/2015
73 91400 ALESSANDRA MENDES VASCONCELOS DE SOUZA OFICIAL DO MP ATIVO BELO HORIZONTE - COMARCA; BH-23PJ INF-FISC MED SOC AB 12.356,19 6.178,10 0,00 0,00 0,00 0,00 18.534,29 2.038,77 3.710,12 0,00 5.748,89 12.785,40 685,50 0,00 28/02/2015
74 384900 ALESSANDRA RODRIGUES ANALISTA DO MP ATIVO VISCONDE DO RIO BRANCO - COMARCA; VISCONDE DO RIO BRANCO-PJ-03PJ 8.233,02 823,30 0,00 0,00 0,00 0,00 9.056,32 996,20 1.291,54 0,00 2.287,74 6.768,58 4.748,31 372,42 28/02/2015
75 390000 ALESSANDRA SPADANO MASSARA VASCONCELOS OFICIAL DO MP ATIVO BETIM - COMARCA; BETIM-PJ-10PJ 5.169,86 516,99 0,00 0,00 0,00 0,00 5.686,85 625,55 565,71 0,00 1.191,26 4.495,59 685,50 0,00 28/02/2015
76 426500 ALESSANDRO CAMPOS DE PAIVA COORDENADOR/ANALISTA ATIVO BELO HORIZONTE - COMARCA; DIRETORIA DE PUBLICIDADE INSTITUCIONAL 0,00 1.030,28 10.302,83 0,00 0,00 0,00 11.333,11 1.428,94 1.897,50 0,00 3.326,44 8.006,67 685,50 0,00 28/02/2015
77 623400 ALESSANDRO DE OLIVEIRA REZENDE ANALISTA DO MP ATIVO BELO HORIZONTE - COMARCA; DIVISAO DE MEMORIA INSTITUCIONAL 4.404,59 0,00 0,00 0,00 0,00 0,00 4.404,59 484,50 279,06 0,00 763,56 3.641,03 685,50 0,00 28/02/2015
78 420600 ALESSANDRO SILVA OFICIAL DO MP ATIVO VISCONDE DO RIO BRANCO - COMARCA; VISCONDE DO RIO BRANCO-PJ-02PJ 4.548,03 909,61 0,00 0,00 0,00 0,00 5.457,64 765,41 418,11 0,00 1.183,52 4.274,12 4.748,31 1.870,51 28/02/2015
79 375301 ALETHEIA PATRICIA ASSIS MORAIS MOREIRA ANALISTA DO MP ATIVO ITABIRA - COMARCA; ITABIRA-PJ-02PJ 5.511,94 0,00 0,00 0,00 0,00 0,00 5.511,94 606,31 522,90 0,00 1.129,21 4.382,73 4.748,31 372,42 28/02/2015
80 382300 ALEX CARVALHO LIMA ANALISTA DO MP ATIVO UBERLÂNDIA - COMARCA; UBERLANDIA-PJ-14PJ 8.233,02 823,30 0,00 0,00 0,00 0,00 9.056,32 996,20 1.260,36 0,00 2.256,56 6.799,76 685,50 0,00 28/02/2015
81 195201 ALEX DE CASTRO PEREIRA ANALISTA DO MP ATIVO UBERABA - COMARCA; UBERABA-PJ-09PJ 9.977,95 2.993,39 0,00 0,00 0,00 0,00 12.971,34 1.426,85 2.299,16 0,00 3.726,01 9.245,33 4.748,31 372,42 28/02/2015
82 358900 ALEX DE PAULA LANZA ASSESSOR ATIVO BELO HORIZONTE - COMARCA; DIRETORIA DE IMPRENSA 0,00 0,00 6.265,58 0,00 0,00 0,00 6.265,58 513,01 944,32 0,00 1.457,33 4.808,25 685,50 0,00 28/02/2015
83 178400 ALEX RODRIGO SALDANHA GUIMARAES OFICIAL DO MP ATIVO BELO HORIZONTE - COMARCA; DIRETORIA DE SISTEMAS DE INFORMACAO 4.696,06 1.408,82 0,00 0,00 0,00 0,00 6.104,88 671,54 668,02 0,00 1.339,56 4.765,32 685,50 0,00 28/02/2015
84 289200 ALEX SANDRO PEREIRA DE MATOS OFICIAL DO MP ATIVO BELO HORIZONTE - COMARCA; PROCON-MG-SECRETARIA DE FISCALIZACOES 4.696,06 2.047,53 0,00 0,00 0,00 0,00 6.743,59 619,88 857,87 0,00 1.477,75 5.265,84 685,50 0,00 28/02/2015
85 413500 ALEX VILELA OLIVEIRA ANALISTA DO MP ATIVO GOVERNADOR VALADARES - COMARCA; COORD REG PJ DEF EDU DIR CRIANCA ADOL RIODOCE 7.973,40 797,34 0,00 0,00 2.923,58 0,00 11.694,32 964,78 2.124,47 0,00 3.089,25 8.605,07 685,50 0,00 28/02/2015
86 264300 ALEXANDRA FATIMA SARAIVA SOARES ANALISTA DO MP ATIVO BELO HORIZONTE - COMARCA; CENTRAL DE APOIO TECN-SETOR DE MEIO AMBIENTE 10.984,62 2.196,92 0,00 0,00 0,00 0,00 13.181,54 1.449,97 2.400,03 0,00 3.850,00 9.331,54 685,50 0,00 28/02/2015
87 488000 ALEXANDRA LARA PAIS DE CARVALHO ANALISTA DO MP ATIVO GUANHÃES - COMARCA; GUANHAES-PJ-SECRETARIA 5.691,44 341,49 0,00 0,00 0,00 0,00 6.032,93 663,62 551,57 0,00 1.215,19 4.817,74 1.155,50 0,00 28/02/2015
88 256300 ALEXANDRA SANTOS GOMES OFICIAL DO MP ATIVO BELO HORIZONTE - COMARCA; EXTINTA - DIVISÃO DE COMPRAS 5.876,69 1.175,34 0,00 0,00 0,00 0,00 7.052,03 775,72 899,84 0,00 1.675,56 5.376,47 685,50 0,00 28/02/2015
89 403300 ALEXANDRE AUGUSTO RODRIGUES ANALISTA DO MP ATIVO ÁGUAS FORMOSAS - COMARCA; AGUAS FORMOSAS-PJ-UNPJ 7.014,37 701,44 0,00 0,00 0,00 0,00 7.715,81 848,74 1.062,29 0,00 1.911,03 5.804,78 685,50 0,00 28/02/2015
90 311700 ALEXANDRE BARCELOS RESENDE OFICIAL DO MP ATIVO BELO HORIZONTE - COMARCA; BH-07PJ 03 TRIBUNAL DO JURI-GAB 109PJ 4.848,98 484,90 0,00 0,00 0,00 0,00 5.333,88 679,24 577,08 0,00 1.256,32 4.077,56 4.748,31 1.201,83 28/02/2015
91 285600 ALEXANDRE CAMPOS DE OLIVEIRA OFICIAL DO MP ATIVO UBERABA - COMARCA; COORD REG BACIAS PARANAIBA BAIXO RIO GRANDE 6.578,93 1.315,79 0,00 0,00 2.631,57 0,00 10.526,29 868,42 1.681,50 0,00 2.549,92 7.976,37 1.155,50 0,00 28/02/2015
92 509200 ALEXANDRE CAPUANO DE REZENDE ANALISTA DO MP ATIVO BELO HORIZONTE - COMARCA; GABINETE DE PROCURADOR DE JUSTIÇA - SALA 514 6.265,58 375,93 0,00 0,00 2.213,84 0,00 8.855,35 730,57 1.358,74 0,00 2.089,31 6.766,04 685,50 0,00 28/02/2015
93 229400 ALEXANDRE CARLOS BOTREL DIRETOR/OFICIAL ATIVO BELO HORIZONTE - COMARCA; SUPERINTENDENCIA DOS ORGAOS COLEGIADOS 0,00 2.670,79 13.353,95 0,00 0,00 0,00 16.024,74 1.052,49 3.291,22 0,00 4.343,71 11.681,03 4.748,31 372,42 28/02/2015
94 411900 ALEXANDRE CARVALHO SANTOS RIBEIRO ANALISTA DO MP ATIVO PERDÕES - COMARCA; PERDOES-PJ-UNPJ 7.973,40 797,34 0,00 0,00 0,00 0,00 8.770,74 1.544,99 1.933,58 0,00 3.478,57 5.292,17 920,50 5.626,29 28/02/2015
95 201200 ALEXANDRE DE ALENCAR CORDEIRO OFICIAL DO MP ATIVO ÁGUAS FORMOSAS - COMARCA; AGUAS FORMOSAS-PJ-UNPJ 4.696,06 1.878,43 0,00 0,00 0,00 0,00 6.574,49 723,19 782,96 0,00 1.506,15 5.068,34 685,50 0,00 28/02/2015
96 288200 ALEXANDRE DE VASCONCELOS COSTA KER ANALISTA DO MP ATIVO BELO HORIZONTE - COMARCA; BH-03PJ EMPRESARIAL-SECRETARIA 9.663,38 1.932,68 0,00 0,00 0,00 0,00 11.596,06 1.275,57 1.962,56 0,00 3.238,13 8.357,93 4.748,31 372,42 28/02/2015
97 445000 ALEXANDRE DIOGENES OLIVEIRA ANALISTA DO MP ATIVO SALINAS - COMARCA; SALINAS-PJ-02PJ 7.014,37 701,44 0,00 0,00 0,00 0,00 7.715,81 848,74 1.062,29 0,00 1.911,03 5.804,78 685,50 0,00 28/02/2015
98 463400 ALEXANDRE LEAL WINKELSTROTER ANALISTA DO MP ATIVO TEÓFILO OTONI - COMARCA; TEOFILO OTONI-PJ-04PJ 6.265,58 375,93 0,00 0,00 0,00 0,00 6.641,51 730,57 749,94 0,00 1.480,51 5.161,00 685,50 0,00 28/02/2015
99 615700 ALEXANDRE LUIZ DE CASTRO MACIEL ANALISTA DO MP ATIVO IBIRITÉ - COMARCA; IBIRITE-PJ-02PJ 4.848,98 0,00 0,00 0,00 0,00 0,00 4.848,98 533,39 368,05 0,00 901,44 3.947,54 685,50 0,00 28/02/2015
100 356900 ALEXANDRE MOISES MENDONCA E ARAUJO OFICIAL DO MP ATIVO UBERABA - COMARCA; UBERABA-PJ-13PJ 4.696,06 469,61 0,00 0,00 0,00 0,00 5.165,67 568,22 438,15 0,00 1.006,37 4.159,30 685,50 0,00 28/02/2015
101 633300 ALEXANDRE NONATO MARTINS OFICIAL DO MP ATIVO IGARAPÉ - COMARCA; IGARAPE-PJ-02PJ 2.859,08 0,00 0,00 0,00 0,00 0,00 2.859,08 314,50 43,29 0,00 357,79 2.501,29 685,50 0,00 28/02/2015
102 469900 ALEXANDRE PEREIRA GUEDES ANALISTA DO MP ATIVO CATAGUASES - COMARCA; CATAGUASES-PJ-03PJ 6.793,15 407,59 0,00 0,00 0,00 0,00 7.200,74 792,08 936,23 0,00 1.728,31 5.472,43 685,50 0,00 28/02/2015
103 208700 ALEXANDRE RESENDE FRAGA ANALISTA DO MP ATIVO BELO HORIZONTE - COMARCA; BH-19PJ SAUDE 12.845,44 3.853,63 0,00 0,00 0,00 0,00 16.699,07 1.836,90 3.112,69 0,00 4.949,59 11.749,48 1.390,50 0,00 28/02/2015
104 216401 ALEXANDRE RIBEIRO DE LIMA MAIORINO ANALISTA DO MP ATIVO UBERABA - COMARCA; UBERABA-PJ-03PJ 9.663,38 2.899,01 0,00 0,00 0,00 0,00 12.562,39 1.381,86 2.199,08 0,00 3.580,94 8.981,45 685,50 0,00 28/02/2015
105 475100 ALEXANDRE TEOTONIO COSTA ANALISTA DO MP ATIVO ARAGUARI - COMARCA; ARAGUARI-PJ-01PJ 6.793,15 407,59 0,00 0,00 0,00 0,00 7.200,74 792,08 837,39 0,00 1.629,47 5.571,27 1.155,50 0,00 28/02/2015
106 339000 ALEXANDRE VITOR CARDOSO OFICIAL DO MP ATIVO BELO HORIZONTE - COMARCA; BH-18PJ DIREITOS HUMANOS-SECRETARIA 4.696,06 469,61 0,00 0,00 0,00 0,00 5.165,67 568,22 310,16 0,00 878,38 4.287,29 1.788,36 82,71 28/02/2015
107 623100 ALEXSANDER BATISTA AGUIAR ANALISTA DO MP ATIVO BELO HORIZONTE - COMARCA; DIRETORIA DE SUPORTE E MANUTENCAO 4.848,98 0,00 0,00 0,00 0,00 0,00 4.848,98 533,39 287,18 0,00 820,57 4.028,41 685,50 0,00 28/02/2015
108 513300 ALFSON MIRANDA BRAGA ANALISTA DO MP ATIVO BELO HORIZONTE - COMARCA; BH-12PJ JUIZO CRIMINAL-GAB 092PJ 5.691,44 341,49 0,00 0,00 0,00 0,00 6.032,93 663,62 650,41 0,00 1.314,03 4.718,90 685,50 0,00 28/02/2015
109 618400 ALICE MAGALHAES MACEDO DE CARVALHO ANALISTA DO MP ATIVO AÇUCENA - COMARCA; ACUCENA-PJ-UNPJ 4.848,98 0,00 0,00 0,00 0,00 0,00 4.848,98 533,39 368,05 0,00 901,44 3.947,54 685,50 0,00 28/02/2015
110 471000 ALICE TITONELI MOREIRA ANALISTA DO MP ATIVO MIRADOURO - COMARCA; MIRADOURO-PJ-UNPJ 6.793,15 407,59 0,00 0,00 0,00 0,00 7.200,74 792,08 886,81 0,00 1.678,89 5.521,85 920,50 0,00 28/02/2015
111 622400 ALINE BALBINO PORTUGAL ANALISTA DO MP ATIVO TRÊS PONTAS - COMARCA; TRES PONTAS-PJ-SECRETARIA 4.848,98 0,00 0,00 0,00 0,00 0,00 4.848,98 533,39 368,05 0,00 901,44 3.947,54 685,50 0,00 28/02/2015
112 373000 ALINE BOTELHO RESENDE OFICIAL DO MP ATIVO PASSA QUATRO - COMARCA; PASSA QUATRO-PJ-SECRETARIA 5.338,12 533,81 0,00 0,00 0,00 0,00 5.871,93 645,91 611,01 0,00 1.256,92 4.615,01 685,50 0,00 28/02/2015
113 407700 ALINE CRISTINA RODRIGUES PEREIRA ANALISTA DO MP ATIVO BELO HORIZONTE - COMARCA; DIRETORIA DE PROJETOS DE EDIFICACOES 6.469,61 646,96 0,00 0,00 0,00 0,00 7.116,57 782,82 915,63 0,00 1.698,45 5.418,12 920,50 0,00 28/02/2015
114 193100 ALINE CRISTINA SENA OLIVEIRA OFICIAL DO MP ATIVO UBERLÂNDIA - COMARCA; UBERLANDIA-PJ-03PJ 8.501,02 3.658,63 0,00 0,00 0,00 0,00 12.159,65 1.215,65 2.134,03 0,00 3.349,68 8.809,97 4.748,31 372,42 28/02/2015
115 554200 ALINE CRISTINA SILVA SOUZA OFICIAL DO MP ATIVO TIROS - COMARCA; TIROS-PJ-UNPJ 2.952,15 0,00 0,00 0,00 0,00 0,00 2.952,15 324,74 62,98 0,00 387,72 2.564,43 685,50 0,00 28/02/2015
116 505500 ALINE DA CUNHA MARREIROS OLIVEIRA ANALISTA DO MP ATIVO CARANGOLA - COMARCA; CARANGOLA-PJ-03PJ 6.265,58 375,93 0,00 0,00 0,00 0,00 6.641,51 730,57 749,94 0,00 1.480,51 5.161,00 4.905,41 365,28 28/02/2015
117 433500 ALINE DE MELO QUEIROZ OFICIAL DO MP ATIVO BELO HORIZONTE - COMARCA; PROCON-MG-SECRETARIA DE FISCALIZACOES 5.006,87 1.609,01 0,00 0,00 0,00 0,00 6.615,88 605,83 826,61 0,00 1.432,44 5.183,44 685,50 0,00 28/02/2015
118 542700 ALINE DE SOUSA ALBINO ANALISTA DO MP ATIVO CARMO DO PARANAÍBA - COMARCA; CARMO DO PARANAIBA-PJ-01PJ 5.006,87 0,00 0,00 0,00 0,00 0,00 5.006,87 550,76 399,66 0,00 950,42 4.056,45 685,50 0,00 28/02/2015
119 330000 ALINE DIORIO MAYRINK OFICIAL DO MP ATIVO BELO HORIZONTE - COMARCA; COORD ESTADUAL DE DEFESA DA EDUCACAO 5.006,87 500,69 0,00 0,00 0,00 0,00 5.507,56 605,83 521,83 0,00 1.127,66 4.379,90 2.130,25 132,44 28/02/2015
120 499000 ALINE FERREIRA LOPES NEIVA ANALISTA DO MP ATIVO TEÓFILO OTONI - COMARCA; COORD. DE DEF. DO PAT. PUBLICO-JEQUIT./MUCURI 6.265,58 375,93 0,00 0,00 0,00 0,00 6.641,51 730,57 749,94 0,00 1.480,51 5.161,00 685,50 0,00 28/02/2015
121 405300 ALINE LAIA CARDOZO ANALISTA DO MP ATIVO BELO HORIZONTE - COMARCA; EXTINTA - DIRETORIA DE CONTRATOS E CONVÊNIOS 8.233,02 823,30 0,00 0,00 3.018,77 0,00 12.075,09 996,20 2.220,54 0,00 3.216,74 8.858,35 685,50 0,00 28/02/2015
122 278200 ALINE MARCIA FARIA BARBOSA OFICIAL DO MP ATIVO BARBACENA - COMARCA; BARBACENA-PJ-SECRETARIA 4.696,06 939,21 0,00 0,00 0,00 0,00 5.635,27 619,88 404,82 0,00 1.024,70 4.610,57 920,50 0,00 28/02/2015
123 389000 ALINE NERI NOBRE ANALISTA DO MP ATIVO MONTES CLAROS - COMARCA; COORD REG PJ DEF EDUC DIR CRIANCA ADOL NORTE 8.233,02 1.646,60 0,00 0,00 0,00 0,00 9.879,62 1.086,76 1.591,89 0,00 2.678,65 7.200,97 685,50 0,00 28/02/2015
124 294600 ALINE PATRICIA SILVA VIEIRA OFICIAL DO MP ATIVO UBERLÂNDIA - COMARCA; UBERLANDIA-PJ-03PJ 6.578,93 2.424,11 0,00 0,00 0,00 0,00 9.003,04 868,42 1.312,03 0,00 2.180,45 6.822,59 5.218,31 372,42 28/02/2015
125 420000 ALINE RODRIGUES CAMOROPIN ANALISTA DO MP ATIVO SABARÁ - COMARCA; SABARA-PJ-02PJ 7.973,40 797,34 0,00 0,00 2.923,58 0,00 11.694,32 1.544,99 2.640,86 0,00 4.185,85 7.508,47 1.740,43 5.371,35 28/02/2015
126 408300 ALINE SILVA ARAUJO DE PAULA ANALISTA DO MP ATIVO SÃO SEBASTIÃO DO PARAÍSO - COMARCA; SAO SEBASTIAO DO PARAISO-PJ-02PJ 7.973,40 797,34 0,00 0,00 0,00 0,00 8.770,74 964,78 1.320,49 0,00 2.285,27 6.485,47 4.748,31 372,42 28/02/2015
127 425400 ALINE TRINDADE DE FREITAS CAMPOS OFICIAL DO MP ATIVO BELO HORIZONTE - COMARCA; BH-14PJ DEFESA CONSUMIDOR-SECRETARIA 5.006,87 500,69 0,00 0,00 0,00 0,00 5.507,56 605,83 521,83 0,00 1.127,66 4.379,90 685,50 0,00 28/02/2015
128 517200 ALISSOM PEREIRA DA SILVA ANALISTA DO MP ATIVO BORDA DA MATA - COMARCA; BORDA DA MATA-PJ-UNPJ 6.265,58 375,93 0,00 0,00 0,00 0,00 6.641,51 799,68 901,87 0,00 1.701,55 4.939,96 685,50 628,26 28/02/2015
129 442400 ALISSON LABRE ANALISTA DO MP ATIVO VARGINHA - COMARCA; VARGINHA-PJ-02PJ 7.014,37 701,44 0,00 0,00 0,00 0,00 7.715,81 848,74 1.062,29 0,00 1.911,03 5.804,78 685,50 0,00 28/02/2015
130 349000 ALLEC RODRIGUES VIEIRA ASSESSOR/OFICIAL ATIVO BELO HORIZONTE - COMARCA; COORD DE INCLUSAO E MOBILIZACAO SOCIAIS 0,00 877,78 8.777,78 0,00 0,00 0,00 9.655,56 1.062,11 1.537,05 0,00 2.599,16 7.056,40 4.748,31 372,42 28/02/2015
131 297300 ALLYSON SALIBA MONTEIRO LAIZO ANALISTA DO MP ATIVO CONSELHEIRO LAFAIETE - COMARCA; CONSELHEIRO LAFAIETE-PJ-03PJ 10.638,28 2.127,66 0,00 0,00 0,00 0,00 12.765,94 1.404,25 2.298,31 0,00 3.702,56 9.063,38 4.748,31 372,42 28/02/2015
132 303700 ALMIR LOPES LOURES ANALISTA DO MP ATIVO BELO HORIZONTE - COMARCA; CENTRAL DE APOIO TECN-SETOR DE MEIO AMBIENTE 10.638,28 2.127,66 0,00 0,00 0,00 0,00 12.765,94 1.404,25 2.199,47 0,00 3.603,72 9.162,22 4.748,31 372,42 28/02/2015
133 515900 ALTAIR NEVES JUNIOR OFICIAL DO MP ATIVO BELO HORIZONTE - COMARCA; BH-03PJ EMPRESARIAL-SECRETARIA 4.000,95 240,06 0,00 0,00 0,00 0,00 4.241,01 466,51 246,30 0,00 712,81 3.528,20 4.748,31 304,71 28/02/2015
134 233300 ALVARINDO BATISTA COORDENADOR/ANALISTA ATIVO BELO HORIZONTE - COMARCA; DIVISAO DE MULTIMIDIA 12.356,19 4.283,96 0,00 0,00 0,00 0,00 16.640,15 1.631,02 3.301,36 0,00 4.932,38 11.707,77 685,50 0,00 28/02/2015
135 274100 ALYSSON CARVALHO VIDAL DE LACERDA OFICIAL DO MP ATIVO MANHUAÇU - COMARCA; MANHUACU-PJ-01PJ 6.793,15 1.358,63 0,00 0,00 2.717,26 0,00 10.869,04 896,70 1.916,24 0,00 2.812,94 8.056,10 685,50 0,00 28/02/2015
136 621000 AMANDA BASTOS ALVES ANALISTA DO MP ATIVO BELO HORIZONTE - COMARCA; BH-18PJ VIOLENCIA DOMESTICA-SECRETARIA 4.404,59 0,00 0,00 0,00 0,00 0,00 4.404,59 484,50 279,06 0,00 763,56 3.641,03 685,50 0,00 28/02/2015
137 521700 AMANDA CRISTINA AGUIAR MACHADO OFICIAL DO MP ATIVO CONGONHAS - COMARCA; CONGONHAS-PJ-01PJ 3.250,03 195,00 0,00 0,00 1.148,34 0,00 4.593,37 400,40 343,90 0,00 744,30 3.849,07 685,50 195,00 28/02/2015
138 613400 AMANDA DE ASSIS IUNES SANTOS ANALISTA DO MP ATIVO PIRANGA - COMARCA; PIRANGA-PJ-UNPJ 4.404,59 0,00 0,00 0,00 0,00 0,00 4.404,59 484,50 279,06 0,00 763,56 3.641,03 920,50 0,00 28/02/2015
139 520800 AMANDA DE SOUZA MACHADO ANALISTA DO MP ATIVO BAEPENDI - COMARCA; BAEPENDI-PJ-UNPJ 6.068,01 364,08 0,00 0,00 0,00 0,00 6.432,09 747,58 771,75 0,00 1.519,33 4.912,76 920,50 485,44 28/02/2015
140 543100 AMANDA VIEIRA FREITAS ANALISTA DO MP ATIVO PARAGUAÇU - COMARCA; PARAGUACU-PJ-UNPJ 4.548,03 0,00 0,00 0,00 0,00 0,00 4.548,03 500,28 307,78 0,00 808,06 3.739,97 685,50 0,00 28/02/2015
141 434400 AMARILIS ASSIS SIMAO CURCIO ANALISTA DO MP ATIVO MANHUAÇU - COMARCA; MANHUACU-PJ-SECRETARIA 7.014,37 701,44 0,00 0,00 0,00 0,00 7.715,81 848,74 1.062,29 0,00 1.911,03 5.804,78 1.155,50 0,00 28/02/2015
142 273700 AMBROLINA CARNEIRO DE VASCONCELOS OFICIAL DO MP ATIVO FRUTAL - COMARCA; FRUTAL-PJ-03PJ 6.469,61 3.234,80 0,00 0,00 0,00 0,00 9.704,41 1.067,49 1.499,58 0,00 2.567,07 7.137,34 685,50 0,00 28/02/2015
143 58000 AMELIA GUARIZE DE CASTRO OFICIAL DO MP ATIVO JUIZ DE FORA - COMARCA; JUIZ DE FORA-PJ-SECRETARIA 5.169,86 4.652,88 0,00 0,00 0,00 1.080,50 10.903,24 1.080,50 1.875,10 0,00 2.955,60 7.947,64 685,50 0,00 28/02/2015
144 324301 AMERICA SUELI FERREIRA DA SILVA ANALISTA DO MP ATIVO MONTE CARMELO - COMARCA; MONTE CARMELO-PJ-02PJ 6.793,15 407,59 0,00 0,00 0,00 0,00 7.200,74 792,08 936,23 0,00 1.728,31 5.472,43 685,50 0,00 28/02/2015
145 273300 AMUJACY DE BRITO ASSIZ OFICIAL DO MP ATIVO BELO HORIZONTE - COMARCA; BH-12PJ JUIZO CRIMINAL-SECRETARIA 6.265,58 1.253,12 0,00 0,00 0,00 0,00 7.518,70 827,06 816,37 0,00 1.643,43 5.875,27 4.376,39 316,79 28/02/2015
146 482200 ANA ALICE LOPES ACHTSCHIN ANALISTA DO MP ATIVO BELO HORIZONTE - COMARCA; PROC JUST RECURSOS ESP E EXTRAORD CRIMINAIS 6.793,15 407,59 0,00 0,00 0,00 0,00 7.200,74 976,62 1.209,97 0,00 2.186,59 5.014,15 685,50 1.677,66 28/02/2015
147 490400 ANA AMELIA PAULINO GARCIA OFICIAL DO MP ATIVO BELO HORIZONTE - COMARCA; BH-12PJ JUIZO CRIMINAL-SECRETARIA 4.000,95 240,06 0,00 0,00 0,00 0,00 4.241,01 466,51 246,30 0,00 712,81 3.528,20 685,50 0,00 28/02/2015
148 279100 ANA CAROLINA ARAUJO PEREIRA ANALISTA DO MP ATIVO BELO HORIZONTE - COMARCA; DIRETORIA DE PROJETOS DE EDIFICACOES 9.592,18 2.127,66 0,00 0,00 0,00 0,00 11.719,84 1.404,25 1.961,22 0,00 3.365,47 8.354,37 920,50 0,00 28/02/2015
149 359400 ANA CAROLINA DE ABREU FARIA ASSESSOR ATIVO BELO HORIZONTE - COMARCA; DIVISAO DE CONTROLE IMOBILIARIO 0,00 0,00 6.265,58 0,00 0,00 0,00 6.265,58 513,01 944,32 0,00 1.457,33 4.808,25 685,50 0,00 28/02/2015
150 408500 ANA CAROLINA DE CASTRO CARVALHO ANALISTA DO MP ATIVO BARBACENA - COMARCA; BARBACENA-PJ-SECRETARIA 7.973,40 797,34 0,00 0,00 0,00 0,00 8.770,74 964,78 1.320,49 0,00 2.285,27 6.485,47 4.748,31 372,42 28/02/2015
151 420200 ANA CAROLINA FERNANDES SILVA ANALISTA DO MP ATIVO BELO HORIZONTE - COMARCA; GABINETE DE PROCURADOR DE JUSTIÇA - SALA 708 7.721,95 772,20 0,00 0,00 0,00 0,00 8.494,15 934,36 1.252,79 0,00 2.187,15 6.307,00 685,50 0,00 28/02/2015
152 522100 ANA CAROLINA FERNANDINO VIDAL PEREIRA SANTOS OFICIAL DO MP ATIVO BELO HORIZONTE - COMARCA; EXTINTA - SECRETARIA ADMINISTRATIVA 3.938,84 236,33 0,00 0,00 0,00 0,00 4.175,17 609,15 490,32 0,00 1.099,47 3.075,70 920,50 1.561,65 28/02/2015
153 502400 ANA CAROLINA GONCALVES FERNANDES ANALISTA DO MP ATIVO GRAO MOGOL - COMARCA; GRAO MOGOL-PJ-UNPJ 6.265,58 375,93 0,00 0,00 0,00 0,00 6.641,51 730,57 799,36 0,00 1.529,93 5.111,58 685,50 0,00 28/02/2015
154 529900 ANA CAROLINA GONCALVES PECANHA CHEQUER ANALISTA DO MP ATIVO MANHUAÇU - COMARCA; MANHUACU-PJ-04PJ 5.006,87 0,00 0,00 0,00 0,00 0,00 5.006,87 550,76 399,66 0,00 950,42 4.056,45 685,50 0,00 28/02/2015
155 431900 ANA CAROLINA MOTTA GUATIMOSIM ANALISTA DO MP ATIVO BELO HORIZONTE - COMARCA; GABINETE DE PROCURADOR DE JUSTIÇA - SALA 813 7.014,37 701,44 0,00 0,00 0,00 0,00 7.715,81 848,74 1.062,29 0,00 1.911,03 5.804,78 685,50 0,00 28/02/2015
156 539400 ANA CAROLINA REIS MACEDO ANALISTA DO MP ATIVO UBERABA - COMARCA; COORD REG PJ DEF EDUC DIR CRIANCA ADOL TRIANG 5.006,87 0,00 0,00 0,00 0,00 0,00 5.006,87 550,76 399,66 0,00 950,42 4.056,45 685,50 0,00 28/02/2015
157 490600 ANA CAROLINA XAVIER GODOY ANALISTA DO MP ATIVO BELO HORIZONTE - COMARCA; BH-18PJ VIOLENCIA DOMESTICA 6.265,58 375,93 0,00 0,00 2.213,84 0,00 8.855,35 730,57 1.408,16 0,00 2.138,73 6.716,62 685,50 0,00 28/02/2015
158 600300 ANA CAROLINE PEREIRA DINIZ ANALISTA DO MP ATIVO BELO HORIZONTE - COMARCA; COMB CRIMES PRAT POR AG POL MUN-SECRETARIA 5.006,87 0,00 0,00 0,00 1.668,96 0,00 6.675,83 550,76 858,24 0,00 1.409,00 5.266,83 920,50 0,00 28/02/2015
159 615800 ANA CAROLINE PEREIRA OLIVEIRA OFICIAL DO MP ATIVO ALFENAS - COMARCA; ALFENAS-PJ-06PJ 2.859,08 0,00 0,00 0,00 0,00 0,00 2.859,08 314,50 56,76 0,00 371,26 2.487,82 685,50 0,00 28/02/2015
160 324800 ANA CECILIA MENDES DA SILVA OFICIAL DO MP ATIVO OURO FINO - COMARCA; OURO FINO-PJ-01PJ 6.068,01 1.213,60 0,00 0,00 0,00 0,00 7.281,61 800,98 906,60 0,00 1.707,58 5.574,03 920,50 0,00 28/02/2015
161 441300 ANA CLAUDIA ALKIMIM MIRANDA BOMTEMPO ANALISTA DO MP ATIVO MONTES CLAROS - COMARCA; MONTES CLAROS-PJ-11PJ 7.014,37 701,44 0,00 0,00 0,00 0,00 7.715,81 848,74 963,45 0,00 1.812,19 5.903,62 1.155,50 0,00 28/02/2015
162 604900 ANA CLAUDIA OLIVEIRA DE MIRANDA OFICIAL DO MP ATIVO PONTE NOVA - COMARCA; PONTE NOVA-PJ-04PJ 2.859,08 0,00 0,00 0,00 0,00 0,00 2.859,08 314,50 43,29 0,00 357,79 2.501,29 685,50 0,00 28/02/2015
163 379300 ANA CRISTINA ALVES FLAVIO ANALISTA DO MP ATIVO SÃO GOTARDO - COMARCA; SAO GOTARDO-PJ-01PJ 8.233,02 823,30 0,00 0,00 0,00 0,00 9.056,32 996,20 1.291,54 0,00 2.287,74 6.768,58 920,50 0,00 28/02/2015
164 461200 ANA CRISTINA ALVES PASCHOAL ANALISTA DO MP ATIVO SANTA LUZIA - COMARCA; SANTA LUZIA-PJ-03PJ 6.793,15 407,59 0,00 0,00 0,00 0,00 7.200,74 792,08 936,23 0,00 1.728,31 5.472,43 920,50 0,00 28/02/2015
165 514100 ANA CRISTINA ARAUJO ASSUNCAO ANALISTA DO MP ATIVO BELO HORIZONTE - COMARCA; ASSESS JUR DO CONS SUPERIOR DO MINISTERIO PUB 6.265,58 375,93 0,00 0,00 0,00 0,00 6.641,51 730,57 749,94 0,00 1.480,51 5.161,00 920,50 0,00 28/02/2015
166 113400 ANA CRISTINA BRAGA ALBUQUERQUE ANALISTA DO MP ATIVO BELO HORIZONTE - COMARCA; ASSESS ESP ADM E FINANCEIRA DO PGJ ADJ ADM 23.074,69 11.537,35 0,00 0,00 0,00 0,00 34.612,04 3.351,82 6.631,65 4.140,93 14.124,40 20.487,64 4.748,31 372,43 28/02/2015
167 233800 ANA CRISTINA BRAGA SOARES RIOS OFICIAL DO MP ATIVO CONTAGEM - COMARCA; CONTAGEM-PJ-SECRETARIA 6.578,93 1.315,79 0,00 0,00 0,00 0,00 7.894,72 868,42 1.106,08 0,00 1.974,50 5.920,22 685,50 0,00 28/02/2015
168 186400 ANA CRISTINA DE AZEVEDO LOPES OFICIAL DO MP ATIVO UBÁ - COMARCA; UBA-PJ-01PJ 8.501,02 2.550,31 0,00 0,00 0,00 0,00 11.051,33 1.215,65 1.829,24 0,00 3.044,89 8.006,44 4.748,31 372,42 28/02/2015
169 465100 ANA CRISTINA DE OLIVEIRA GUIMARAES ANALISTA DO MP ATIVO BRASÓPOLIS - COMARCA; BRASOPOLIS-PJ-UNPJ 6.793,15 407,59 0,00 0,00 0,00 0,00 7.200,74 792,08 936,23 0,00 1.728,31 5.472,43 4.748,31 372,42 28/02/2015
170 500600 ANA CRISTINA LATADO SUDARIO ANALISTA DO MP ATIVO UBERLÂNDIA - COMARCA; UBERLANDIA-PJ-09PJ 6.265,58 375,93 0,00 0,00 0,00 0,00 6.641,51 730,57 799,36 0,00 1.529,93 5.111,58 685,50 0,00 28/02/2015
171 331400 ANA CRISTINA RIBEIRO ALVES OFICIAL DO MP ATIVO BAMBUÍ - COMARCA; BAMBUI-PJ-UNPJ 5.691,44 569,14 0,00 0,00 0,00 0,00 6.260,58 688,66 706,13 0,00 1.394,79 4.865,79 685,50 0,00 28/02/2015
172 249300 ANA ELOINA MARTINS DO PINHO OFICIAL DO MP ATIVO BETIM - COMARCA; BETIM-PJ-08PJ 7.242,73 2.172,82 0,00 0,00 0,00 0,00 9.415,55 1.035,71 1.428,89 0,00 2.464,60 6.950,95 4.748,31 372,42 28/02/2015
173 257400 ANA FLAVIA CAMBRAIA ANALISTA DO MP ATIVO BELO HORIZONTE - COMARCA; BH-19PJ SAUDE-SECRETARIA 150PJ 10.984,62 2.196,92 0,00 0,00 0,00 0,00 13.181,54 1.449,97 2.350,61 0,00 3.800,58 9.380,96 4.748,31 372,42 28/02/2015
174 248201 ANA FLAVIA DE MORAIS SOUZA ANALISTA DO MP ATIVO DIVINÓPOLIS - COMARCA; DIVINOPOLIS-PJ-01PJ 6.793,15 1.358,63 0,00 0,00 0,00 0,00 8.151,78 896,70 1.169,00 0,00 2.065,70 6.086,08 4.983,31 372,42 28/02/2015
175 621100 ANA FLAVIA DINIZ TEODORO OFICIAL DO MP ATIVO SANTA LUZIA - COMARCA; SANTA LUZIA-PJ-06PJ 2.859,08 0,00 0,00 0,00 0,00 0,00 2.859,08 314,50 56,76 0,00 371,26 2.487,82 685,50 0,00 28/02/2015
176 238600 ANA FLAVIA FRANCO OFICIAL DO MP ATIVO BELO HORIZONTE - COMARCA; DIRETORIA DE PESSOAL ADMINISTRATIVO - DPAD 7.973,40 1.594,68 0,00 0,00 0,00 0,00 9.568,08 1.534,73 2.025,21 0,00 3.559,94 6.008,14 5.625,11 5.129,06 28/02/2015
177 402900 ANA FLAVIA PORTES DE CARVALHO ANALISTA DO MP ATIVO BELO HORIZONTE - COMARCA; DIRET DE PLANOS PROJETOS E PROGRAMAS INST 8.233,02 823,30 0,00 0,00 0,00 0,00 9.056,32 996,20 1.340,96 0,00 2.337,16 6.719,16 4.983,31 372,42 28/02/2015
178 382700 ANA KARENINA SALDANHA GONTIJO ANALISTA DO MP ATIVO BELO HORIZONTE - COMARCA; ASSESS TECNICO-JUR JUNTO AS PROC. DE JUST 7.014,37 701,44 0,00 0,00 0,00 0,00 7.715,81 848,74 1.062,29 0,00 1.911,03 5.804,78 920,50 0,00 28/02/2015
179 620500 ANA KARINE DE ANDRADE OLIVEIRA ANALISTA DO MP ATIVO RIBEIRÃO DAS NEVES - COMARCA; RIBEIRAO DAS NEVES-PJ-10PJ 4.404,59 0,00 0,00 0,00 0,00 0,00 4.404,59 484,50 279,06 0,00 763,56 3.641,03 685,50 0,00 28/02/2015
180 220000 ANA LUCIA AMORIM OFICIAL DO MP ATIVO MARTINHO CAMPOS - COMARCA; MARTINHO CAMPOS-PJ-SECRETARIA 7.014,37 3.507,18 0,00 0,00 0,00 0,00 10.521,55 1.157,37 1.749,00 0,00 2.906,37 7.615,18 685,50 0,00 28/02/2015
181 462200 ANA LUCIA ANDRADE TOMICH OTTONI ANALISTA DO MP ATIVO TEÓFILO OTONI - COMARCA; TEOFILO OTONI-PJ-06PJ 6.793,15 407,59 0,00 0,00 0,00 0,00 7.200,74 792,08 837,39 0,00 1.629,47 5.571,27 920,50 0,00 28/02/2015
182 504100 ANA LUCIA CATAO DE CARVALHO OFICIAL DO MP ATIVO BELO HORIZONTE - COMARCA; BH-09PJ AUDITORIA MILITAR 4.000,95 240,06 0,00 0,00 0,00 0,00 4.241,01 466,51 205,87 0,00 672,38 3.568,63 920,50 0,00 28/02/2015
183 274700 ANA LUCIA DE ALENCAR BRAGATO OFICIAL DO MP ATIVO UBERABA - COMARCA; UBERABA-PJ-07PJ 6.469,61 1.293,92 0,00 0,00 0,00 0,00 7.763,53 853,99 1.024,55 0,00 1.878,54 5.884,99 685,50 0,00 28/02/2015
184 509400 ANA LUCIA DORNELAS MALLOSTO ANALISTA DO MP ATIVO JUIZ DE FORA - COMARCA; JUIZ DE FORA-PJ-18PJ 5.691,44 341,49 0,00 0,00 0,00 0,00 6.032,93 663,62 600,99 0,00 1.264,61 4.768,32 685,50 0,00 28/02/2015
185 524600 ANA LUCIA DOS SANTOS FERNANDES COELHO ASSESSOR ATIVO BELO HORIZONTE - COMARCA; COORD ESTADUAL DE DEFESA DA EDUCACAO 0,00 0,00 3.738,84 0,00 0,00 0,00 3.738,84 508,68 278,06 0,00 786,74 2.952,10 685,50 0,00 28/02/2015
186 302600 ANA LUCIA LOPES SANTOS OFICIAL DO MP ATIVO BELO HORIZONTE - COMARCA; PROCON-MG-SECRETARIA DE FISCALIZACOES 6.068,01 2.321,92 0,00 0,00 0,00 0,00 8.389,93 895,90 1.422,59 0,00 2.318,49 6.071,44 685,50 862,92 28/02/2015
187 493400 ANA LUISA NOGUEIRA MOREIRA ANALISTA DO MP ATIVO BELO HORIZONTE - COMARCA; TRIBUNAL DO JURI-07 PJ-02 TRIBUNAL 6.265,58 375,93 0,00 0,00 0,00 0,00 6.641,51 730,57 799,36 0,00 1.529,93 5.111,58 685,50 0,00 28/02/2015
188 389300 ANA LUISA REUTER LIMA ANALISTA DO MP ATIVO BELO HORIZONTE - COMARCA; DIRETORIA DE SISTEMAS DE INFORMACAO 6.793,15 679,32 0,00 0,00 2.490,82 0,00 9.963,29 821,97 1.687,71 0,00 2.509,68 7.453,61 685,50 0,00 28/02/2015
189 480600 ANA LUIZA FERNANDES FRAGA E GRECO OFICIAL DO MP ATIVO SANTO ANTÔNIO DO MONTE - COMARCA; SANTO ANTONIO DO MONTE-PJ-UNPJ 4.000,95 240,06 0,00 0,00 0,00 0,00 4.241,01 573,74 376,44 0,00 950,18 3.290,83 685,50 974,79 28/02/2015
190 517800 ANA LUIZA MAGALHAES CIRINO PIOTO DE MELO OFICIAL DO MP ATIVO BELO HORIZONTE - COMARCA; DIVISAO DE MANUTENCAO PREDIAL 3.355,81 201,35 0,00 0,00 0,00 0,00 3.557,16 428,29 169,79 0,00 598,08 2.959,08 685,50 336,39 28/02/2015
191 481400 ANA MARCIA CANDIDA FERREIRA OFICIAL DO MP ATIVO BRUMADINHO - COMARCA; BRUMADINHO-PJ-01PJ 3.694,41 221,66 0,00 0,00 0,00 0,00 3.916,07 549,21 351,90 0,00 901,11 3.014,96 685,50 1.196,40 28/02/2015
192 556400 ANA MARIA OLIVEIRA SOUZA OFICIAL DO MP ATIVO ITAPECERICA - COMARCA; ITAPECERICA-PJ-UNPJ 2.952,15 0,00 0,00 0,00 0,00 0,00 2.952,15 324,74 62,98 0,00 387,72 2.564,43 685,50 0,00 28/02/2015
193 409600 ANA OLIVIA FARIA ROSENBURG ANALISTA DO MP ATIVO BELO HORIZONTE - COMARCA; DIRETORIA DO COLEGIO E DA CAMARA DE PJ 7.973,40 1.594,68 0,00 0,00 0,00 0,00 9.568,08 1.052,49 1.515,64 0,00 2.568,13 6.999,95 685,50 0,00 28/02/2015
194 461500 ANA PAULA ALVES CARVALHO ANALISTA DO MP ATIVO UBERLÂNDIA - COMARCA; UBERLANDIA-PJ-08PJ 6.793,15 407,59 0,00 0,00 2.400,25 0,00 9.600,99 792,08 1.596,30 0,00 2.388,38 7.212,61 685,50 0,00 28/02/2015
195 523200 ANA PAULA ALVES DA SILVA OFICIAL DO MP ATIVO GOVERNADOR VALADARES - COMARCA; GOVERNADOR VALADARES-PJ-10PJ 3.938,84 236,33 0,00 0,00 0,00 0,00 4.175,17 485,27 280,44 0,00 765,71 3.409,46 685,50 236,33 28/02/2015
196 381200 ANA PAULA BARROS PEREIRA ANALISTA DO MP ATIVO BELO HORIZONTE - COMARCA; PROC JUST RECURSOS ESP E EXTRAORD CRIMINAIS 8.233,02 823,30 0,00 0,00 0,00 0,00 9.056,32 996,20 1.390,38 0,00 2.386,58 6.669,74 4.748,31 372,42 28/02/2015
197 227200 ANA PAULA DA SILVA CAMPOLINA ANALISTA DO MP ATIVO BELO HORIZONTE - COMARCA; SUPERINTENDENCIA DE FINANCAS 12.356,19 4.942,48 0,00 0,00 0,00 0,00 17.298,67 1.902,85 3.407,70 0,00 5.310,55 11.988,12 4.748,31 372,42 28/02/2015
198 84200 ANA PAULA DE SOUZA ROCHA OFICIAL DO MP ATIVO BELO HORIZONTE - COMARCA; ASSESS ESP ADM E FINANCEIRA DO PGJ ADJ ADM 21.687,17 10.843,59 0,00 0,00 0,00 0,00 32.530,76 3.351,82 6.532,81 2.059,65 11.944,28 20.586,48 4.748,31 372,43 28/02/2015
199 278500 ANA PAULA DIAS CAPANEMA COORDENADOR/OFICIAL ATIVO BELO HORIZONTE - COMARCA; EXTINTA - DIRETORIA DE MATERIAL E PATRIMONIO 0,00 2.060,57 10.302,83 0,00 0,00 0,00 12.363,40 853,99 2.338,94 0,00 3.192,93 9.170,47 4.748,31 372,42 28/02/2015
200 327300 ANA PAULA GARCIA MAXIMO OFICIAL DO MP ATIVO UNAÍ - COMARCA; UNAI-PJ-01PJ 6.068,01 1.820,40 0,00 0,00 0,00 0,00 7.888,41 867,73 956,28 0,00 1.824,01 6.064,40 4.511,10 350,68 28/02/2015
201 270000 ANA PAULA GOULART CRUZ DE MAGALHAES ANALISTA DO MP ATIVO BELO HORIZONTE - COMARCA; COMB CRIMES PRAT POR AG POL MUN-ASSESSORIA 8.501,02 1.700,20 0,00 0,00 0,00 0,00 10.201,22 1.122,13 1.670,60 0,00 2.792,73 7.408,49 685,50 0,00 28/02/2015
202 262100 ANA PAULA KOMATSUZAKI ABIJAUDI ANALISTA DO MP ATIVO BELO HORIZONTE - COMARCA; BH-17PJ PATRIMONIO PUBLICO-SECRETARIA 10.984,62 3.295,39 0,00 0,00 0,00 0,00 14.280,01 1.570,80 2.570,04 0,00 4.140,84 10.139,17 4.983,31 372,42 28/02/2015
203 278900 ANA PAULA MOREIRA GURGEL ANALISTA DO MP ATIVO BELO HORIZONTE - COMARCA; SUPERINTENDENCIA DE RECURSOS HUMANOS 10.638,28 3.191,48 0,00 0,00 0,00 0,00 13.829,76 1.521,27 2.558,68 0,00 4.079,95 9.749,81 4.748,31 372,42 28/02/2015
204 425700 ANA PAULA ROCHA ASSESSOR/OFICIAL ATIVO BELO HORIZONTE - COMARCA; SUPERINTENDENCIA DE COMUNICACAO INTEGRADA 0,00 626,56 6.265,58 0,00 2.297,38 0,00 9.189,52 605,83 1.534,36 0,00 2.140,19 7.049,33 3.442,36 252,71 28/02/2015
205 395601 ANA PAULA SALGE OLIVEIRA ANALISTA DO MP ATIVO UBERABA - COMARCA; COORD REG PP TRIANGULO MINEIRO UBERABA 6.265,58 1.253,12 0,00 0,00 0,00 0,00 7.518,70 905,29 1.151,84 0,00 2.057,13 5.461,57 4.378,47 1.128,79 28/02/2015
206 473200 ANA PAULA SCOTTON BRASIL ANALISTA DO MP ATIVO JUIZ DE FORA - COMARCA; JUIZ DE FORA-PJ-09PJ 6.793,15 407,59 0,00 0,00 0,00 0,00 7.200,74 792,08 936,23 0,00 1.728,31 5.472,43 943,13 23,62 28/02/2015
207 633600 ANA PAULA SILVA FERNANDES OFICIAL DO MP ATIVO CATAGUASES - COMARCA; CATAGUASES-PJ-SECRETARIA 2.859,08 0,00 0,00 0,00 0,00 0,00 2.859,08 419,33 173,89 0,00 593,22 2.265,86 934,77 953,03 28/02/2015
208 470900 ANA PAULA VALADARES ANALISTA DO MP ATIVO PITANGUI - COMARCA; PITANGUI-PJ-01PJ 6.793,15 407,59 0,00 0,00 0,00 0,00 7.200,74 792,08 837,39 0,00 1.629,47 5.571,27 4.058,43 287,64 28/02/2015
209 447000 ANA PAULA VALENTIM DE ARAUJO ANALISTA DO MP ATIVO BELO HORIZONTE - COMARCA; COMB CRIMES PRAT POR AG POL MUN-SECRETARIA 7.014,37 701,44 0,00 0,00 0,00 0,00 7.715,81 848,74 1.062,29 0,00 1.911,03 5.804,78 685,50 0,00 28/02/2015
210 604200 ANA PAULA VIANA E SILVA OFICIAL DO MP ATIVO BELO HORIZONTE - COMARCA; BH-17PJ PATRIMONIO PUBLICO-SECRETARIA 3.250,03 0,00 0,00 0,00 0,00 0,00 3.250,03 357,50 98,85 0,00 456,35 2.793,68 685,50 0,00 28/02/2015
211 505400 ANA PAULA VIEIRA SOUTO OFICIAL DO MP ATIVO ALMENARA - COMARCA; COORD. PAT. PUBLICO-MUCURI/JEQUIT - ALMENARA 3.355,81 671,16 0,00 0,00 0,00 0,00 4.026,97 442,97 175,61 0,00 618,58 3.408,39 4.947,47 201,35 28/02/2015
212 280200 ANA RACHEL BRANDAO LADEIRA ROLAND COORDENADOR/ANALISTA ATIVO BELO HORIZONTE - COMARCA; ASSESSORIA JURIDICO-ADMINISTRATIVA 0,00 2.670,79 13.353,95 0,00 0,00 0,00 16.024,74 1.317,09 3.218,45 0,00 4.535,54 11.489,20 685,50 0,00 28/02/2015
213 601200 ANA REGINA RIBEIRO ANALISTA DO MP ATIVO BELO HORIZONTE - COMARCA; EXTINTA - DIVISAO DE SERVICOS GERAIS 4.548,03 0,00 0,00 0,00 0,00 0,00 4.548,03 500,28 307,78 0,00 808,06 3.739,97 685,50 0,00 28/02/2015
214 384700 ANA RODRIGUES PEREIRA MARRA ANALISTA DO MP ATIVO COROMANDEL - COMARCA; COROMANDEL-PJ-SECRETARIA 6.469,61 646,96 0,00 0,00 0,00 0,00 7.116,57 782,82 866,21 0,00 1.649,03 5.467,54 685,50 0,00 28/02/2015
215 232700 ANA SILVIA SEMBLANO NAKAMURA ASSESSOR/OFICIAL ATIVO BELO HORIZONTE - COMARCA; CENT DE APOIO TEC-SETOR DEF,IDOSO E INFANC 0,00 1.594,68 7.973,40 0,00 0,00 0,00 9.568,08 896,70 1.558,48 0,00 2.455,18 7.112,90 685,50 0,00 28/02/2015
216 326700 ANA TERCIA DE FATIMA COSTA OFICIAL DO MP ATIVO NOVA SERRANA - COMARCA; NOVA SERRANA-PJ-01PJ 5.876,69 587,67 0,00 0,00 0,00 711,08 7.175,44 711,08 902,13 0,00 1.613,21 5.562,23 685,50 0,00 28/02/2015
217 602100 ANACLETO FRANCISCO MARCIER PIMENTA OFICIAL DO MP ATIVO SÃO JOÃO DEL REI - COMARCA; SAO JOAO DEL REI-PJ-01PJ 2.952,15 0,00 0,00 0,00 0,00 0,00 2.952,15 324,74 22,54 0,00 347,28 2.604,87 1.155,50 0,00 28/02/2015
218 310400 ANADEJE DO CARMO DINIZ ARAUJO OFICIAL DO MP ATIVO BELO HORIZONTE - COMARCA; CENT DE ATENDIMENTO E ORIENTACAO DE PESSOAL 5.876,69 1.175,34 0,00 0,00 0,00 0,00 7.052,03 775,72 899,84 0,00 1.675,56 5.376,47 685,50 0,00 28/02/2015
219 337000 ANAILDES MARIA MENDES OFICIAL DO MP ATIVO JANAÚBA - COMARCA; JANAUBA-PJ-02PJ 4.848,98 1.593,22 0,00 0,00 0,00 0,00 6.442,20 586,73 784,10 0,00 1.370,83 5.071,37 685,50 0,00 28/02/2015
220 192900 ANATALIA CERQUEIRA LIMA PERES OFICIAL DO MP ATIVO UBERABA - COMARCA; COORD REG SAUDE MACROR SANIT TRIANGULO SUL 7.014,37 2.104,31 0,00 0,00 0,00 0,00 9.118,68 1.003,05 1.405,65 0,00 2.408,70 6.709,98 4.748,31 372,42 28/02/2015
221 377400 ANDEIRSON DA MATTA BARBOSA ANALISTA DO MP ATIVO POUSO ALEGRE - COMARCA; POUSO ALEGRE-PJ-01PJ 7.014,37 701,44 0,00 0,00 0,00 0,00 7.715,81 848,74 1.062,29 0,00 1.911,03 5.804,78 1.252,18 51,95 28/02/2015
222 317400 ANDERSON DA SILVA BICALHO OFICIAL DO MP ATIVO CONTAGEM - COMARCA; COORD REG DEF ORDEM ECONOMICA TRIB CONTAGEM 5.338,12 533,81 0,00 0,00 0,00 0,00 5.871,93 645,91 462,74 0,00 1.108,65 4.763,28 1.155,50 0,00 28/02/2015
223 506900 ANDERSON DE SOUZA DAMIANI ANALISTA DO MP ATIVO BELO HORIZONTE - COMARCA; DIRETORIA DE PAGAMENTO DE PESSOAL-DPAG 5.691,44 1.138,29 0,00 0,00 0,00 0,00 6.829,73 751,27 845,43 0,00 1.596,70 5.233,03 4.748,31 372,42 28/02/2015
224 410000 ANDERSON DE SOUZA NETO ASSESSOR ATIVO BELO HORIZONTE - COMARCA; DIRETORIA DE ADMINISTRACAO FINANCEIRA 0,00 0,00 3.938,84 0,00 0,00 0,00 3.938,84 508,68 323,06 0,00 831,74 3.107,10 685,50 0,00 28/02/2015
225 181900 ANDERSON FLAVIO DE OLIVEIRA OFICIAL DO MP ATIVO ITAGUARA - COMARCA; ITAGUARA-PJ-SECRETARIA 7.973,40 2.392,02 0,00 0,00 0,00 0,00 10.365,42 1.140,20 1.710,79 0,00 2.850,99 7.514,43 685,50 0,00 28/02/2015
226 119500 ANDERSON FUNGHI DE AZEVEDO ROCHA DIRETOR/OFICIAL ATIVO BELO HORIZONTE - COMARCA; SUPRIN DE PLANEJAMENTO E COORDENACAO 0,00 10.683,17 13.353,95 0,00 0,00 0,00 24.037,12 2.039,96 5.124,23 0,00 7.164,19 16.872,93 4.748,31 372,42 28/02/2015
227 333200 ANDERSON JOSE DE FREITAS OFICIAL DO MP ATIVO IPATINGA - COMARCA; IPATINGA-PJ-07PJ 5.338,12 1.642,13 0,00 0,00 0,00 0,00 6.980,25 645,91 816,95 0,00 1.462,86 5.517,39 685,50 0,00 28/02/2015
228 462100 ANDERSON LUIZ GUIMARAES CARDOSO ANALISTA DO MP ATIVO BARBACENA - COMARCA; BARBACENA-PJ-02PJ 6.793,15 407,59 0,00 0,00 0,00 0,00 7.200,74 792,08 936,23 0,00 1.728,31 5.472,43 685,50 0,00 28/02/2015
229 429700 ANDERSON MELO DE SOUZA OFICIAL DO MP ATIVO BELO HORIZONTE - COMARCA; DIRET DE ESTAGIOS E CONVENIOS ACADEMICOS 3.814,70 381,47 0,00 0,00 0,00 0,00 4.196,17 461,58 237,32 0,00 698,90 3.497,27 685,50 0,00 28/02/2015
230 545600 ANDERSON MENDES PROCOPIO FERREIRA ANALISTA DO MP ATIVO BELO HORIZONTE - COMARCA; BH-12PJ JUIZO CRIMINAL-GAB 089PJ 5.006,87 0,00 0,00 0,00 0,00 0,00 5.006,87 550,76 399,66 0,00 950,42 4.056,45 685,50 0,00 28/02/2015
231 519900 ANDERSON MOREIRA DOEHLER ANALISTA DO MP ATIVO NOVO CRUZEIRO - COMARCA; NOVO CRUZEIRO-PJ-UNPJ 5.691,44 1.138,29 0,00 0,00 2.276,58 0,00 9.106,31 824,18 1.580,99 0,00 2.405,17 6.701,14 685,50 662,82 28/02/2015
232 309200 ANDITYAS SOARES DE MOURA COSTA MATOS ANALISTA DO MP ATIVO BELO HORIZONTE - COMARCA; GABINETE DE PROCURADOR DE JUSTIÇA - SALA 909 8.501,02 1.700,20 0,00 0,00 0,00 0,00 10.201,22 1.122,13 1.670,60 0,00 2.792,73 7.408,49 685,50 0,00 28/02/2015
233 613500 ANDRE AZEVEDO SOUSA ANALISTA DO MP ATIVO BELO HORIZONTE - COMARCA; CAO-CRIANCAS E ADOLESCENTES 4.404,59 0,00 0,00 0,00 0,00 0,00 4.404,59 484,50 238,63 0,00 723,13 3.681,46 685,50 0,00 28/02/2015
234 338701 ANDRE BARBUTO VITORINO ANALISTA DO MP ATIVO AIMORÉS - COMARCA; AIMORES-PJ-UNPJ 7.721,95 772,20 0,00 0,00 0,00 0,00 8.494,15 934,36 1.252,79 0,00 2.187,15 6.307,00 685,50 0,00 28/02/2015
235 519200 ANDRE BORJA LANA ANALISTA DO MP ATIVO BELO HORIZONTE - COMARCA; DIRETORIA DE IMPRENSA 6.265,58 375,93 0,00 0,00 2.213,84 0,00 8.855,35 799,68 1.981,42 0,00 2.781,10 6.074,25 685,50 2.340,07 28/02/2015
236 521900 ANDRE LUIS GOMES SILVA ANALISTA DO MP ATIVO FORMIGA - COMARCA; FORMIGA-PJ-01PJ 6.068,01 364,08 0,00 0,00 0,00 0,00 6.432,09 747,58 787,79 0,00 1.535,37 4.896,72 685,50 364,08 28/02/2015
237 304300 ANDRE LUIZ AVELAR ANALISTA DO MP ATIVO BELO HORIZONTE - COMARCA; DIRETORIA DE REDES E BANCOS DE DADOS 6.469,61 1.293,92 0,00 0,00 0,00 0,00 7.763,53 853,99 1.073,97 0,00 1.927,96 5.835,57 685,50 0,00 28/02/2015
238 397400 ANDRE PATARO MYRRHA DE PAULA E SILVA ANALISTA DO MP ATIVO BELO HORIZONTE - COMARCA; ASSESSORIA JURIDICO-ADMINISTRATIVA 8.233,02 823,30 0,00 0,00 0,00 0,00 9.056,32 996,20 1.390,38 0,00 2.386,58 6.669,74 4.983,31 372,42 28/02/2015
239 548500 ANDRE VINICIUS CARVALHO MEIRA ANALISTA DO MP ATIVO JUIZ DE FORA - COMARCA; JUIZ DE FORA-PJ-25PJ 4.548,03 0,00 0,00 0,00 0,00 0,00 4.548,03 500,28 307,78 0,00 808,06 3.739,97 685,50 0,00 28/02/2015
240 297200 ANDRE WILLE ROSARIO ANALISTA DO MP ATIVO BELO HORIZONTE - COMARCA; ASSESSORIA ESPECIAL DO PGJ 9.977,95 1.995,59 0,00 0,00 0,00 0,00 11.973,54 1.317,09 1.956,11 0,00 3.273,20 8.700,34 4.983,31 372,42 28/02/2015
241 423600 ANDREA COSTA GUALBERTO ANALISTA DO MP ATIVO GOVERNADOR VALADARES - COMARCA; COORD REG PJ DEF EDU DIR CRIANCA ADOL RIODOCE 7.014,37 3.507,18 0,00 0,00 0,00 0,00 10.521,55 1.427,03 2.099,57 0,00 3.526,60 6.994,95 920,50 2.451,42 28/02/2015
242 198600 ANDREA CRISTINA ANDRADE COSTA E SOUZA OFICIAL DO MP ATIVO MONTES CLAROS - COMARCA; MONTES CLAROS-PJ-SECRETARIA 9.358,72 2.807,62 0,00 0,00 0,00 0,00 12.166,34 1.338,30 2.052,72 0,00 3.391,02 8.775,32 4.748,31 372,42 28/02/2015
243 467300 ANDREA DE CASSIA PENNA ALVERNAZ ANALISTA DO MP ATIVO PONTE NOVA - COMARCA; PONTE NOVA-PJ-01PJ 6.793,15 407,59 0,00 0,00 0,00 0,00 7.200,74 792,08 886,81 0,00 1.678,89 5.521,85 920,50 0,00 28/02/2015
244 308000 ANDREA DE CASSIA SANTOS OLIVEIRA ANALISTA DO MP ATIVO BELO HORIZONTE - COMARCA; ASSESS TECNICO-JUR JUNTO AS PROC. DE JUST 9.663,38 1.932,68 0,00 0,00 0,00 0,00 11.596,06 1.275,57 1.962,56 0,00 3.238,13 8.357,93 5.218,31 372,42 28/02/2015
245 349500 ANDREA DE OLIVEIRA OFICIAL DO MP ATIVO IGUATAMA - COMARCA; IGUATAMA-PJ-UNPJ 5.691,44 569,14 0,00 0,00 0,00 0,00 6.260,58 688,66 656,71 0,00 1.345,37 4.915,21 685,50 0,00 28/02/2015
246 254700 ANDREA EMISE REIS DE AZEVEDO COORDENADOR/OFICIAL ATIVO BELO HORIZONTE - COMARCA; COMB CRIMES PRAT POR AG POL MUN-SECRETARIA 0,00 1.812,72 9.063,59 0,00 0,00 0,00 10.876,31 853,99 1.929,99 0,00 2.783,98 8.092,33 685,50 0,00 28/02/2015
247 287900 ANDREA FERNANDES PENA OFICIAL DO MP ATIVO MONTES CLAROS - COMARCA; MONTES CLAROS-PJ-09PJ 6.578,93 1.315,79 0,00 0,00 0,00 0,00 7.894,72 868,42 1.007,24 0,00 1.875,66 6.019,06 4.517,41 351,26 28/02/2015
248 300800 ANDREA FERREIRA ANALISTA DO MP ATIVO LAVRAS - COMARCA; LAVRAS-PJ-04PJ 9.358,72 1.871,74 0,00 0,00 0,00 0,00 11.230,46 1.235,35 1.922,51 0,00 3.157,86 8.072,60 685,50 0,00 28/02/2015
249 316700 ANDREA FRANCISCA DIAS DE SOUZA ASSESSOR ATIVO BELO HORIZONTE - COMARCA; BH-14PJ DEFESA CONSUMIDOR-GAB 110PJ 0,00 0,00 2.359,08 0,00 0,00 0,00 2.359,08 334,90 71,42 0,00 406,32 1.952,76 685,50 0,00 28/02/2015
250 395100 ANDREA LANNA MENDES NOVAIS ANALISTA DO MP ATIVO BELO HORIZONTE - COMARCA; PROMOT ESTADUAL DE DEF PATRI CULT E TUR DE MG 8.233,02 823,30 0,00 0,00 0,00 0,00 9.056,32 996,20 1.340,96 0,00 2.337,16 6.719,16 1.155,50 0,00 28/02/2015
251 67300 ANDREA LEAO MAGALHAES ROQUE ASSESSOR ATIVO BELO HORIZONTE - COMARCA; COORD DE CONT. DA CONSTITUCIONALIDADE-SEC 0,00 3.986,70 7.973,40 0,00 0,00 0,00 11.960,10 513,01 2.411,47 0,00 2.924,48 9.035,62 685,50 0,00 28/02/2015
252 335700 ANDREA LOPES PEREIRA ANALISTA DO MP ATIVO GOVERNADOR VALADARES - COMARCA; COORD REG DO MA DA BACIA DO RIO DOCE 9.663,38 966,34 0,00 0,00 0,00 0,00 10.629,72 1.169,27 1.775,47 0,00 2.944,74 7.684,98 685,50 0,00 28/02/2015
253 389200 ANDREA TUPINI DOS SANTOS TRISTAO DA ROCHA OFICIAL DO MP ATIVO BELO HORIZONTE - COMARCA; BH-13ª PJ JUÍXO DE TÓXICOS 4.131,19 413,12 0,00 0,00 0,00 0,00 4.544,31 499,87 266,60 0,00 766,47 3.777,84 685,50 0,00 28/02/2015
254 419000 ANDREIA BARBOSA DE ALMEIDA ANALISTA DO MP ATIVO BELO HORIZONTE - COMARCA; GABINETE DE PROCURADOR DE JUSTIÇA - SALA 705 7.014,37 701,44 0,00 0,00 0,00 0,00 7.715,81 848,74 1.062,29 0,00 1.911,03 5.804,78 4.338,50 334,86 28/02/2015
255 281501 ANDREIA CARLA COSTA FILGUEIRAS ANALISTA DO MP ATIVO VISCONDE DO RIO BRANCO - COMARCA; VISCONDE DO RIO BRANCO-PJ-02PJ 7.973,40 797,34 0,00 0,00 0,00 0,00 8.770,74 964,78 1.221,65 0,00 2.186,43 6.584,31 4.748,31 372,42 28/02/2015
256 477100 ANDREIA DE ALMEIDA RIBEIRO MELO OFICIAL DO MP ATIVO CONTAGEM - COMARCA; CONTAGEM-PJ-07PJ 4.000,95 240,06 0,00 0,00 0,00 0,00 4.241,01 466,51 246,30 0,00 712,81 3.528,20 920,50 0,00 28/02/2015
257 619000 ANDREIA FERREIRA NORONHA OFICIAL DO MP ATIVO BELO HORIZONTE - COMARCA; DIRETORIA DE SERVICO CRIMINAL 3.147,52 0,00 0,00 0,00 0,00 0,00 3.147,52 346,23 85,16 0,00 431,39 2.716,13 685,50 0,00 28/02/2015
258 424000 ANDREIA LUCIA COUTO ANALISTA DO MP ATIVO BELO HORIZONTE - COMARCA; BH-18PJ DIREITOS HUMANOS 7.973,40 797,34 0,00 0,00 0,00 0,00 8.770,74 964,78 1.320,49 0,00 2.285,27 6.485,47 920,50 0,00 28/02/2015
259 370100 ANDREIA MARIA SILVA PINTO OFICIAL DO MP ATIVO CORONEL FABRICIANO - COMARCA; CORONEL FABRICIANO-PJ-01PJ 5.691,44 569,14 0,00 0,00 0,00 0,00 6.260,58 688,66 706,13 0,00 1.394,79 4.865,79 2.883,27 201,46 28/02/2015
260 382100 ANDREIA NATALI PEREIRA OFICIAL DO MP ATIVO PRADOS - COMARCA; PRADOS-PJ-UNPJ 5.169,86 516,99 0,00 0,00 0,00 0,00 5.686,85 625,55 565,71 0,00 1.191,26 4.495,59 685,50 0,00 28/02/2015
261 198700 ANDREIA NUNES DURAES OFICIAL DO MP ATIVO MONTES CLAROS - COMARCA; MONTES CLAROS-PJ-06PJ 9.358,72 2.807,62 0,00 0,00 0,00 0,00 12.166,34 1.338,30 2.102,14 0,00 3.440,44 8.725,90 685,50 0,00 28/02/2015
262 275200 ANDREIA RIBEIRO FREITAS OFICIAL DO MP ATIVO VIÇOSA - COMARCA; VICOSA-PJ-03PJ 6.469,61 1.293,92 0,00 0,00 0,00 0,00 7.763,53 853,99 925,71 0,00 1.779,70 5.983,83 920,50 0,00 28/02/2015
263 352200 ANDREIA XAVIER PEREIRA OFICIAL DO MP ATIVO CLÁUDIO - COMARCA; CLAUDIO-PJ-UNPJ 5.691,44 569,14 0,00 0,00 0,00 0,00 6.260,58 688,66 706,13 0,00 1.394,79 4.865,79 685,50 0,00 28/02/2015
264 383700 ANDRESSA EDUARDO SOUZA ANALISTA DO MP ATIVO OURO BRANCO - COMARCA; OURO BRANCO-PJ-SECRETARIA 8.233,02 823,30 0,00 0,00 0,00 0,00 9.056,32 996,20 1.390,38 0,00 2.386,58 6.669,74 920,50 0,00 28/02/2015
265 426200 ANDRESSA MENDES CASAL ASSESSOR/OFICIAL ATIVO BELO HORIZONTE - COMARCA; BH-12PJ JUIZO CRIMINAL-SECRETARIA 0,00 626,56 6.265,58 0,00 2.297,38 0,00 9.189,52 499,87 1.563,50 0,00 2.063,37 7.126,15 685,50 0,00 28/02/2015
266 390100 ANDRESSA RIBEIRO PUCCI OFICIAL DO MP ATIVO UBERABA - COMARCA; UBERABA-PJ-14PJ 4.548,03 454,80 0,00 0,00 0,00 0,00 5.002,83 550,31 398,86 0,00 949,17 4.053,66 1.625,52 70,50 28/02/2015
267 462500 ANDREZA APARECIDA COSTA E SILVA ANALISTA DO MP ATIVO CONSELHEIRO LAFAIETE - COMARCA; CONSELHEIRO LAFAIETE-PJ-02PJ 6.793,15 407,59 0,00 0,00 0,00 0,00 7.200,74 792,08 936,23 0,00 1.728,31 5.472,43 685,50 0,00 28/02/2015
268 537800 ANDREZZA LUZIA DE OLIVEIRA ALVES ANALISTA DO MP ATIVO PATOS DE MINAS - COMARCA; COORD REG PJ DEF EDU DIR CRI ADO AL PAR NOROE 5.006,87 0,00 0,00 0,00 0,00 0,00 5.006,87 550,76 318,80 0,00 869,56 4.137,31 685,50 0,00 28/02/2015
269 491600 ANE PATRICIA RIBEIRO ANALISTA DO MP ATIVO SETE LAGOAS - COMARCA; SETE LAGOAS-PJ-10PJ 6.265,58 375,93 0,00 0,00 0,00 0,00 6.641,51 730,57 749,94 0,00 1.480,51 5.161,00 920,50 0,00 28/02/2015
270 465800 ANELISE GAMA ASSESSOR ATIVO BELO HORIZONTE - COMARCA; BH-18PJ VIOLENCIA DOMESTICA-SECRETARIA 0,00 0,00 3.938,84 0,00 0,00 0,00 3.938,84 508,68 323,06 0,00 831,74 3.107,10 685,50 0,00 28/02/2015
271 535200 ANELIZE FERNANDA ALVES VILARINHO OFICIAL DO MP ATIVO CAPINÓPOLIS - COMARCA; CAPINOPOLIS-PJ-UNPJ 2.952,15 0,00 0,00 0,00 984,05 0,00 3.936,20 324,74 209,62 0,00 534,36 3.401,84 685,50 0,00 28/02/2015
272 197200 ANGELA COELHO SALDANHA OFICIAL DO MP ATIVO PARÁ DE MINAS - COMARCA; PARA DE MINAS-PJ-03PJ 9.358,72 2.807,62 0,00 0,00 0,00 0,00 12.166,34 1.338,30 2.151,56 0,00 3.489,86 8.676,48 4.748,31 372,42 28/02/2015
273 307400 ANGELA CRISTINA GONCALVES MUNIZ ANALISTA DO MP ATIVO UBERLÂNDIA - COMARCA; UBERLANDIA-PJ-SEC FAMILIA 9.977,95 1.995,59 0,00 0,00 0,00 0,00 11.973,54 1.317,09 2.054,95 0,00 3.372,04 8.601,50 920,50 0,00 28/02/2015
274 191800 ANGELA MARIA DE OLIVEIRA OFICIAL DO MP ATIVO GUARANÉSIA - COMARCA; GUARANESIA-PJ-SECRETARIA 9.358,72 3.743,49 0,00 0,00 0,00 0,00 13.102,21 1.441,24 2.331,20 0,00 3.772,44 9.329,77 685,50 0,00 28/02/2015
275 69900 ANGELA MARIA DE PAULA CUNHA OFICIAL DO MP ATIVO JUIZ DE FORA - COMARCA; JUIZ DE FORA-PJ-11PJ 9.663,38 6.764,37 0,00 0,00 0,00 0,00 16.427,75 1.807,05 3.194,54 0,00 5.001,59 11.426,16 4.748,31 372,42 28/02/2015
276 497400 ANGELA MARIA HENRIQUES ANALISTA DO MP ATIVO BELO HORIZONTE - COMARCA; COORD REG BACIAS RIO VELHAS E PARAOPEBA 5.691,44 341,49 0,00 0,00 0,00 0,00 6.032,93 663,62 650,41 0,00 1.314,03 4.718,90 1.155,50 0,00 28/02/2015
277 260700 ANGELICA CRISTINA AZEVEDO MOREIRA MOUCO OFICIAL DO MP ATIVO UBÁ - COMARCA; UBA-PJ-02PJ 6.793,15 1.358,63 0,00 0,00 0,00 0,00 8.151,78 896,70 1.119,58 0,00 2.016,28 6.135,50 4.983,31 372,42 28/02/2015
278 334600 ANGELICA PANISSA DE FREITAS OFICIAL DO MP ATIVO GUAXUPÉ - COMARCA; GUAXUPE-PJ-02PJ 6.068,01 1.213,60 0,00 0,00 0,00 0,00 7.281,61 800,98 956,02 0,00 1.757,00 5.524,61 3.904,30 295,06 28/02/2015
279 521100 ANGELICA SALES MOREIRA OFICIAL DO MP ATIVO BELO HORIZONTE - COMARCA; BH-02PJ FAMILIA-SECRETARIA 3.577,90 214,67 0,00 0,00 0,00 0,00 3.792,57 440,80 199,94 0,00 640,74 3.151,83 685,50 214,67 28/02/2015
280 466500 ANGELLO MARQUES AGRELLI ANALISTA DO MP ATIVO MAR DE ESPANHA - COMARCA; MAR DE ESPANHA-PJ-UNPJ 6.793,15 407,59 0,00 0,00 0,00 0,00 7.200,74 792,08 936,23 0,00 1.728,31 5.472,43 685,50 0,00 28/02/2015
281 363300 ANGELO VERDOLIN HENRIQUES ANALISTA DO MP ATIVO SETE LAGOAS - COMARCA; SETE LAGOAS-PJ-04PJ 9.358,72 2.807,62 0,00 0,00 0,00 0,00 12.166,34 1.338,30 2.151,56 0,00 3.489,86 8.676,48 4.983,31 372,42 28/02/2015
282 250900 ANISIO APARECIDO SANTOS OFICIAL DO MP ATIVO CONTAGEM - COMARCA; CONTAGEM-PJ-19PJ 4.696,06 1.408,82 0,00 0,00 0,00 0,00 6.104,88 671,54 210,34 0,00 881,88 5.223,00 2.727,57 153,16 28/02/2015
283 253400 ANNA FLAVIA LEHMAN BATTAGLIA ASSESSOR ESPECIAL ATIVO BELO HORIZONTE - COMARCA; GABINETE DO PROCURADOR-GERAL DE JUSTICA 18.939,65 3.787,93 0,00 0,00 0,00 0,00 22.727,58 1.449,97 4.876,93 0,00 6.326,90 16.400,68 4.748,31 372,42 28/02/2015
284 447600 ANNGELUCE ALCANTARA DE CAMPOS OFICIAL DO MP ATIVO DIVINÓPOLIS - COMARCA; DIVINOPOLIS-PJ-10PJ 3.814,70 381,47 0,00 0,00 0,00 0,00 4.196,17 505,25 300,24 0,00 805,49 3.390,68 4.748,31 745,78 28/02/2015
285 615900 ANNY ANGEL MOREIRA MELO ANALISTA DO MP ATIVO ARAXÁ - COMARCA; ARAXA-PJ-04PJ 4.848,98 0,00 0,00 0,00 0,00 0,00 4.848,98 533,39 368,05 0,00 901,44 3.947,54 920,50 0,00 28/02/2015
286 119600 ANSELMO BORGES PARREIRAS OFICIAL DO MP ATIVO BONFIM - COMARCA; BONFIM-PJ-UNPJ 5.338,12 3.736,69 0,00 0,00 0,00 0,00 9.074,81 998,23 1.345,49 0,00 2.343,72 6.731,09 685,50 0,00 28/02/2015
287 630300 ANTONIA GOMES RAMALHO OFICIAL DO MP ATIVO NOVO CRUZEIRO - COMARCA; NOVO CRUZEIRO-PJ-UNPJ 3.147,52 0,00 0,00 0,00 0,00 0,00 3.147,52 346,23 85,16 0,00 431,39 2.716,13 1.018,30 0,00 28/02/2015
288 332400 ANTONIA MARIA MAMEDE OFICIAL DO MP ATIVO UBERLÂNDIA - COMARCA; COORD REG PP TRIANGULO MINEIRO UBERLANDIA 5.691,44 569,14 0,00 0,00 0,00 0,00 6.260,58 688,66 706,13 0,00 1.394,79 4.865,79 685,50 0,00 28/02/2015
289 401600 ANTONIO CARLOS GUEDES AROUCA ANALISTA DO MP ATIVO BELO HORIZONTE - COMARCA; EXTINTA - CAO-IDOSOS PESSOAS DEFIC-SEC ADM 7.973,40 797,34 0,00 0,00 0,00 0,00 8.770,74 964,78 1.320,49 0,00 2.285,27 6.485,47 685,50 0,00 28/02/2015
290 7100 ANTONIO DO NASCIMENTO OLIVEIRA ASSESSOR ATIVO BELO HORIZONTE - COMARCA; GAECO - SECRETARIA 0,00 2.123,17 2.359,08 0,00 1.494,08 0,00 5.976,33 513,01 559,97 0,00 1.072,98 4.903,35 685,50 0,00 28/02/2015
291 59400 ANTONIO GOBIRA DE ALCANTARA AGENTE DO MP ATIVO BELO HORIZONTE - COMARCA; EXTINTA - DIVISAO DE TRANSPORTES 5.169,86 4.135,89 0,00 0,00 0,00 1.462,37 10.768,12 1.462,37 2.829,77 0,00 4.292,14 6.475,98 685,50 3.988,50 28/02/2015
292 333900 ANTONIO GONCALVES DE SOUZA FILHO OFICIAL DO MP ATIVO BELO HORIZONTE - COMARCA; DIVISAO DE MEMORIA INSTITUCIONAL 5.691,44 569,14 0,00 0,00 0,00 0,00 6.260,58 688,66 706,13 0,00 1.394,79 4.865,79 2.883,27 201,46 28/02/2015
293 176100 ANTONIO MARCELO CAMPOS CAMPANELLA OFICIAL DO MP ATIVO BELO HORIZONTE - COMARCA; SUPERINTENDENCIA DE RECURSOS HUMANOS 9.358,72 2.807,62 0,00 0,00 0,00 0,00 12.166,34 1.338,30 2.151,56 0,00 3.489,86 8.676,48 920,50 0,00 28/02/2015
294 119800 ANTONIO MARCIANO DE PAULA AGENTE DO MP ATIVO BELO HORIZONTE - COMARCA; DIVISAO DE MANUTENCAO PREDIAL 4.131,19 3.718,08 0,00 0,00 0,00 863,42 8.712,69 863,42 1.332,40 0,00 2.195,82 6.516,87 685,50 0,00 28/02/2015
295 321001 ANTONIO OLINTO VIEIRA MACHADO ANALISTA DO MP ATIVO BELO HORIZONTE - COMARCA; CENTRAL DE APOIO TECN-SETOR DE MEIO AMBIENTE 8.233,02 823,30 0,00 0,00 0,00 0,00 9.056,32 996,20 1.242,12 0,00 2.238,32 6.818,00 4.748,31 372,42 28/02/2015
296 356200 ANTONIO PAULA DA SILVA OFICIAL DO MP ATIVO JUIZ DE FORA - COMARCA; JUIZ DE FORA-PJ-20PJ 5.338,12 1.067,62 0,00 0,00 0,00 0,00 6.405,74 704,63 741,66 0,00 1.446,29 4.959,45 685,50 0,00 28/02/2015
297 119900 ANTONIO RODRIGUES DE PINHO OFICIAL DO MP ATIVO GUANHÃES - COMARCA; GUANHAES-PJ-01PJ 8.501,02 4.250,51 0,00 0,00 0,00 0,00 12.751,53 1.643,15 2.731,02 0,00 4.374,17 8.377,36 4.748,31 2.558,62 28/02/2015
298 373300 ANTONIO SERGIO ANANIAS OFICIAL DO MP ATIVO AIURUOCA - COMARCA; AIURUOCA-PJ-UNPJ 5.006,87 500,69 0,00 0,00 0,00 0,00 5.507,56 605,83 422,99 0,00 1.028,82 4.478,74 685,50 0,00 28/02/2015
299 608100 ANTONIO SIDINEY VIEIRA LEMOS ANALISTA DO MP ATIVO PIRAPORA - COMARCA; PIRAPORA-PJ-01PJ 4.848,98 1.454,69 0,00 0,00 0,00 0,00 6.303,67 693,40 716,67 0,00 1.410,07 4.893,60 685,50 0,00 28/02/2015
300 374700 ANTONIO SILVA NETO OFICIAL DO MP ATIVO BELO HORIZONTE - COMARCA; GAECO - SECRETARIA 5.169,86 516,99 0,00 0,00 0,00 0,00 5.686,85 625,55 565,71 0,00 1.191,26 4.495,59 685,50 0,00 28/02/2015
301 413200 ANY PEREIRA SILVA ANALISTA DO MP ATIVO TRÊS PONTAS - COMARCA; TRES PONTAS-PJ-01PJ 7.721,95 772,20 0,00 0,00 0,00 0,00 8.494,15 1.054,49 1.421,26 0,00 2.475,75 6.018,40 4.748,31 1.464,57 28/02/2015
302 151401 APARECIDA DE FATIMA MENDES DE ALMEIDA ASSESSOR ATIVO JUIZ DE FORA - COMARCA; JUIZ DE FORA-PJ-SECRETARIA 0,00 0,00 3.938,84 0,00 0,00 0,00 3.938,84 508,68 323,06 0,00 831,74 3.107,10 685,50 0,00 28/02/2015
303 329300 APARECIDA MARIA MELO DE ASSIS OFICIAL DO MP ATIVO BELO HORIZONTE - COMARCA; BH-18PJ DIREITOS HUMANOS-SECRETARIA 6.068,01 606,80 0,00 0,00 0,00 0,00 6.674,81 734,23 807,51 0,00 1.541,74 5.133,07 685,50 0,00 28/02/2015
304 475300 APARECIDA MARLENE FREIRE ROSA ANALISTA DO MP ATIVO BELO HORIZONTE - COMARCA; BH-02PJ FAMILIA 6.793,15 5.434,53 0,00 0,00 4.075,89 0,00 16.303,57 1.345,04 3.287,45 0,00 4.632,49 11.671,08 685,50 0,00 28/02/2015
305 240300 APARECIDA PEREIRA DO NASCIMENTO OFICIAL DO MP ATIVO ITURAMA - COMARCA; ITURAMA-PJ-01PJ 7.973,40 3.986,70 0,00 0,00 3.986,70 0,00 15.946,80 1.918,41 3.733,92 0,00 5.652,33 10.294,47 739,50 5.480,00 28/02/2015
306 354500 APARECIDA VIEIRA DE CARVALHO OFICIAL DO MP ATIVO BELO HORIZONTE - COMARCA; PROCON-MG-SEC DE EDUCACAO PARA O CONSUMO 4.696,06 469,61 0,00 0,00 0,00 0,00 5.165,67 568,22 438,15 0,00 1.006,37 4.159,30 1.788,36 101,10 28/02/2015
307 551000 ARACELES BICALHO FELIX ANALISTA DO MP ATIVO MANHUAÇU - COMARCA; MANHUACU-PJ-02PJ 5.006,87 0,00 0,00 0,00 0,00 0,00 5.006,87 550,76 399,66 0,00 950,42 4.056,45 685,50 0,00 28/02/2015
308 286200 ARACELI MEDRADO DOS SANTOS LIMA OFICIAL DO MP ATIVO PARACATU - COMARCA; PARACATU-PJ-03PJ 4.696,06 939,21 0,00 0,00 0,00 0,00 5.635,27 619,88 553,08 0,00 1.172,96 4.462,31 4.748,31 372,42 28/02/2015
309 189000 ARAHY MARQUES SILVA OFICIAL DO MP ATIVO BELO HORIZONTE - COMARCA; BH-16PJ HABITACAO E URBANISMO 4.696,06 1.408,82 0,00 0,00 0,00 0,00 6.104,88 671,54 668,02 0,00 1.339,56 4.765,32 4.748,31 372,42 28/02/2015
310 112200 ARAQUEM AUGUSTO DE MATOS AGENTE DO MP ATIVO BELO HORIZONTE - COMARCA; BH-23PJ INFRACIONAL-SEC EXP 4.696,06 3.287,25 0,00 0,00 0,00 0,00 7.983,31 878,16 979,51 0,00 1.857,67 6.125,64 920,50 0,00 28/02/2015
311 280600 ARDUINO FRATTEZI ANALISTA DO MP ATIVO BELO HORIZONTE - COMARCA; CENTRAL DE APOIO TECNICO-SETOR CONTABIL 9.977,95 1.995,59 0,00 0,00 0,00 0,00 11.973,54 1.317,09 2.104,37 0,00 3.421,46 8.552,08 4.748,31 372,42 28/02/2015
312 520201 ARIANE DE FATIMA CARVALHO ALMEIDA ANALISTA DO MP ATIVO BELO HORIZONTE - COMARCA; BH-18PJ VIOLENCIA DOMESTICA-SECRETARIA 4.848,98 0,00 0,00 0,00 0,00 0,00 4.848,98 533,39 327,61 0,00 861,00 3.987,98 685,50 0,00 28/02/2015
313 537600 ARIELA FREIRE MONTIJO ANALISTA DO MP ATIVO ARCOS - COMARCA; ARCOS-PJ-01PJ 5.006,87 0,00 0,00 0,00 0,00 0,00 5.006,87 550,76 359,23 0,00 909,99 4.096,88 685,50 0,00 28/02/2015
314 182000 ARILSON ALEXANDRE MARTINS MAGALHAES OFICIAL DO MP ATIVO JOÃO MONLEVADE - COMARCA; JOAO MONLEVADE-PJ-02PJ 8.501,02 3.400,41 0,00 0,00 0,00 0,00 11.901,43 1.309,16 1.987,88 0,00 3.297,04 8.604,39 4.783,13 372,42 28/02/2015
315 511000 ARISLANE CAROLINA DA SILVA ANALISTA DO MP ATIVO CAMPINA VERDE - COMARCA; CAMPINA VERDE-PJ-UNPJ 5.691,44 341,49 0,00 0,00 0,00 0,00 6.032,93 663,62 650,41 0,00 1.314,03 4.718,90 685,50 0,00 28/02/2015
316 170000 ARLEY BRITES DA SILVA ASSESSOR ATIVO BELO HORIZONTE - COMARCA; EXTINTA - DIVISÃO DE MATERIAL PERMANENTE 0,00 1.181,65 3.938,84 0,00 0,00 0,00 5.120,49 513,01 481,16 0,00 994,17 4.126,32 920,50 0,00 28/02/2015
317 120400 ARLINDO CASSIO DA CRUZ OFICIAL DO MP ATIVO SÃO GONÇALO DO SAPUCAÍ - COMARCA; SAO GONCALO DO SAPUCAI-PJ-01PJ 12.845,44 8.991,80 0,00 0,00 0,00 0,00 21.837,24 2.402,10 4.370,25 0,00 6.772,35 15.064,89 685,50 0,00 28/02/2015
318 243700 ARLINDO MARCIO LACERDA OFICIAL DO MP ATIVO CONTAGEM - COMARCA; CONTAGEM-PJ-03PJ 7.014,37 3.212,63 0,00 0,00 0,00 0,00 10.227,00 1.003,05 1.710,44 0,00 2.713,49 7.513,51 685,50 0,00 28/02/2015
319 392100 ARNALDO DE ANDRADE OFICIAL DO MP ATIVO DIVINÓPOLIS - COMARCA; DIVINOPOLIS-PJ-02PJ 5.169,86 1.625,31 0,00 0,00 0,00 0,00 6.795,17 625,55 870,50 0,00 1.496,05 5.299,12 685,50 0,00 28/02/2015
320 352801 ARTHUR JONAS MENDONCA E ARAUJO ANALISTA DO MP ATIVO UBERABA - COMARCA; UBERABA-PJ-12PJ 7.014,37 701,44 0,00 0,00 0,00 0,00 7.715,81 848,74 963,45 0,00 1.812,19 5.903,62 4.573,50 334,86 28/02/2015
321 302100 AUGUSTO ROUSSEAU DE CASTRO ANALISTA DO MP ATIVO CATAGUASES - COMARCA; CATAGUASES-PJ-02PJ 10.638,28 2.127,66 0,00 0,00 0,00 0,00 12.765,94 1.404,25 2.298,31 0,00 3.702,56 9.063,38 4.748,31 372,42 28/02/2015
322 540200 AUREA AVELAR OFICIAL DO MP ATIVO FERROS - COMARCA; FERROS-PJ-UNPJ 2.952,15 0,00 0,00 0,00 0,00 0,00 2.952,15 324,74 36,02 0,00 360,76 2.591,39 685,50 0,00 28/02/2015
323 633500 AUREA GONTIJO BIRCHAL ASSESSOR I ATIVO BELO HORIZONTE - COMARCA; COORD DE GABINETE DO PGJ 0,00 0,00 6.265,58 0,00 0,00 0,00 6.265,58 513,01 944,32 0,00 1.457,33 4.808,25 685,50 0,00 28/02/2015
324 183200 AURELIANO MAGELA DE REZENDE COORDENADOR/OFICIAL ATIVO BELO HORIZONTE - COMARCA; COORD DE GABINETE DO PGJ 0,00 3.090,85 10.302,83 0,00 0,00 0,00 13.393,68 1.177,32 2.533,35 0,00 3.710,67 9.683,01 4.748,31 372,42 28/02/2015
325 629400 AYESKA DA COSTA VAL MOURA DABIEN OFICIAL DO MP ATIVO BELO HORIZONTE - COMARCA; EXTINTA - SECRETARIA ADMINISTRATIVA 3.147,52 0,00 0,00 0,00 0,00 0,00 3.147,52 346,23 85,16 0,00 431,39 2.716,13 685,50 0,00 28/02/2015
326 436800 BARBARA ROCHA LADEIA COLEN OFICIAL DO MP ATIVO BELO HORIZONTE - COMARCA; ASSESS TECNICO-JUR JUNTO AS PROC. DE JUST 4.848,98 484,90 0,00 0,00 0,00 0,00 5.333,88 586,73 479,32 0,00 1.066,05 4.267,83 685,50 0,00 28/02/2015
327 546500 BARBARA ZACARONI GOULART OFICIAL DO MP ATIVO BETIM - COMARCA; BETIM-PJ-08PJ 2.952,15 0,00 0,00 0,00 0,00 0,00 2.952,15 324,74 62,98 0,00 387,72 2.564,43 685,50 0,00 28/02/2015
328 316500 BEATRIZ ABILVIA DA SILVA ANALISTA DO MP ATIVO GOVERNADOR VALADARES - COMARCA; GOVERNADOR VALADARES-PJ-07PJ 9.663,38 1.932,68 0,00 0,00 0,00 0,00 11.596,06 1.275,57 1.962,56 0,00 3.238,13 8.357,93 4.748,31 372,42 28/02/2015
329 311800 BEATRIZ APARECIDA SOARES GANEM OFICIAL DO MP ATIVO ITAMBACURI - COMARCA; ITAMBACURI-PJ-02PJ 6.469,61 1.293,92 0,00 0,00 0,00 0,00 7.763,53 853,99 925,71 0,00 1.779,70 5.983,83 4.748,31 372,42 28/02/2015
330 266800 BEATRIZ AUGUSTA VILACA GOMES DA SILVA OFICIAL DO MP ATIVO BELO HORIZONTE - COMARCA; BH-05PJ-JUÍZO SUCESSÕES-SEC 5.691,44 1.138,29 0,00 0,00 0,00 0,00 6.829,73 751,27 845,43 0,00 1.596,70 5.233,03 685,50 0,00 28/02/2015
331 235200 BEATRIZ BOTELHO BATISTA OFICIAL DO MP ATIVO BELO HORIZONTE - COMARCA; BH-21PJ TUTELA FUNDACOES-SECRETARIA 6.578,93 1.973,68 0,00 0,00 0,00 0,00 8.552,61 1.013,16 1.488,43 0,00 2.501,59 6.051,02 5.406,20 1.309,92 28/02/2015
332 113500 BEATRIZ DE LOURDES SOUZA ASSESSOR ATIVO BELO HORIZONTE - COMARCA; BH-02PJ FAMILIA-PROM DEC PAT 0,00 4.385,91 6.265,58 0,00 3.550,50 0,00 14.201,99 513,01 2.564,69 0,00 3.077,70 11.124,29 685,50 0,00 28/02/2015
333 182300 BEATRIZ PAULA SOUSA RAMOS OFICIAL DO MP ATIVO MARIANA - COMARCA; MARIANA-PJ-01PJ 8.501,02 3.400,41 0,00 0,00 0,00 0,00 11.901,43 1.309,16 1.987,88 0,00 3.297,04 8.604,39 685,50 0,00 28/02/2015
334 507000 BELCHIOR FRANKLIN AMARAL LEITE ANALISTA DO MP ATIVO BELO HORIZONTE - COMARCA; CENTRAL DE APOIO TECNICO 6.265,58 375,93 0,00 0,00 0,00 0,00 6.641,51 730,57 651,10 0,00 1.381,67 5.259,84 920,50 0,00 28/02/2015
335 345100 BENITO ELIAS RODRIGUES ANALISTA DO MP ATIVO BARBACENA - COMARCA; BARBACENA-PJ-SECRETARIA 9.358,72 935,87 0,00 0,00 0,00 0,00 10.294,59 1.132,40 1.693,45 0,00 2.825,85 7.468,74 685,50 0,00 28/02/2015
336 207300 BENITO VIEIRA DOS SANTOS ANALISTA DO MP ATIVO BELO HORIZONTE - COMARCA; COMB CRIMES PRAT POR AG POL MUN-ASSESSORIA 13.882,65 4.164,80 0,00 0,00 0,00 1.985,22 20.032,67 1.985,22 2.882,28 0,00 4.867,50 15.165,17 4.748,31 372,42 28/02/2015
337 480200 BERNADETE NUNES DOS SANTOS ANALISTA DO MP ATIVO GUANHÃES - COMARCA; GUANHAES-PJ-02PJ 6.793,15 1.358,63 0,00 0,00 0,00 0,00 8.151,78 1.105,61 1.536,93 0,00 2.642,54 5.509,24 685,50 2.110,27 28/02/2015
338 378400 BETANIA FARNESI DE SOUZA E SILVA OFICIAL DO MP ATIVO SETE LAGOAS - COMARCA; SETE LAGOAS-PJ-03PJ 5.169,86 1.550,96 0,00 0,00 0,00 0,00 6.720,82 739,29 769,35 0,00 1.508,64 5.212,18 920,50 0,00 28/02/2015
339 546400 BETANIA GONCALVES GONTIJO OFICIAL DO MP ATIVO PATOS DE MINAS - COMARCA; PATOS DE MINAS-PJ-02PJ 2.952,15 0,00 0,00 0,00 0,00 0,00 2.952,15 324,74 62,98 0,00 387,72 2.564,43 685,50 0,00 28/02/2015
340 387400 BETANIA MENDONCA DE ASSIS ANALISTA DO MP ATIVO BELO HORIZONTE - COMARCA; BH-08PJ JUIZADO ESPECIAL-SECRETARIA 8.233,02 823,30 0,00 0,00 0,00 0,00 9.056,32 996,20 1.390,38 0,00 2.386,58 6.669,74 685,50 0,00 28/02/2015
341 450300 BIANCA OLIVEIRA DE ALBUQUERQUE ANALISTA DO MP ATIVO BELO HORIZONTE - COMARCA; BH-10PJ EXECUÇÃO PENAL-SECRETARIA 6.793,15 407,59 0,00 0,00 2.400,25 0,00 9.600,99 792,08 1.596,30 0,00 2.388,38 7.212,61 685,50 0,00 28/02/2015
342 535400 BIANCA SALOTO ROSSI ANALISTA DO MP ATIVO SANTOS DUMONT - COMARCA; SANTOS DUMONT-PJ-01PJ 5.006,87 0,00 0,00 0,00 0,00 0,00 5.006,87 626,29 567,36 0,00 1.193,65 3.813,22 685,50 686,72 28/02/2015
343 120800 BRAS MARQUES DE SOUZA ANALISTA DO MP ATIVO BELO HORIZONTE - COMARCA; EXTINTA - SUPERINTENDENCIA ADMINISTRATIVA-SAD 18.218,36 12.752,86 0,00 0,00 0,00 0,00 30.971,22 3.351,82 6.483,39 500,11 10.335,32 20.635,90 4.748,31 372,43 28/02/2015
344 460900 BRENO CRISTIANO DE SOUZA REZENDE ANALISTA DO MP ATIVO ITAÚNA - COMARCA; ITAUNA-PJ-02PJ 5.691,44 341,49 0,00 0,00 0,00 0,00 6.032,93 663,62 650,41 0,00 1.314,03 4.718,90 685,50 0,00 28/02/2015
345 239000 BRENO VENANCIO ROMANINI OFICIAL DO MP ATIVO BELO HORIZONTE - COMARCA; BH-20PJ ORD ECON TRIBUTARIA-SECRETARIA 5.876,69 1.175,34 0,00 0,00 0,00 0,00 7.052,03 775,72 899,84 0,00 1.675,56 5.376,47 685,50 0,00 28/02/2015
346 513600 BRUNA KARLA MARTINS CARVALHO ANALISTA DO MP ATIVO GOVERNADOR VALADARES - COMARCA; GOVERNADOR VALADARES-PJ-01PJ 5.691,44 341,49 0,00 0,00 0,00 0,00 6.032,93 663,62 650,41 0,00 1.314,03 4.718,90 685,50 0,00 28/02/2015
347 415100 BRUNA MARIA SOARES OLIVEIRA COSTA RAMOS ANALISTA DO MP ATIVO UBÁ - COMARCA; COORD REG BACIA DO RIO PARAIBA DO SUL 7.973,40 797,34 0,00 0,00 0,00 0,00 8.770,74 964,78 1.320,49 0,00 2.285,27 6.485,47 685,50 0,00 28/02/2015
348 470000 BRUNA MORAES MARQUES ANALISTA DO MP ATIVO TOMBOS - COMARCA; TOMBOS-PJ-UNPJ 6.793,15 407,59 0,00 0,00 0,00 0,00 7.200,74 792,08 738,55 0,00 1.530,63 5.670,11 920,50 0,00 28/02/2015
349 614700 BRUNA NATTANY DE LIMA OFICIAL DO MP ATIVO MANTENA - COMARCA; MANTENA-PJ-02PJ 2.859,08 0,00 0,00 0,00 0,00 0,00 2.859,08 314,50 56,76 0,00 371,26 2.487,82 685,50 0,00 28/02/2015
350 631800 BRUNA RAPOSO JORGE OFICIAL DO MP ATIVO JUIZ DE FORA - COMARCA; JUIZ DE FORA-PJ-19PJ 3.147,52 0,00 0,00 0,00 0,00 0,00 3.147,52 394,88 144,21 0,00 539,09 2.608,43 685,50 442,27 28/02/2015
351 463800 BRUNO ALVES TEIXEIRA ANALISTA DO MP ATIVO UBERLÂNDIA - COMARCA; UBERLANDIA-PJ-04PJ 6.793,15 407,59 0,00 0,00 0,00 0,00 7.200,74 792,08 936,23 0,00 1.728,31 5.472,43 685,50 0,00 28/02/2015
352 538500 BRUNO AUGUSTO DA SILVA OFICIAL DO MP ATIVO SANTA LUZIA - COMARCA; SANTA LUZIA-PJ-03PJ 2.952,15 0,00 0,00 0,00 0,00 0,00 2.952,15 324,74 62,98 0,00 387,72 2.564,43 685,50 0,00 28/02/2015
353 318200 BRUNO BARROS DE SOUZA OFICIAL DO MP ATIVO UBÁ - COMARCA; UBA-PJ-04PJ 6.068,01 1.213,60 0,00 0,00 0,00 0,00 7.281,61 800,98 578,82 0,00 1.379,80 5.901,81 4.748,31 372,42 28/02/2015
354 459600 BRUNO CASTELAR LUGAO MENDES OFICIAL DO MP ATIVO GOVERNADOR VALADARES - COMARCA; GOVERNADOR VALADARES-PJ-05PJ 4.848,98 290,94 0,00 0,00 0,00 0,00 5.139,92 824,47 705,61 0,00 1.530,08 3.609,84 2.233,66 2.654,19 28/02/2015
355 427400 BRUNO CESAR RIBEIRO DE PAIVA ANALISTA DO MP ATIVO BELO HORIZONTE - COMARCA; ASSESS JUR DO CONS SUPERIOR DO MINISTERIO PUB 7.973,40 797,34 0,00 0,00 0,00 0,00 8.770,74 964,78 1.320,49 0,00 2.285,27 6.485,47 4.748,31 372,42 28/02/2015
356 380900 BRUNO CIRILO ANTUNES OFICIAL DO MP ATIVO VARGINHA - COMARCA; VARGINHA-PJ-05PJ 4.848,98 1.593,22 0,00 0,00 0,00 0,00 6.442,20 768,81 976,50 0,00 1.745,31 4.696,89 1.016,55 1.795,95 28/02/2015
357 329000 BRUNO DE MELO REIS ANALISTA DO MP ATIVO PATROCÍNIO - COMARCA; PATROCINIO-PJ-02PJ 9.663,38 1.932,68 0,00 0,00 0,00 0,00 11.596,06 1.275,57 2.011,98 0,00 3.287,55 8.308,51 4.748,31 372,42 28/02/2015
358 601700 BRUNO DIAS JUNQUEIRA PEREIRA ANALISTA DO MP ATIVO BELO HORIZONTE - COMARCA; ASSESS TECNICO-JUR JUNTO AS PROC. DE JUST 5.006,87 0,00 0,00 0,00 1.668,96 0,00 6.675,83 550,76 858,24 0,00 1.409,00 5.266,83 685,50 0,00 28/02/2015
359 378300 BRUNO HERDY LOPES DE OLIVEIRA ANALISTA DO MP ATIVO MANTENA - COMARCA; MANTENA-PJ-SECRETARIA 8.233,02 823,30 0,00 0,00 0,00 0,00 9.056,32 996,20 1.390,38 0,00 2.386,58 6.669,74 685,50 0,00 28/02/2015
360 529700 BRUNO JOSE BUENO DIAS OFICIAL DO MP ATIVO SÃO SEBASTIÃO DO PARAÍSO - COMARCA; SAO SEBASTIAO DO PARAISO-PJ-02PJ 3.250,03 0,00 0,00 0,00 0,00 0,00 3.250,03 357,50 71,89 0,00 429,39 2.820,64 920,50 0,00 28/02/2015
361 350100 BRUNO LAUD SERRANO DOS REIS OFICIAL DO MP ATIVO UBÁ - COMARCA; UBA-PJ-03PJ 5.169,86 1.033,97 0,00 0,00 0,00 0,00 6.203,83 682,42 642,82 0,00 1.325,24 4.878,59 4.983,31 372,42 28/02/2015
362 373800 BRUNO MARTINO DE ALBUQUERQUE ANALISTA DO MP ATIVO PONTE NOVA - COMARCA; PONTE NOVA-PJ-03PJ 8.233,02 823,30 0,00 0,00 0,00 0,00 9.056,32 996,20 1.291,54 0,00 2.287,74 6.768,58 4.983,31 372,42 28/02/2015
363 470400 BRUNO NOVAIS CABRAL ANALISTA DO MP ATIVO MUTUM - COMARCA; MUTUM-PJ-UNPJ 6.793,15 407,59 0,00 0,00 0,00 0,00 7.200,74 792,08 936,23 0,00 1.728,31 5.472,43 685,50 0,00 28/02/2015
364 369200 BRUNO ROBERTO DIAS DE OLIVEIRA OFICIAL DO MP ATIVO BELO HORIZONTE - COMARCA; BH-22PJ PES COM DEF E IDOSOS 5.691,44 569,14 0,00 0,00 0,00 0,00 6.260,58 688,66 706,13 0,00 1.394,79 4.865,79 2.883,27 201,46 28/02/2015
365 547700 BRUNO ROBERTO SOUZA GONCALVES ANALISTA DO MP ATIVO PARACATU - COMARCA; PARACATU-PJ-03PJ 5.006,87 0,00 0,00 0,00 0,00 0,00 5.006,87 550,76 399,66 0,00 950,42 4.056,45 3.689,62 225,31 28/02/2015
366 546100 BRUNO SA VIEIRA ANALISTA DO MP ATIVO ERVÁLIA - COMARCA; ERVALIA-PJ-UNPJ 4.548,03 0,00 0,00 0,00 0,00 0,00 4.548,03 500,28 307,78 0,00 808,06 3.739,97 685,50 0,00 28/02/2015
367 438200 BRUNO SALES PEREIRA ANALISTA DO MP ATIVO BELO HORIZONTE - COMARCA; CENTRAL DE APOIO TECNICO-SETOR CONTABIL 7.014,37 701,44 0,00 0,00 0,00 0,00 7.715,81 848,74 1.012,87 0,00 1.861,61 5.854,20 4.573,50 334,86 28/02/2015
368 537400 BRUNO SANTANA CESAR ANALISTA DO MP ATIVO CONTAGEM - COMARCA; CONTAGEM-PJ-09PJ 5.006,87 0,00 0,00 0,00 0,00 0,00 5.006,87 702,17 623,88 0,00 1.326,05 3.680,82 685,50 1.376,52 28/02/2015
369 405800 CAIO FERNANDO RODRIGUES DE OLIVEIRA ANALISTA DO MP ATIVO BELO HORIZONTE - COMARCA; ASSESS TECNICO-JUR JUNTO AS PROC. DE JUST 7.973,40 797,34 0,00 0,00 0,00 0,00 8.770,74 964,78 1.320,49 0,00 2.285,27 6.485,47 4.748,31 372,42 28/02/2015
370 530000 CAIO GUEDES DE OLIVEIRA ANALISTA DO MP ATIVO DIAMANTINA - COMARCA; DIAMANTINA-PJ-03PJ 5.006,87 0,00 0,00 0,00 0,00 0,00 5.006,87 550,76 359,23 0,00 909,99 4.096,88 920,50 0,00 28/02/2015
371 491400 CAIO MIRANDA JUNQUEIRA ANALISTA DO MP ATIVO BUENO BRANDAO - COMARCA; BUENO BRANDAO-PJ-UNPJ 5.691,44 341,49 0,00 0,00 0,00 0,00 6.032,93 663,62 600,99 0,00 1.264,61 4.768,32 2.890,62 180,59 28/02/2015
372 415800 CAMILA ALVES DA SILVA ANALISTA DO MP ATIVO CAETÉ - COMARCA; CAETE-PJ-01PJ 7.973,40 797,34 0,00 0,00 0,00 0,00 8.770,74 1.544,99 1.933,58 0,00 3.478,57 5.292,17 685,50 5.626,29 28/02/2015
373 555800 CAMILA CAROLINE ROCHA CHAVES OFICIAL DO MP ATIVO SALINAS - COMARCA; SALINAS-PJ-01PJ 3.250,03 0,00 0,00 0,00 0,00 0,00 3.250,03 357,50 98,85 0,00 456,35 2.793,68 685,50 0,00 28/02/2015
374 445200 CAMILA CONDE ROCHA ANALISTA DO MP ATIVO CONTAGEM - COMARCA; CONTAGEM-PJ-08PJ 7.014,37 701,44 0,00 0,00 0,00 0,00 7.715,81 848,74 1.062,29 0,00 1.911,03 5.804,78 685,50 0,00 28/02/2015
375 419900 CAMILA CUNNINGHAM PIMENTA DE PADUA ANALISTA DO MP ATIVO BELO HORIZONTE - COMARCA; ASSESSORIA PSICOSSOCIAL 7.973,40 797,34 0,00 0,00 0,00 0,00 8.770,74 964,78 1.320,49 0,00 2.285,27 6.485,47 685,50 0,00 28/02/2015
376 507700 CAMILA ELIZABETH RODRIGUES ANALISTA DO MP ATIVO BELO HORIZONTE - COMARCA; BH-02PJ FAMILIA 6.265,58 375,93 0,00 0,00 0,00 0,00 6.641,51 730,57 799,36 0,00 1.529,93 5.111,58 685,50 0,00 28/02/2015
377 372700 CAMILA FONSECA LIMONGE ANALISTA DO MP ATIVO BETIM - COMARCA; BETIM-PJ-01PJ 8.233,02 823,30 0,00 0,00 0,00 0,00 9.056,32 996,20 1.390,38 0,00 2.386,58 6.669,74 4.748,31 372,42 28/02/2015
378 621300 CAMILA GOLFETO DE SOUSA VALENTE OFICIAL DO MP ATIVO ESPERA FELIZ - COMARCA; ESPERA FELIZ-PJ-UNPJ 2.859,08 0,00 0,00 0,00 0,00 0,00 2.859,08 314,50 43,29 0,00 357,79 2.501,29 1.155,50 0,00 28/02/2015
379 409800 CAMILA GONCALVES COSTA RIBEIRO ANALISTA DO MP ATIVO INHAPIM - COMARCA; INHAPIM-PJ-02PJ 7.721,95 772,20 0,00 0,00 2.831,38 0,00 11.325,53 934,36 1.982,00 0,00 2.916,36 8.409,17 920,50 0,00 28/02/2015
380 335000 CAMILA GONTIJO DE PAIVA ANALISTA DO MP ATIVO BELO HORIZONTE - COMARCA; COORD DE CONTROLE DA CONSTITUCIONALIDADE 9.358,72 935,87 0,00 0,00 3.431,53 0,00 13.726,12 1.132,40 2.587,70 0,00 3.720,10 10.006,02 685,50 0,00 28/02/2015
381 547800 CAMILA MATTARELLI DE ABREU E SILVA ANALISTA DO MP ATIVO BELO HORIZONTE - COMARCA; COORD DE INCLUSAO E MOBILIZACAO SOCIAIS 4.548,03 0,00 0,00 0,00 0,00 0,00 4.548,03 500,28 307,78 0,00 808,06 3.739,97 685,50 0,00 28/02/2015
382 430000 CANDIDA MARINA COSTA ANALISTA DO MP ATIVO BELO HORIZONTE - COMARCA; DIVISAO DE DOCUMENTACAO JURIDICA 7.973,40 797,34 0,00 0,00 0,00 0,00 8.770,74 1.544,99 1.933,58 0,00 3.478,57 5.292,17 685,50 5.626,29 28/02/2015
383 614300 CARINA CORTIELHA OFICIAL DO MP ATIVO BELO HORIZONTE - COMARCA; BH-23PJ CIVEL-RECEPCAO 2.859,08 0,00 0,00 0,00 0,00 0,00 2.859,08 314,50 56,76 0,00 371,26 2.487,82 685,50 0,00 28/02/2015
384 380400 CARINA DIAS FACANHA DE SOUZA ANALISTA DO MP ATIVO SANTA RITA DO SAPUCAÍ - COMARCA; SANTA RITA DO SAPUCAI-PJ-SECRETARIA 8.233,02 823,30 0,00 0,00 0,00 0,00 9.056,32 996,20 1.390,38 0,00 2.386,58 6.669,74 920,50 0,00 28/02/2015
385 255000 CARLA ADRIANA DE MENEZES OFICIAL DO MP ATIVO BELO HORIZONTE - COMARCA; CENT DE APOIO TEC-SETOR DEF,IDOSO E INFANC 6.469,61 1.293,92 0,00 0,00 0,00 0,00 7.763,53 853,99 1.073,97 0,00 1.927,96 5.835,57 685,50 0,00 28/02/2015
386 425100 CARLA ADRIANA DINIZ AMARAL OFICIAL DO MP ATIVO CONTAGEM - COMARCA; CONTAGEM-PJ-08PJ 5.006,87 500,69 0,00 0,00 0,00 0,00 5.507,56 605,83 472,41 0,00 1.078,24 4.429,32 685,50 0,00 28/02/2015
387 508100 CARLA ALESSANDRA FONSECA ANALISTA DO MP ATIVO BELO HORIZONTE - COMARCA; CAO-ORDEM ECONOMICA E TRIBUTARIA-SECRETARIA 6.265,58 375,93 0,00 0,00 0,00 0,00 6.641,51 730,57 799,36 0,00 1.529,93 5.111,58 685,50 0,00 28/02/2015
388 607100 CARLA ANGELICA DIAS MIRANDA OFICIAL DO MP ATIVO JABOTICATUBAS - COMARCA; JABOTICATUBAS-PJ-UNPJ 3.250,03 0,00 0,00 0,00 0,00 0,00 3.250,03 391,34 58,67 0,00 450,01 2.800,02 920,50 341,70 28/02/2015
389 351500 CARLA APARECIDA MENDES RAMIRIO OFICIAL DO MP ATIVO PASSOS - COMARCA; PASSOS-PJ-01PJ 5.691,44 569,14 0,00 0,00 0,00 0,00 6.260,58 688,66 656,71 0,00 1.345,37 4.915,21 920,50 0,00 28/02/2015
390 206200 CARLA BORGES DA COSTA COORDENADOR/ANALISTA ATIVO BELO HORIZONTE - COMARCA; DIRETORIA DE PROJETOS DE EDIFICACOES 13.882,65 7.613,63 0,00 0,00 0,00 0,00 21.496,28 2.137,93 4.497,40 0,00 6.635,33 14.860,95 4.748,31 372,42 28/02/2015
391 442800 CARLA GONCALVES COSTA SOALHEIRO ANALISTA DO MP ATIVO GOVERNADOR VALADARES - COMARCA; GOVERNADOR VALADARES-PJ-11PJ 7.014,37 701,44 0,00 0,00 0,00 0,00 7.715,81 848,74 1.012,87 0,00 1.861,61 5.854,20 920,50 0,00 28/02/2015
392 321500 CARLA GONCALVES MASSOTE OFICIAL DO MP ATIVO CAMPO BELO - COMARCA; CAMPO BELO-PJ-01PJ 6.068,01 606,80 0,00 0,00 2.224,94 0,00 8.899,75 734,23 1.419,37 0,00 2.153,60 6.746,15 685,50 0,00 28/02/2015
393 429200 CARLA HAUTEQUESTT BECHARA ANALISTA DO MP ATIVO BELO HORIZONTE - COMARCA; DIVISAO DE DOCUMENTACAO JURIDICA 7.973,40 797,34 0,00 0,00 0,00 0,00 8.770,74 1.544,99 1.933,58 0,00 3.478,57 5.292,17 2.518,08 5.794,28 28/02/2015
394 247500 CARLA MATILDE GUIMARAES DE OLIVEIRA OFICIAL DO MP ATIVO ITAJUBA - COMARCA; ITAJUBA-PJ-05PJ 6.793,15 2.037,95 0,00 0,00 0,00 0,00 8.831,10 971,42 1.285,84 0,00 2.257,26 6.573,84 685,50 0,00 28/02/2015
395 226100 CARLA MERLI DA CONCEICAO ANALISTA DO MP ATIVO BELO HORIZONTE - COMARCA; CENTRAL DE APOIO TECNICO-SETOR CONTABIL 12.356,19 2.471,24 0,00 0,00 0,00 0,00 14.827,43 1.631,02 2.802,86 0,00 4.433,88 10.393,55 4.748,31 372,42 28/02/2015
396 181401 CARLO MICHEL GAUDENSI COELHO ANALISTA DO MP ATIVO BELO HORIZONTE - COMARCA; BH-08PJ JUIZADO ESPECIAL-SECRETARIA 7.721,95 2.316,59 0,00 0,00 0,00 0,00 10.038,54 1.407,79 2.081,05 0,00 3.488,84 6.549,70 685,50 2.759,55 28/02/2015
397 634000 CARLOS ALBERTO AMORMINO TRIGUEIRO ANALISTA DO MP ATIVO BELO HORIZONTE - COMARCA; DIRET DE APOIO AS PROCURADORIAS DE JUSTICA 4.404,59 0,00 0,00 0,00 0,00 0,00 4.404,59 532,96 326,83 0,00 859,79 3.544,80 778,98 440,46 28/02/2015
398 375801 CARLOS ALBERTO ROCHA ANALISTA DO MP ATIVO ELOI MENDES - COMARCA; ELOI MENDES-PJ-SECRETARIA 5.511,94 0,00 0,00 0,00 0,00 0,00 5.511,94 679,08 684,80 0,00 1.363,88 4.148,06 685,50 661,50 28/02/2015
399 462800 CARLOS ANDREI SOARES FAGUNDES ANALISTA DO MP ATIVO MONTES CLAROS - COMARCA; MONTES CLAROS-PJ-09PJ 6.793,15 407,59 0,00 0,00 0,00 0,00 7.200,74 792,08 936,23 0,00 1.728,31 5.472,43 3.823,43 287,64 28/02/2015
400 616500 CARLOS ARI TELES DE PAULA ANALISTA DO MP ATIVO BELO HORIZONTE - COMARCA; BH-19PJ SAUDE-SECRETARIA 129PJ 4.404,59 0,00 0,00 0,00 0,00 0,00 4.404,59 484,50 279,06 0,00 763,56 3.641,03 685,50 0,00 28/02/2015
401 370300 CARLOS AUGUSTO BUENO DIAS ASSESSOR ATIVO BELO HORIZONTE - COMARCA; DIRETORIA DE FISCALIZACAO DE OBRAS 0,00 0,00 7.973,40 0,00 0,00 0,00 7.973,40 513,01 820,10 0,00 1.333,11 6.640,29 4.748,31 372,42 28/02/2015
402 505100 CARLOS CEZAR CARVALHO ANALISTA DO MP ATIVO RIBEIRÃO DAS NEVES - COMARCA; RIBEIRAO DAS NEVES-PJ-04PJ 5.691,44 1.707,43 0,00 0,00 0,00 0,00 7.398,87 813,88 885,88 0,00 1.699,76 5.699,11 1.653,92 88,77 28/02/2015
403 195900 CARLOS DE SOUZA FERREIRA OFICIAL DO MP ATIVO COROMANDEL - COMARCA; COROMANDEL-PJ-UNPJ 7.721,95 5.405,37 0,00 0,00 0,00 0,00 13.127,32 1.444,01 2.337,34 0,00 3.781,35 9.345,97 685,50 0,00 28/02/2015
404 196800 CARLOS EDUARDO DE OLIVEIRA MARINHO OFICIAL DO MP ATIVO ALPINÓPOLIS - COMARCA; ALPINOPOLIS-PJ-UNPJ 9.358,72 3.743,49 0,00 0,00 0,00 0,00 13.102,21 1.441,24 2.331,20 0,00 3.772,44 9.329,77 920,50 0,00 28/02/2015
405 491800 CARLOS EDUARDO ROMAN OFICIAL DO MP ATIVO BARBACENA - COMARCA; BARBACENA-PJ-09PJ 4.000,95 400,10 0,00 0,00 0,00 0,00 4.401,05 484,12 278,35 0,00 762,47 3.638,58 4.748,31 304,71 28/02/2015
406 299300 CARLOS HENRIQUE BICALHO ANALISTA DO MP ATIVO BELO HORIZONTE - COMARCA; BH-17PJ PATRIMONIO PUBLICO-SECRETARIA 9.977,95 2.993,39 0,00 0,00 0,00 0,00 12.971,34 1.426,85 2.348,58 0,00 3.775,43 9.195,91 685,50 0,00 28/02/2015
407 205100 CARLOS HENRIQUE ESTEVES OFICIAL DO MP ATIVO ITAMBACURI - COMARCA; ITAMBACURI-PJ-01PJ 9.358,72 2.807,62 0,00 0,00 0,00 0,00 12.166,34 1.338,30 2.102,14 0,00 3.440,44 8.725,90 685,50 0,00 28/02/2015
408 351600 CARLOS HENRIQUE FELICIO DA FONSECA OFICIAL DO MP ATIVO LIMA DUARTE - COMARCA; LIMA DUARTE-PJ-UNPJ 5.691,44 1.138,29 0,00 0,00 0,00 0,00 6.829,73 751,27 845,43 0,00 1.596,70 5.233,03 3.452,42 253,63 28/02/2015
409 85400 CARLOS JOSE VIEIRA OFICIAL DO MP ATIVO BELO HORIZONTE - COMARCA; DIRETORIA DO CONSELHO SUPERIOR DO MP 18.218,36 12.752,85 0,00 0,00 0,00 0,00 30.971,21 3.351,82 6.631,65 500,10 10.483,57 20.487,64 4.748,31 372,43 28/02/2015
410 229100 CARLOS MERCES DE OLIVEIRA ANALISTA DO MP ATIVO BELO HORIZONTE - COMARCA; CENTRAL DE APOIO TECN-SETOR DE MEIO AMBIENTE 11.711,44 2.342,29 0,00 0,00 0,00 0,00 14.053,73 1.545,91 1.949,59 0,00 3.495,50 10.558,23 685,50 0,00 28/02/2015
411 538300 CARLOS RANGEL SILVA DE MELO ANALISTA DO MP ATIVO BELO HORIZONTE - COMARCA; DIVISAO DE CONTROLE IMOBILIARIO 4.548,03 909,61 0,00 0,00 0,00 0,00 5.457,64 600,34 509,61 0,00 1.109,95 4.347,69 685,50 0,00 28/02/2015
412 265100 CARLOS REIFF MIRANDA ANALISTA DO MP ATIVO BELO HORIZONTE - COMARCA; BH-19PJ SAUDE-SECRETARIA 150PJ 9.663,38 1.932,68 0,00 0,00 0,00 0,00 11.596,06 1.275,57 2.011,98 0,00 3.287,55 8.308,51 685,50 0,00 28/02/2015
413 305400 CARLOS ROCHA DE SOUZA OFICIAL DO MP ATIVO MONTALVÂNIA - COMARCA; MONTALVANIA-PJ-SECRETARIA 4.696,06 939,21 0,00 0,00 0,00 0,00 5.635,27 619,88 363,76 0,00 983,64 4.651,63 2.727,96 117,93 28/02/2015
414 365100 CARLOS WAGNER SANDER MORAIS COORDENADOR/OFICIAL ATIVO BELO HORIZONTE - COMARCA; DIRETORIA DE ADMINISTRACAO FINANCEIRA 0,00 1.030,28 10.302,83 0,00 0,00 0,00 11.333,11 688,66 2.101,07 0,00 2.789,73 8.543,38 4.748,31 372,42 28/02/2015
415 399900 CARMELITA EVANGELISTA DE SOUZA OFICIAL DO MP ATIVO JOÃO PINHEIRO - COMARCA; JOAO PINHEIRO-PJ-01PJ 4.848,98 484,90 0,00 0,00 0,00 0,00 5.333,88 768,81 671,71 0,00 1.440,52 3.893,36 2.287,62 1.912,46 28/02/2015
416 390400 CARMEM APARECIDA ANTUNES RESENDE OFICIAL DO MP ATIVO IGARAPÉ - COMARCA; IGARAPE-PJ-SECRETARIA 5.006,87 4.506,19 0,00 0,00 0,00 1.046,44 10.559,50 1.046,44 1.740,52 0,00 2.786,96 7.772,54 4.748,31 372,42 28/02/2015
417 202000 CARMEN LUCIA MARIZ DE MACEDO OFICIAL DO MP ATIVO BELO HORIZONTE - COMARCA; COORD COMB REPRES TRAFICO ILICITO ENTORPECEN 8.501,02 4.250,51 0,00 0,00 0,00 0,00 12.751,53 1.402,67 2.195,95 0,00 3.598,62 9.152,91 685,50 0,00 28/02/2015
418 228500 CAROLINA CHIARELLA DOS SANTOS RIBEIRO OFICIAL DO MP ATIVO BELO HORIZONTE - COMARCA; BH-13ª PJ JUÍXO DE TÓXICOS 5.006,87 1.001,37 0,00 0,00 0,00 0,00 6.008,24 660,91 545,53 0,00 1.206,44 4.801,80 1.155,50 0,00 28/02/2015
419 446500 CAROLINA COSTA VAL RODRIGUES ANALISTA DO MP ATIVO CONTAGEM - COMARCA; CONTAGEM-PJ-05PJ 7.014,37 701,44 0,00 0,00 0,00 0,00 7.715,81 848,74 1.062,29 0,00 1.911,03 5.804,78 4.338,50 334,86 28/02/2015
420 603501 CAROLINA DOMINGOS BRANDAO ANALISTA DO MP ATIVO CARATINGA - COMARCA; CARATINGA-PJ-03PJ 4.548,03 0,00 0,00 0,00 0,00 0,00 4.548,03 500,28 307,78 0,00 808,06 3.739,97 685,50 0,00 28/02/2015
421 404300 CAROLINA DOS SANTOS VIEIRA ANALISTA DO MP ATIVO BELO HORIZONTE - COMARCA; BH-08PJ JUIZADO ESPECIAL-SECRETARIA 8.233,02 823,30 0,00 0,00 0,00 0,00 9.056,32 996,20 1.291,54 0,00 2.287,74 6.768,58 5.218,31 372,42 28/02/2015
422 551200 CAROLINA LOPES ARANTES MASCARENHAS ANALISTA DO MP ATIVO BELO HORIZONTE - COMARCA; EXTINTA - COORD DEFESA DO DIREITO DE FAMILIA 5.006,87 0,00 0,00 0,00 0,00 0,00 5.006,87 550,76 359,23 0,00 909,99 4.096,88 920,50 0,00 28/02/2015
423 622600 CAROLINA LOREDO LOPES OFICIAL DO MP ATIVO RIBEIRÃO DAS NEVES - COMARCA; RIBEIRAO DAS NEVES-PJ-12PJ 2.859,08 0,00 0,00 0,00 0,00 0,00 2.859,08 314,50 56,76 0,00 371,26 2.487,82 685,50 0,00 28/02/2015
424 382200 CAROLINA MENDES CHAVES LIN ANALISTA DO MP ATIVO BELO HORIZONTE - COMARCA; SUPERINTENDENCIA DE RECURSOS HUMANOS 6.469,61 646,96 0,00 0,00 0,00 0,00 7.116,57 782,82 866,21 0,00 1.649,03 5.467,54 0,00 0,00 28/02/2015
425 619100 CAROLINA MENEZES ZAKHIA NARDELLI ANALISTA DO MP ATIVO NEPOMUCENO - COMARCA; NEPOMUCENO-PJ-UNPJ 4.404,59 0,00 0,00 0,00 0,00 0,00 4.404,59 484,50 279,06 0,00 763,56 3.641,03 685,50 0,00 28/02/2015
426 461900 CAROLINA MURTA TEIXEIRA DIAS ANALISTA DO MP ATIVO BELO HORIZONTE - COMARCA; DIRET DE FORMACAO, APERFEIC. E POS-GRADUACAO 6.793,15 407,59 0,00 0,00 0,00 0,00 7.200,74 792,08 936,23 0,00 1.728,31 5.472,43 685,50 0,00 28/02/2015
427 509600 CAROLINA PINTO DE OLIVEIRA SOUZA ANALISTA DO MP ATIVO MURIAÉ - COMARCA; MURIAE-PJ-01PJ 6.265,58 375,93 0,00 0,00 0,00 0,00 6.641,51 730,57 749,94 0,00 1.480,51 5.161,00 920,50 0,00 28/02/2015
428 629100 CAROLINA RODRIGUES AMARAL ANALISTA DO MP ATIVO BELO HORIZONTE - COMARCA; PROC. JUSTICA DIR. DIFUSOS E COLETIVOS-SEC 4.848,98 0,00 0,00 0,00 0,00 0,00 4.848,98 533,39 368,05 0,00 901,44 3.947,54 685,50 0,00 28/02/2015
429 502600 CAROLINA RODRIGUES RUBEN ANALISTA DO MP ATIVO BELO HORIZONTE - COMARCA; EXTINTA-DEF DIREIT HUM-COMB A VIOL DOMEST-18 6.265,58 375,93 0,00 0,00 0,00 0,00 6.641,51 730,57 799,36 0,00 1.529,93 5.111,58 685,50 0,00 28/02/2015
430 529600 CAROLINA VAZ DE MELO MAMBRINI ANALISTA DO MP ATIVO MINAS NOVAS - COMARCA; MINAS NOVAS-PJ-UNPJ 5.006,87 0,00 0,00 0,00 0,00 0,00 5.006,87 550,76 399,66 0,00 950,42 4.056,45 685,50 0,00 28/02/2015
431 517600 CAROLINE ALVES DE OLIVEIRA MULLER ANALISTA DO MP ATIVO VISCONDE DO RIO BRANCO - COMARCA; VISCONDE DO RIO BRANCO-PJ-01PJ 6.265,58 375,93 0,00 0,00 0,00 0,00 6.641,51 799,68 871,65 0,00 1.671,33 4.970,18 920,50 698,07 28/02/2015
432 373200 CAROLINE ANTUNES RIBEIRO OFICIAL DO MP ATIVO JACUI - COMARCA; JACUI-PJ-UNPJ 5.169,86 516,99 0,00 0,00 0,00 0,00 5.686,85 625,55 417,45 0,00 1.043,00 4.643,85 4.332,61 312,78 28/02/2015
433 556800 CAROLINE DE SOUZA CARDOSO OFICIAL DO MP ATIVO BRASÍLIA DE MINAS - COMARCA; BRASILIA DE MINAS-PJ-02PJ 2.952,15 0,00 0,00 0,00 0,00 0,00 2.952,15 324,74 62,98 0,00 387,72 2.564,43 685,50 0,00 28/02/2015
434 499400 CAROLINE MARQUES DE LOURDES MARZULLO OFICIAL DO MP ATIVO JUIZ DE FORA - COMARCA; JUIZ DE FORA-PJ-20PJ 4.000,95 240,06 0,00 0,00 0,00 0,00 4.241,01 466,51 246,30 0,00 712,81 3.528,20 1.155,50 0,00 28/02/2015
435 616800 CAROLINE MONTEIRO DE BARROS ANALISTA DO MP ATIVO CONTAGEM - COMARCA; CONTAGEM-PJ-11PJ 4.404,59 0,00 0,00 0,00 0,00 0,00 4.404,59 484,50 279,06 0,00 763,56 3.641,03 685,50 0,00 28/02/2015
436 618100 CAROLINE VASCONCELOS COSTA LANZA ANALISTA DO MP ATIVO PARAOPEBA - COMARCA; PARAOPEBA-PJ-UNPJ 4.404,59 0,00 0,00 0,00 0,00 0,00 4.404,59 484,50 279,06 0,00 763,56 3.641,03 685,50 0,00 28/02/2015
437 604000 CASSIA APARECIDA DA SILVA OFICIAL DO MP ATIVO CANÁPOLIS - COMARCA; CANAPOLIS-PJ-UNPJ 2.952,15 0,00 0,00 0,00 0,00 0,00 2.952,15 324,74 62,98 0,00 387,72 2.564,43 685,50 0,00 28/02/2015
438 268800 CASSIA BEATRIZ TEIXEIRA OFICIAL DO MP ATIVO BELO HORIZONTE - COMARCA; COMB CRIMES PRAT POR AG POL MUN-SECRETARIA 6.578,93 1.315,79 0,00 0,00 0,00 0,00 7.894,72 868,42 1.379,39 0,00 2.247,81 5.646,91 685,50 993,86 28/02/2015
439 500000 CASSIA DE OLIVEIRA COSTA VIANA ANALISTA DO MP ATIVO SETE LAGOAS - COMARCA; SETE LAGOAS-PJ-09PJ 6.265,58 1.253,12 0,00 0,00 0,00 0,00 7.518,70 827,06 1.014,05 0,00 1.841,11 5.677,59 685,50 0,00 28/02/2015
440 368800 CASSIA LUISA BATISTA MENDONCA WEBER OFICIAL DO MP ATIVO BELO HORIZONTE - COMARCA; PROCON-MG-SEC DE EDUCACAO PARA O CONSUMO 4.696,06 469,61 0,00 0,00 0,00 0,00 5.165,67 568,22 438,15 0,00 1.006,37 4.159,30 1.155,50 0,00 28/02/2015
441 622200 CASSIA VAZ DE AZEVEDO LISBOA MARZANO ASSESSOR ADMINISTRATIVO I ATIVO BELO HORIZONTE - COMARCA; CGMP-SECRETARIA DA CORREGEDORIA-GERAL DO MP 0,00 0,00 2.359,08 0,00 0,00 0,00 2.359,08 334,90 42,19 0,00 377,09 1.981,99 920,50 0,00 28/02/2015
442 121000 CASSIO HENRIQUE AFONSO DA SILVA COORDENADOR/OFICIAL ATIVO BELO HORIZONTE - COMARCA; DIR ANALISES TECNOLOGIA INTELIGENCIA 10.638,28 7.791,82 0,00 0,00 0,00 0,00 18.430,10 1.755,32 3.660,57 0,00 5.415,89 13.014,21 920,50 0,00 28/02/2015
443 121100 CASSIO MOREIRA DE MIRANDA AGENTE DO MP ATIVO BELO HORIZONTE - COMARCA; PROCON-MG-SECRETARIA DE FISCALIZACOES 3.355,81 3.457,38 0,00 0,00 0,00 0,00 6.813,19 627,54 213,62 0,00 841,16 5.972,03 710,60 1,88 28/02/2015
444 512001 CATARINA NATALINO CALIXTO ASSESSOR/ANALISTA ATIVO BELO HORIZONTE - COMARCA; EXTINTA - DIVISÃO DE APOIO À LICITAÇÃO 0,00 0,00 6.265,58 0,00 0,00 0,00 6.265,58 533,39 750,20 0,00 1.283,59 4.981,99 685,50 0,00 28/02/2015
445 606200 CATARINE DE SIQUEIRA DE QUADROS ANALISTA DO MP ATIVO RIBEIRÃO DAS NEVES - COMARCA; RIBEIRAO DAS NEVES-PJ-09PJ 4.548,03 0,00 0,00 0,00 0,00 0,00 4.548,03 500,28 267,35 0,00 767,63 3.780,40 920,50 0,00 28/02/2015
446 71800 CATIA EFIGENIA CARNEIRO DE FREITAS OFICIAL DO MP ATIVO BELO HORIZONTE - COMARCA; ASSESSORIA JURIDICO-ADMINISTRATIVA 20.993,41 14.695,38 0,00 0,00 0,00 3.351,82 39.040,61 3.351,82 7.503,99 5.217,68 16.073,49 22.967,12 685,50 0,00 28/02/2015
447 622300 CECILIA APARECIDA PEREIRA ASSUNCAO OFICIAL DO MP ATIVO TRÊS PONTAS - COMARCA; TRES PONTAS-PJ-SECRETARIA 3.147,52 0,00 0,00 0,00 0,00 0,00 3.147,52 346,23 85,16 0,00 431,39 2.716,13 685,50 0,00 28/02/2015
448 538000 CECILIA FONTES DE MATOS PIMENTEL ANALISTA DO MP ATIVO PALMA - COMARCA; PALMA-PJ-SECRETARIA 5.006,87 0,00 0,00 0,00 0,00 0,00 5.006,87 550,76 399,66 0,00 950,42 4.056,45 685,50 0,00 28/02/2015
449 261300 CECILIO ANTONIO CAMPOS DOS REIS ANALISTA DO MP ATIVO BELO HORIZONTE - COMARCA; AUDITORIA INTERNA 10.984,62 2.196,92 0,00 0,00 0,00 0,00 13.181,54 1.449,97 2.400,03 0,00 3.850,00 9.331,54 685,50 0,00 28/02/2015
450 386400 CEFAS AMORELI DE FIGUEIREDO OFICIAL DO MP ATIVO CABO VERDE - COMARCA; CABO VERDE-PJ-SECRETARIA 4.131,19 413,12 0,00 0,00 0,00 0,00 4.544,31 499,87 307,04 0,00 806,91 3.737,40 685,50 0,00 28/02/2015
451 149000 CELIA MAGALHAES CLAROS SOSSI OFICIAL DO MP ATIVO GOVERNADOR VALADARES - COMARCA; GOVERNADOR VALADARES-PJ-01PJ 9.663,38 3.865,35 0,00 0,00 0,00 0,00 13.528,73 1.488,16 2.485,01 0,00 3.973,17 9.555,56 4.748,31 372,42 28/02/2015
452 113100 CELIA MARIA ALVES PINTO OFICIAL DO MP ATIVO BELO HORIZONTE - COMARCA; PROCON-MG-SEC DE EDUCACAO PARA O CONSUMO 6.578,93 4.605,25 0,00 0,00 0,00 0,00 11.184,18 1.230,26 1.911,18 0,00 3.141,44 8.042,74 4.748,31 372,42 28/02/2015
453 421000 CELINA BENEDITA DE SOUZA ALMEIDA OFICIAL DO MP ATIVO CAMBUÍ - COMARCA; CAMBUI-PJ-01PJ 5.006,87 2.002,75 0,00 0,00 0,00 0,00 7.009,62 771,06 840,03 0,00 1.611,09 5.398,53 685,50 0,00 28/02/2015
454 252900 CELIO DE MELO CASTOR ANALISTA DO MP ATIVO BELO HORIZONTE - COMARCA; BH-20PJ ORD ECON TRIBUTARIA-SECRETARIA 10.984,62 2.196,92 0,00 0,00 0,00 0,00 13.181,54 1.449,97 2.350,61 0,00 3.800,58 9.380,96 685,50 0,00 28/02/2015
455 395700 CELIO FERREIRA LIMA OFICIAL DO MP ATIVO CONTAGEM - COMARCA; CONTAGEM-PJ-07PJ 4.848,98 484,90 0,00 0,00 1.777,96 0,00 7.111,84 768,81 1.080,88 0,00 1.849,69 5.262,15 920,50 1.655,25 28/02/2015
456 281300 CELMA REGINA PEREIRA SANTOS ANALISTA DO MP ATIVO BELO HORIZONTE - COMARCA; DIVISAO DE DOCUMENTACAO JURIDICA 10.638,28 2.127,66 0,00 0,00 0,00 0,00 12.765,94 1.404,25 2.298,31 0,00 3.702,56 9.063,38 685,50 0,00 28/02/2015
457 535600 CELSO MEDEIROS DE PAIVA OFICIAL DO MP ATIVO RIO PRETO - COMARCA; RIO PRETO-PJ-SECRETARIA 2.952,15 0,00 0,00 0,00 0,00 0,00 2.952,15 324,74 49,50 0,00 374,24 2.577,91 685,50 0,00 28/02/2015
458 367000 CESAR NARVAES DE AVELAR COORDENADOR/OFICIAL ATIVO BELO HORIZONTE - COMARCA; DIVISAO DE MEMORIA INSTITUCIONAL 0,00 906,36 9.063,59 0,00 0,00 0,00 9.969,95 688,66 1.726,20 0,00 2.414,86 7.555,09 685,50 0,00 28/02/2015
459 226500 CESAR SILVEIRA BARROUIN OFICIAL DO MP ATIVO BELO HORIZONTE - COMARCA; DIRETORIA DE ADMINISTRACAO FINANCEIRA 7.014,37 2.104,31 0,00 0,00 0,00 0,00 9.118,68 1.003,05 1.405,65 0,00 2.408,70 6.709,98 685,50 0,00 28/02/2015
460 121400 CEZAR MORENO CONCEICAO TAVARES OFICIAL DO MP ATIVO BELO HORIZONTE - COMARCA; COORD DE INCLUSAO E MOBILIZACAO SOCIAIS 9.663,38 4.831,69 0,00 0,00 0,00 0,00 14.495,07 1.594,46 2.721,52 0,00 4.315,98 10.179,09 4.748,31 372,42 28/02/2015
461 243800 CHARLES MARTINS MUNIZ OFICIAL DO MP ATIVO BELO HORIZONTE - COMARCA; LAB TECNOLOGIA CONTRA LAVAGEM DINHEIRO 6.793,15 2.037,95 0,00 0,00 0,00 0,00 8.831,10 971,42 1.335,26 0,00 2.306,68 6.524,42 4.748,31 372,42 28/02/2015
462 193500 CHARLIN CESAR KOURLY OFICIAL DO MP ATIVO UBERLÂNDIA - COMARCA; UBERLANDIA-PJ-10PJ 9.358,72 1.871,74 0,00 0,00 0,00 0,00 11.230,46 1.235,35 1.922,51 0,00 3.157,86 8.072,60 685,50 0,00 28/02/2015
463 385500 CHILLEN PEIXOTO DE MOURA OFICIAL DO MP ATIVO BELO HORIZONTE - COMARCA; BH-14PJ DEFESA CONSUMIDOR-GAB 112PJ 4.848,98 484,90 0,00 0,00 0,00 0,00 5.333,88 768,81 671,71 0,00 1.440,52 3.893,36 685,50 1.765,60 28/02/2015
464 534500 CHRISTIAN DOUGLAS BRITO RUAS OFICIAL DO MP ATIVO SÃO JOÃO DA PONTE - COMARCA; SAO JOAO DA PONTE-PJ-SECRETARIA 2.952,15 0,00 0,00 0,00 0,00 0,00 2.952,15 324,74 62,98 0,00 387,72 2.564,43 685,50 0,00 28/02/2015
465 370600 CHRISTIAN KARINE FELIX PRATES ASSESSOR ATIVO BELO HORIZONTE - COMARCA; ASSESS ESPECIAL DO PGJ ATUACAO JUNTO A PGJAI 0,00 0,00 7.973,40 0,00 0,00 0,00 7.973,40 513,01 1.413,97 0,00 1.926,98 6.046,42 920,50 0,00 28/02/2015
466 435800 CHRISTIANA BAHIA ANDRADE PINA ANALISTA DO MP ATIVO BELO HORIZONTE - COMARCA; LAB TECNOLOGIA CONTRA LAVAGEM DINHEIRO 7.973,40 797,34 0,00 0,00 0,00 0,00 8.770,74 1.544,99 1.836,88 0,00 3.381,87 5.388,87 920,50 5.274,65 28/02/2015
467 516800 CHRISTIANE FERREIRA DO NASCIMENTO ANALISTA DO MP ATIVO ESTRELA DO SUL - COMARCA; ESTRELA DO SUL-PJ-UNPJ 5.691,44 341,49 0,00 0,00 0,00 0,00 6.032,93 840,17 996,67 0,00 1.836,84 4.196,09 685,50 1.605,01 28/02/2015
468 176000 CHRISTIANE JUNQUEIRA PULITI ANDRADE DE BARROS ASSESSOR ATIVO BELO HORIZONTE - COMARCA; GABINETE DO PROCURADOR-GERAL DE JUSTICA 0,00 9.347,77 13.353,95 0,00 0,00 0,00 22.701,72 2.497,19 4.680,68 0,00 7.177,87 15.523,85 685,50 0,00 28/02/2015
469 319200 CHRISTIANE MARIA DE ASSIS RUSSO OFICIAL DO MP ATIVO BELO HORIZONTE - COMARCA; CAO-ORDEM ECONOMICA E TRIBUTARIA-SECRETARIA 6.068,01 1.213,60 0,00 0,00 0,00 0,00 7.281,61 800,98 906,60 0,00 1.707,58 5.574,03 920,50 0,00 28/02/2015
470 510300 CHRISTIANE MARY DE CARVALHO FERREIRA ANALISTA DO MP ATIVO BELO HORIZONTE - COMARCA; DIRETORIA DE SISTEMAS DE INFORMACAO 5.691,44 341,49 0,00 0,00 0,00 0,00 6.032,93 663,62 600,99 0,00 1.264,61 4.768,32 920,50 0,00 28/02/2015
471 424900 CHRISTIANE PEREIRA TURNER DE ARAUJO OFICIAL DO MP ATIVO BELO HORIZONTE - COMARCA; CAO-PATRIMONIO PUBLICO 5.006,87 500,69 0,00 0,00 0,00 0,00 5.507,56 605,83 521,83 0,00 1.127,66 4.379,90 920,50 0,00 28/02/2015
472 513700 CHRISTIANE VIEIRA SOARES PEDERSOLI ANALISTA DO MP ATIVO BELO HORIZONTE - COMARCA; PROCON-MG-GAB DO COORDENADOR DO PROCON-MG 6.265,58 375,93 0,00 0,00 0,00 0,00 6.641,51 730,57 799,36 0,00 1.529,93 5.111,58 685,50 0,00 28/02/2015
473 412300 CHRYSTIAN MACHADO RIBEIRO ANALISTA DO MP ATIVO VARGINHA - COMARCA; VARGINHA-PJ-04PJ 7.973,40 797,34 0,00 0,00 0,00 0,00 8.770,74 964,78 1.320,49 0,00 2.285,27 6.485,47 685,50 0,00 28/02/2015
474 513800 CHRYSTIANE DO NASCIMENTO DE MAGALHAES OFICIAL DO MP ATIVO UBERLÂNDIA - COMARCA; UBERLANDIA-PJ-10PJ 4.000,95 240,06 0,00 0,00 0,00 0,00 4.241,01 466,51 205,87 0,00 672,38 3.568,63 4.983,31 304,71 28/02/2015
475 497900 CIBELE DE FREITAS SANCHES DIAS ANALISTA DO MP ATIVO SABARÁ - COMARCA; SABARA-PJ-03PJ 5.691,44 341,49 0,00 0,00 0,00 0,00 6.032,93 663,62 650,41 0,00 1.314,03 4.718,90 4.748,31 372,42 28/02/2015
476 500900 CIBELLE SILVA PRADO ALVARENGA ANALISTA DO MP ATIVO ITANHANDU - COMARCA; ITANHANDU-PJ-UNPJ 6.265,58 375,93 0,00 0,00 2.213,84 0,00 8.855,35 730,57 1.408,16 0,00 2.138,73 6.716,62 685,50 0,00 28/02/2015
477 629800 CINIRA DE ASSIS SILVA ANALISTA DO MP ATIVO IPATINGA - COMARCA; IPATINGA-PJ-02PJ 4.404,59 0,00 0,00 0,00 0,00 0,00 4.404,59 484,50 279,06 0,00 763,56 3.641,03 685,50 0,00 28/02/2015
478 296400 CINTIA APARECIDA MOREIRA NAVES E RODRIGUES ANALISTA DO MP ATIVO CAMPO BELO - COMARCA; CAMPO BELO-PJ-02PJ 9.977,95 1.995,59 0,00 0,00 0,00 0,00 11.973,54 1.317,09 2.104,37 0,00 3.421,46 8.552,08 920,50 0,00 28/02/2015
479 407900 CINTIA NETO COMELLI ANALISTA DO MP ATIVO BELO HORIZONTE - COMARCA; CENTRAL DE APOIO TECNICO-SETOR CONTABIL 7.973,40 797,34 0,00 0,00 0,00 0,00 8.770,74 964,78 1.320,49 0,00 2.285,27 6.485,47 685,50 0,00 28/02/2015
480 304700 CINTIA QUEIROZ OFICIAL DO MP ATIVO BELO HORIZONTE - COMARCA; DIR GESTAO SISTEMAS ATIVIDADE-FIM 6.469,61 1.293,92 0,00 0,00 0,00 0,00 7.763,53 853,99 1.073,97 0,00 1.927,96 5.835,57 4.748,31 372,42 28/02/2015
481 286100 CIRO CANGUSSU CORDEIRO OFICIAL DO MP ATIVO IPATINGA - COMARCA; IPATINGA-PJ-09PJ 4.696,06 939,21 0,00 0,00 0,00 0,00 5.635,27 619,88 503,66 0,00 1.123,54 4.511,73 685,50 0,00 28/02/2015
482 412500 CLARICE GOMES MAROTTA ANALISTA DO MP ATIVO BELO HORIZONTE - COMARCA; ASSESS TECNICO-JUR JUNTO AS PROC. DE JUST 7.973,40 1.594,68 0,00 0,00 0,00 0,00 9.568,08 1.793,70 2.425,33 0,00 4.219,03 5.349,05 866,77 7.138,55 28/02/2015
483 605300 CLARISSA AZEVEDO ROCHA OFICIAL DO MP ATIVO BELO HORIZONTE - COMARCA; EXTINTA - DIVISÃO DE COMPRAS 3.250,03 0,00 0,00 0,00 0,00 0,00 3.250,03 357,50 98,85 0,00 456,35 2.793,68 685,50 0,00 28/02/2015
484 308100 CLARISSA DUARTE MARTINS DIRETOR/ANALISTA ATIVO BELO HORIZONTE - COMARCA; SUPERINTENDENCIA DE RECURSOS HUMANOS 0,00 2.670,79 13.353,95 0,00 0,00 0,00 16.024,74 1.317,09 3.169,03 0,00 4.486,12 11.538,62 4.748,31 372,42 28/02/2015
485 497100 CLARISSA ROCHA GUIDI ANALISTA DO MP ATIVO BELO HORIZONTE - COMARCA; EXTINTA - JUIZO DE FAMILIA-02 PJ-02 VARA 6.265,58 375,93 0,00 0,00 0,00 0,00 6.641,51 730,57 799,36 0,00 1.529,93 5.111,58 3.342,10 243,52 28/02/2015
486 463700 CLAUDIA ADRIANA FERRAO DIAS ANALISTA DO MP ATIVO SETE LAGOAS - COMARCA; SETE LAGOAS-PJ-06PJ 6.793,15 407,59 0,00 0,00 0,00 0,00 7.200,74 792,08 837,39 0,00 1.629,47 5.571,27 943,13 23,62 28/02/2015
487 415400 CLAUDIA ALMEIDA DE VASCONCELLOS BARROS ASSESSOR/OFICIAL ATIVO BELO HORIZONTE - COMARCA; DIRET DE PESSOAL DO MINISTERIO PUBLICO - DPMP 0,00 797,34 7.973,40 0,00 0,00 0,00 8.770,74 964,78 1.696,30 0,00 2.661,08 6.109,66 4.748,31 1.739,02 28/02/2015
488 389600 CLAUDIA ALVES PERDOMO ASSESSOR ATIVO BELO HORIZONTE - COMARCA; PROCON-MG-GAB DO COORDENADOR DO PROCON-MG 0,00 0,00 7.973,40 0,00 0,00 0,00 7.973,40 513,01 1.413,97 0,00 1.926,98 6.046,42 685,50 0,00 28/02/2015
489 207000 CLAUDIA APARECIDA VILELA MACHADO ANALISTA DO MP ATIVO BELO HORIZONTE - COMARCA; CENTRAL DE APOIO TECNICO-SETOR CONTABIL 12.845,44 3.853,63 0,00 0,00 0,00 0,00 16.699,07 1.836,90 3.211,53 0,00 5.048,43 11.650,64 4.983,31 372,42 28/02/2015
490 365700 CLAUDIA BREGUEZ CUNHA ANALISTA DO MP ATIVO VARGINHA - COMARCA; VARGINHA-PJ-07PJ 8.501,02 850,10 0,00 0,00 0,00 0,00 9.351,12 1.028,62 1.462,54 0,00 2.491,16 6.859,96 685,50 0,00 28/02/2015
491 430500 CLAUDIA CECILIA SANTANA VENCESLAU COORDENADOR/OFICIAL ATIVO BELO HORIZONTE - COMARCA; DIRET DE DESENV DE RECURSOS HUMANOS-DDRH 0,00 1.030,28 10.302,83 0,00 0,00 0,00 11.333,11 605,83 2.074,43 0,00 2.680,26 8.652,85 920,50 0,00 28/02/2015
492 112400 CLAUDIA CRISTINA FIUZA DE AVELAR AGENTE DO MP ATIVO BELO HORIZONTE - COMARCA; SERVICO MEDICO-DEPTO PERIC MEDICA SAUDE OCUP 6.265,58 3.132,79 0,00 0,00 0,00 0,00 9.398,37 1.033,82 1.474,10 0,00 2.507,92 6.890,45 685,50 0,00 28/02/2015
493 149400 CLAUDIA DINIZ OFICIAL DO MP ATIVO BELO HORIZONTE - COMARCA; BH-09PJ AUDITORIA MILITAR-SECRETARIA 11.885,64 5.942,82 0,00 0,00 0,00 0,00 17.828,46 1.961,13 3.537,37 0,00 5.498,50 12.329,96 4.748,31 372,42 28/02/2015
494 480400 CLAUDIA GOULART DE SOUZA OFICIAL DO MP ATIVO PASSOS - COMARCA; PASSOS-PJ-06PJ 4.404,59 440,46 0,00 0,00 0,00 0,00 4.845,05 679,48 617,71 0,00 1.297,19 3.547,86 1.911,74 1.571,97 28/02/2015
495 519800 CLAUDIA HELENA CORREA DE ALMEIDA ANALISTA DO MP ATIVO BELO HORIZONTE - COMARCA; BH-12PJ JUIZO CRIMINAL-GAB 090PJ 6.068,01 364,08 0,00 0,00 0,00 0,00 6.432,09 747,58 870,59 0,00 1.618,17 4.813,92 685,50 485,44 28/02/2015
496 422100 CLAUDIA IACOMINI CABRAL ANALISTA DO MP ATIVO BELO HORIZONTE - COMARCA; CENT DE APOIO TEC-SETOR DEF,IDOSO E INFANC 7.973,40 3.986,70 0,00 0,00 0,00 0,00 11.960,10 1.639,81 2.289,52 0,00 3.929,33 8.030,77 4.748,31 3.445,42 28/02/2015
497 258200 CLAUDIA LAGE MICHALAROS ANALISTA DO MP ATIVO BELO HORIZONTE - COMARCA; CENTRAL DE APOIO TECN-SETOR DE MEIO AMBIENTE 10.984,62 5.492,31 0,00 0,00 0,00 0,00 16.476,93 1.812,46 3.157,16 0,00 4.969,62 11.507,31 685,50 0,00 28/02/2015
498 284600 CLAUDIA LENI DE ABREU OFICIAL DO MP ATIVO CONTAGEM - COMARCA; CONTAGEM-PJ-22PJ 4.696,06 1.408,82 0,00 0,00 0,00 0,00 6.104,88 671,54 668,02 0,00 1.339,56 4.765,32 4.748,31 372,42 28/02/2015
499 433600 CLAUDIA LUIZA SANTIAGO FELICIO ANALISTA DO MP ATIVO BELO HORIZONTE - COMARCA; CAO-SAUDE-TECNICO JURIDICO 7.973,40 797,34 0,00 0,00 2.923,58 0,00 11.694,32 1.544,99 2.542,02 0,00 4.087,01 7.607,31 920,50 5.274,65 28/02/2015
500 317000 CLAUDIA MACHADO ALVES OFICIAL DO MP ATIVO BELO HORIZONTE - COMARCA; ASSESS ESPECIAL DO PGJ ATUACAO JUNTO A PGJAI 5.006,87 1.001,37 0,00 0,00 0,00 0,00 6.008,24 660,91 644,37 0,00 1.305,28 4.702,96 2.630,93 178,33 28/02/2015
501 155300 CLAUDIA MACIEL MIRANDA OFICIAL DO MP ATIVO CONGONHAS - COMARCA; CONGONHAS-PJ-02PJ 9.663,38 3.865,35 0,00 0,00 0,00 0,00 13.528,73 1.488,16 2.386,17 0,00 3.874,33 9.654,40 920,50 0,00 28/02/2015
502 242200 CLAUDIA MICHELLE DIAS MUNIZ BALEEIRO OFICIAL DO MP ATIVO MONTE AZUL - COMARCA; MONTE AZUL-PJ-SECRETARIA 6.793,15 2.037,95 0,00 0,00 0,00 0,00 8.831,10 971,42 1.236,42 0,00 2.207,84 6.623,26 685,50 0,00 28/02/2015
503 623000 CLAUDIA PATRICIA SILVA RODRIGUES RAPOSEIRAS OFICIAL DO MP ATIVO BELO HORIZONTE - COMARCA; DIVISÃO DE EDUCAÇÃO PARA O CONSUMO 2.859,08 0,00 0,00 0,00 0,00 0,00 2.859,08 314,50 43,29 0,00 357,79 2.501,29 685,50 0,00 28/02/2015
504 418400 CLAUDIA REGINA MARTINS BONIFACIO OFICIAL DO MP ATIVO ITUIUTABA - COMARCA; ITUIUTABA-PJ-06PJ 5.006,87 500,69 0,00 0,00 0,00 0,00 5.507,56 605,83 422,99 0,00 1.028,82 4.478,74 4.748,31 372,42 28/02/2015
505 498300 CLAUDIA SOUTO FARIAS BRAUN OFICIAL DO MP ATIVO TEÓFILO OTONI - COMARCA; TEOFILO OTONI-PJ-SECRETARIA 3.694,41 221,66 0,00 0,00 0,00 0,00 3.916,07 430,77 106,90 0,00 537,67 3.378,40 920,50 0,00 28/02/2015
506 206500 CLAUDIA VALERIA FONSECA ANDRADE ANALISTA DO MP ATIVO BELO HORIZONTE - COMARCA; BH-23PJ INF-FISC MED SOC FEC 12.845,44 5.138,17 0,00 0,00 0,00 0,00 17.983,61 1.978,20 3.525,92 0,00 5.504,12 12.479,49 3.285,49 238,33 28/02/2015
507 277500 CLAUDIO ANTONIO BORGES ALVARES OFICIAL DO MP ATIVO BELO HORIZONTE - COMARCA; COORD REG BACIAS RIO VELHAS E PARAOPEBA 6.578,93 1.315,79 0,00 0,00 0,00 0,00 7.894,72 868,42 1.106,08 0,00 1.974,50 5.920,22 685,50 0,00 28/02/2015
508 444800 CLAUDIO ARESIO DO CARMO ANALISTA DO MP ATIVO SETE LAGOAS - COMARCA; SETE LAGOAS-PJ-01PJ 7.014,37 2.104,31 0,00 0,00 0,00 0,00 9.118,68 1.080,21 1.592,20 0,00 2.672,41 6.446,27 5.449,75 1.371,97 28/02/2015
509 541600 CLAUDIO DE OLIVEIRA MELO OFICIAL DO MP ATIVO PARACATU - COMARCA; PARACATU-PJ-01PJ 2.952,15 0,00 0,00 0,00 0,00 0,00 2.952,15 324,74 36,02 0,00 360,76 2.591,39 1.155,50 0,00 28/02/2015
510 545100 CLAUDIO HENRIQUE MACEDO DE SOUZA FRANSOZO ANALISTA DO MP ATIVO OURO PRETO - COMARCA; OURO PRETO-PJ-01PJ 4.548,03 0,00 0,00 0,00 0,00 0,00 4.548,03 500,28 307,78 0,00 808,06 3.739,97 685,50 0,00 28/02/2015
511 353500 CLAUDIO HENRIQUE PEDRO DA ROCHA OFICIAL DO MP ATIVO BELO HORIZONTE - COMARCA; CAO-CRIMINAL-SECRETARIA 5.691,44 569,14 0,00 0,00 0,00 0,00 6.260,58 688,66 607,29 0,00 1.295,95 4.964,63 2.883,27 201,46 28/02/2015
512 265800 CLAUDIO KUPIDLOWSKY FERNANDES ASSESSOR/OFICIAL ATIVO BELO HORIZONTE - COMARCA; EXTINTA - SECRETARIA ADMINISTRATIVA 0,00 1.755,56 8.777,78 0,00 0,00 0,00 10.533,34 868,42 796,78 0,00 1.665,20 8.868,14 4.983,31 372,42 28/02/2015
513 193600 CLAUDIO LEITE FONTES OFICIAL DO MP ATIVO ITUIUTABA - COMARCA; ITUIUTABA-PJ-02PJ 5.691,44 1.707,43 0,00 0,00 0,00 0,00 7.398,87 813,88 768,02 0,00 1.581,90 5.816,97 4.748,31 372,42 28/02/2015
514 329400 CLAUDIO MARCIO BERNARDES OFICIAL DO MP ATIVO ITAÚNA - COMARCA; ITAUNA-PJ-04PJ 6.068,01 2.427,20 0,00 0,00 0,00 0,00 8.495,21 934,47 1.203,63 0,00 2.138,10 6.357,11 4.832,31 372,42 28/02/2015
515 270200 CLAUDIO RABELO ALVES OFICIAL DO MP ATIVO FORMIGA - COMARCA; FORMIGA-PJ-SECRETARIA 6.578,93 1.315,79 0,00 0,00 0,00 0,00 7.894,72 868,42 908,40 0,00 1.776,82 6.117,90 4.748,31 372,42 28/02/2015
516 264700 CLAUDIO ROBERTO KFURI DE ARAUJO ANALISTA DO MP ATIVO BELO HORIZONTE - COMARCA; CENTRAL DE APOIO TECNICO-SETOR DE INFORMATICA 10.984,62 2.196,92 0,00 0,00 0,00 0,00 13.181,54 1.449,97 2.301,19 0,00 3.751,16 9.430,38 4.531,61 352,56 28/02/2015
517 188600 CLAUDIO SALES OFICIAL DO MP ATIVO NEPOMUCENO - COMARCA; NEPOMUCENO-PJ-SECRETARIA 8.501,02 5.950,72 0,00 0,00 0,00 0,00 14.451,74 1.589,69 2.710,91 0,00 4.300,60 10.151,14 4.983,31 372,42 28/02/2015
518 543300 CLAUDIO SILVA DE CARVALHO ANALISTA DO MP ATIVO CAMPO BELO - COMARCA; CAMPO BELO-PJ-04PJ 4.848,98 0,00 0,00 0,00 1.616,33 0,00 6.465,31 533,39 706,29 0,00 1.239,68 5.225,63 685,50 0,00 28/02/2015
519 160700 CLAUDIO VICENTE HESS ASSESSOR ATIVO BELO HORIZONTE - COMARCA; EXTINTA - SUPERINTENDENCIA ADMINISTRATIVA-SAD 0,00 3.090,85 10.302,83 0,00 0,00 0,00 13.393,68 513,01 2.756,29 0,00 3.269,30 10.124,38 685,50 0,00 28/02/2015
520 312900 CLAUDIO VIEIRA FIRPE ASSESSOR/OFICIAL ATIVO BELO HORIZONTE - COMARCA; DIRETORIA DE RELACOES PUBLICAS E CERIMONIAL 0,00 1.594,68 7.973,40 0,00 0,00 0,00 9.568,08 827,06 1.577,63 0,00 2.404,69 7.163,39 920,50 0,00 28/02/2015
521 634100 CLEA CRISTINA GUERRA DE FREITAS COSTA OFICIAL DO MP ATIVO BELO HORIZONTE - COMARCA; BH-18PJ VIOLENCIA DOMESTICA 2.763,78 0,00 0,00 0,00 0,00 0,00 2.763,78 304,02 36,92 0,00 340,94 2.422,84 685,50 0,00 28/02/2015
522 459200 CLEIA ZILLE PEREIRA ANALISTA DO MP ATIVO BELO HORIZONTE - COMARCA; ASSESS TECNICO-JUR JUNTO AS PROC. DE JUST 6.793,15 407,59 0,00 0,00 2.400,25 0,00 9.600,99 792,08 1.596,30 0,00 2.388,38 7.212,61 1.155,50 0,00 28/02/2015
523 481800 CLEIDE CARDOSO DA SILVA ANALISTA DO MP ATIVO MANHUAÇU - COMARCA; MANHUACU-PJ-04PJ 6.265,58 375,93 0,00 0,00 0,00 0,00 6.641,51 730,57 700,52 0,00 1.431,09 5.210,42 1.155,50 0,00 28/02/2015
524 347600 CLEIDIMAR DE OLIVEIRA SILVA OFICIAL DO MP ATIVO PATOS DE MINAS - COMARCA; COORD REG BACIAS PARACATU,URUCUIA E ABAETE 5.511,94 1.102,39 0,00 0,00 0,00 0,00 6.614,33 727,58 595,03 0,00 1.322,61 5.291,72 4.748,31 372,42 28/02/2015
525 396500 CLEIDISON BATISTA DE ANDRADE OFICIAL DO MP ATIVO RESPLENDOR - COMARCA; RESPLENDOR-PJ-UNPJ 4.131,19 413,12 0,00 0,00 0,00 0,00 4.544,31 499,87 190,77 0,00 690,64 3.853,67 1.167,00 24,08 28/02/2015
526 535100 CLEISON ALVES DA SILVA ANALISTA DO MP ATIVO BOA ESPERANÇA - COMARCA; BOA ESPERANCA-PJ-01PJ 5.006,87 0,00 0,00 0,00 0,00 0,00 5.006,87 550,76 318,80 0,00 869,56 4.137,31 4.983,31 304,71 28/02/2015
527 298100 CLEONICE AUGUSTA BARROS DE OLIVEIRA ANALISTA DO MP ATIVO JUIZ DE FORA - COMARCA; JUIZ DE FORA-PJ-08PJ 10.638,28 2.127,66 0,00 0,00 0,00 0,00 12.765,94 1.404,25 2.298,31 0,00 3.702,56 9.063,38 685,50 0,00 28/02/2015
528 60200 CLERES DE ALMEIDA AGENTE DO MP ATIVO BELO HORIZONTE - COMARCA; EXTINTA - DIVISAO DE TRANSPORTES 4.404,59 3.523,68 0,00 0,00 0,00 0,00 7.928,27 1.051,50 1.414,59 0,00 2.466,09 5.462,18 4.550,96 1.985,13 28/02/2015
529 114300 CLERES PEREIRA DA SILVA JUNIOR ASSESSOR ATIVO BELO HORIZONTE - COMARCA; GAECO - SECRETARIA 0,00 1.575,53 3.938,84 0,00 0,00 0,00 5.514,37 513,01 589,48 0,00 1.102,49 4.411,88 1.155,50 0,00 28/02/2015
530 264100 CLETO HENRIQUE ANDRADE SILVA ANALISTA DO MP ATIVO BELO HORIZONTE - COMARCA; DIRETORIA DE SISTEMAS DE INFORMACAO 10.984,62 2.196,92 0,00 0,00 0,00 0,00 13.181,54 1.449,97 2.251,77 0,00 3.701,74 9.479,80 685,50 0,00 28/02/2015
531 334400 CLEUBA DE OLIVEIRA BARCELOS GONCALVES OFICIAL DO MP ATIVO DIVINÓPOLIS - COMARCA; COORD REG SAUDE MACRORREGIAO SANITARIA OESTE 6.068,01 606,80 0,00 0,00 0,00 0,00 6.674,81 734,23 708,67 0,00 1.442,90 5.231,91 3.297,50 239,43 28/02/2015
532 347500 CLEUSA CORDEIRO DA MATA PIMENTA OFICIAL DO MP ATIVO CAMPO BELO - COMARCA; CAMPO BELO-PJ-02PJ 5.876,69 4.113,69 0,00 0,00 0,00 0,00 9.990,38 1.098,94 1.520,16 0,00 2.619,10 7.371,28 685,50 0,00 28/02/2015
533 510200 CLEZIO SALES SILVA OFICIAL DO MP ATIVO BRASÓPOLIS - COMARCA; BRASOPOLIS-PJ-UNPJ 3.355,81 201,35 0,00 0,00 0,00 0,00 3.557,16 391,29 139,85 0,00 531,14 3.026,02 685,50 0,00 28/02/2015
534 323000 CLOTILDE DE PADUA VIEIRA OFICIAL DO MP ATIVO BELO HORIZONTE - COMARCA; CGMP-DIVISAO DE APOIO ADMINISTRATIVO 4.265,74 426,57 0,00 0,00 1.564,10 0,00 6.256,41 516,15 752,42 0,00 1.268,57 4.987,84 685,50 0,00 28/02/2015
535 285200 CLOVIS ANDRE LUDTKE OFICIAL DO MP ATIVO BELO HORIZONTE - COMARCA; DIVISAO DE MANUTENCAO PREDIAL 6.469,61 1.293,92 0,00 0,00 0,00 0,00 7.763,53 853,99 1.073,97 0,00 1.927,96 5.835,57 4.386,22 339,23 28/02/2015
536 381100 CONCEICAO APARECIDA TEIXEIRA ARANTES ANALISTA DO MP ATIVO BELO HORIZONTE - COMARCA; BH-23PJ INFRACIONAL-ASS JURIDICA 7.014,37 701,44 0,00 0,00 0,00 0,00 7.715,81 892,39 1.110,00 0,00 2.002,39 5.713,42 685,50 396,84 28/02/2015
537 249900 CONSTANTINO CEZAR GOMES MOTA OFICIAL DO MP ATIVO MONTES CLAROS - COMARCA; COORD REG BACIA RIOS VERDE GRANDE E PARDO 4.848,98 969,80 0,00 0,00 0,00 0,00 5.818,78 741,00 655,22 0,00 1.396,22 4.422,56 2.624,97 1.156,45 28/02/2015
538 481000 CRISHMA ANALIA LOMBELLO ANALISTA DO MP ATIVO JUIZ DE FORA - COMARCA; JUIZ DE FORA-PJ-13PJ 6.793,15 407,59 0,00 0,00 0,00 0,00 7.200,74 976,62 1.211,81 0,00 2.188,43 5.012,31 685,50 1.864,07 28/02/2015
539 187500 CRISLEY PATRICK TOSTES OFICIAL DO MP ATIVO JUIZ DE FORA - COMARCA; JUIZ DE FORA-PJ-21PJ 9.358,72 2.807,62 0,00 0,00 0,00 0,00 12.166,34 1.338,30 2.151,56 0,00 3.489,86 8.676,48 685,50 0,00 28/02/2015
540 523900 CRISTHYANE BAZOLI COSTA GUEDES OFICIAL DO MP ATIVO BELO HORIZONTE - COMARCA; BH-23PJ CIVEL-SEC EXP CIVEIS 3.577,90 0,00 0,00 0,00 1.192,63 0,00 4.770,53 413,82 422,57 0,00 836,39 3.934,14 685,50 184,08 28/02/2015
541 187000 CRISTIAN DAYVSON EVANGELISTA OFICIAL DO MP ATIVO JUIZ DE FORA - COMARCA; JUIZ DE FORA-PJ-09PJ 8.501,02 2.550,31 0,00 0,00 0,00 0,00 11.051,33 1.215,65 1.829,24 0,00 3.044,89 8.006,44 4.748,31 372,42 28/02/2015
542 319800 CRISTIANA GONCALVES DOS SANTOS GUSMAO OFICIAL DO MP ATIVO BELO HORIZONTE - COMARCA; BH-14PJ DEFESA CONSUMIDOR-SECRETARIA 5.876,69 1.175,34 0,00 0,00 0,00 0,00 7.052,03 840,37 1.097,54 0,00 1.937,91 5.114,12 685,50 783,56 28/02/2015
543 520600 CRISTIANA JANAINA BARBOZA JUVENCIO DOS SANTOS ANALISTA DO MP ATIVO BELO HORIZONTE - COMARCA; EXTINTA - JUIZO DE FAMILIA-02 PJ-02 VARA 6.068,01 364,08 0,00 0,00 0,00 0,00 6.432,09 747,58 870,59 0,00 1.618,17 4.813,92 685,50 485,44 28/02/2015
544 195600 CRISTIANA SOARES HALABI OFICIAL DO MP ATIVO UBERABA - COMARCA; UBERABA-PJ-11PJ 8.233,02 2.469,91 0,00 0,00 3.567,64 0,00 14.270,57 1.177,32 2.774,49 0,00 3.951,81 10.318,76 685,50 0,00 28/02/2015
545 218900 CRISTIANE ALVES BELLES OFICIAL DO MP ATIVO JUIZ DE FORA - COMARCA; JUIZ DE FORA-PJ-10PJ 4.696,06 939,21 0,00 0,00 0,00 0,00 5.635,27 619,88 454,24 0,00 1.074,12 4.561,15 2.257,96 144,14 28/02/2015
546 263600 CRISTIANE CARVALHO COUTINHO OFICIAL DO MP ATIVO BELO HORIZONTE - COMARCA; BH-23PJ INFRACIONAL-SEC EXP 6.469,61 1.293,92 0,00 0,00 2.587,84 0,00 10.351,37 853,99 1.736,21 0,00 2.590,20 7.761,17 920,50 0,00 28/02/2015
547 541000 CRISTIANE COELHO ALVES OFICIAL DO MP ATIVO ITABIRA - COMARCA; ITABIRA-PJ-01PJ 2.952,15 0,00 0,00 0,00 0,00 0,00 2.952,15 324,74 49,50 0,00 374,24 2.577,91 685,50 0,00 28/02/2015
548 441700 CRISTIANE CORRADO DE ANDRADE ANALISTA DO MP ATIVO BELO HORIZONTE - COMARCA; DIRETORIA DE SISTEMAS DE INFORMACAO 7.973,40 797,34 0,00 0,00 0,00 0,00 8.770,74 1.544,99 1.933,58 0,00 3.478,57 5.292,17 685,50 5.626,29 28/02/2015
549 375100 CRISTIANE DAS DORES ERCIO DE LIMA OFICIAL DO MP ATIVO GOVERNADOR VALADARES - COMARCA; COOR REG INCLUSAO MOBILIZ VALE DO RIO DOCE 4.548,03 454,80 0,00 0,00 0,00 0,00 5.002,83 550,31 398,86 0,00 949,17 4.053,66 685,50 0,00 28/02/2015
550 631600 CRISTIANE DE FREITAS NEVES OFICIAL DO MP ATIVO IPATINGA - COMARCA; IPATINGA-PJ-SECRETARIA 2.859,08 0,00 0,00 0,00 0,00 0,00 2.859,08 314,50 56,76 0,00 371,26 2.487,82 685,50 0,00 28/02/2015
551 178800 CRISTIANE DE LIMA HOSKEN OFICIAL DO MP ATIVO BELO HORIZONTE - COMARCA; BH-14PJ DEFESA CONSUMIDOR-GAB 113PJ 9.358,72 2.807,62 0,00 0,00 0,00 0,00 12.166,34 1.338,30 2.003,30 0,00 3.341,60 8.824,74 4.748,31 372,42 28/02/2015
552 494000 CRISTIANE DE MELO MARQUEZ OLIVEIRA ANALISTA DO MP ATIVO UBERLÂNDIA - COMARCA; UBERLANDIA-PJ-06PJ 6.265,58 375,93 0,00 0,00 0,00 0,00 6.641,51 730,57 799,36 0,00 1.529,93 5.111,58 4.748,31 372,42 28/02/2015
553 266100 CRISTIANE DE OLIVEIRA CASTRO OFICIAL DO MP ATIVO BELO HORIZONTE - COMARCA; PROCON-MG-SECRETARIA DE FISCALIZACOES 6.793,15 2.466,95 0,00 0,00 0,00 0,00 9.260,10 896,70 1.374,94 0,00 2.271,64 6.988,46 920,50 0,00 28/02/2015
554 329500 CRISTIANE DOS REIS SILVA OFICIAL DO MP ATIVO ARAXÁ - COMARCA; ARAXA-PJ-04PJ 4.848,98 484,90 0,00 0,00 0,00 0,00 5.333,88 679,24 478,24 0,00 1.157,48 4.176,40 920,50 897,12 28/02/2015
555 301600 CRISTIANE GODINHO PIRES ANALISTA DO MP ATIVO BETIM - COMARCA; BETIM-PJ-07PJ 10.302,83 2.060,57 0,00 0,00 0,00 0,00 12.363,40 1.359,97 2.199,79 0,00 3.559,76 8.803,64 685,50 0,00 28/02/2015
556 406100 CRISTIANE GONCALVES CHAVES ANALISTA DO MP ATIVO BELO HORIZONTE - COMARCA; BH-09PJ AUDITORIA MILITAR-SECRETARIA 8.233,02 1.646,60 0,00 0,00 0,00 0,00 9.879,62 1.086,76 1.591,89 0,00 2.678,65 7.200,97 4.748,31 372,42 28/02/2015
557 487600 CRISTIANE LOPES DE OLIVEIRA OFICIAL DO MP ATIVO CARMO DA MATA - COMARCA; CARMO DA MATA-PJ-SECRETARIA 3.694,41 221,66 0,00 0,00 0,00 0,00 3.916,07 430,77 160,81 0,00 591,58 3.324,49 685,50 0,00 28/02/2015
558 502500 CRISTIANE MACIEL DE OLIVEIRA GOMES ANALISTA DO MP ATIVO JUIZ DE FORA - COMARCA; JUIZ DE FORA-PJ-05PJ 6.265,58 375,93 0,00 0,00 2.213,84 0,00 8.855,35 730,57 1.408,16 0,00 2.138,73 6.716,62 685,50 0,00 28/02/2015
559 285500 CRISTIANE MAGALHAES LOURENCO ANALISTA DO MP ATIVO BELO HORIZONTE - COMARCA; CENTRAL DE APOIO TECNICO-SETOR CONTABIL 9.977,95 1.995,59 0,00 0,00 0,00 0,00 11.973,54 1.317,09 2.005,53 0,00 3.322,62 8.650,92 4.748,31 372,42 28/02/2015
560 536500 CRISTIANE MICHELE DE SOUZA ANALISTA DO MP ATIVO BARÃO DE COCAIS - COMARCA; BARAO DE COCAIS-PJ-UNPJ 5.006,87 0,00 0,00 0,00 0,00 0,00 5.006,87 550,76 359,23 0,00 909,99 4.096,88 920,50 0,00 28/02/2015
561 346600 CRISTIANE NOGUEIRA ANDRADE ANALISTA DO MP ATIVO BELO HORIZONTE - COMARCA; CENTRAL DE APOIO TECNICO-SETOR CONTABIL 9.358,72 935,87 0,00 0,00 0,00 0,00 10.294,59 1.132,40 1.693,45 0,00 2.825,85 7.468,74 1.155,50 0,00 28/02/2015
562 234000 CRISTIANE OLIVEIRA TOSTES OFICIAL DO MP ATIVO JUIZ DE FORA - COMARCA; JUIZ DE FORA-PJ-08PJ 8.233,02 1.646,60 0,00 0,00 0,00 0,00 9.879,62 1.086,76 1.591,89 0,00 2.678,65 7.200,97 4.748,31 372,42 28/02/2015
563 445800 CRISTIANE ORZIL COSTA OFICIAL DO MP ATIVO SANTA LUZIA - COMARCA; SANTA LUZIA-PJ-05PJ 3.814,70 381,47 0,00 0,00 0,00 0,00 4.196,17 461,58 237,32 0,00 698,90 3.497,27 685,50 0,00 28/02/2015
564 616100 CRISTIANE PAES RODRIGUES MARCICANO ANALISTA DO MP ATIVO CATAGUASES - COMARCA; CATAGUASES-PJ-05PJ 4.404,59 0,00 0,00 0,00 0,00 0,00 4.404,59 484,50 279,06 0,00 763,56 3.641,03 685,50 0,00 28/02/2015
565 612300 CRISTIANE RIBEIRO DOS REIS ARCANJO OFICIAL DO MP ATIVO BELO HORIZONTE - COMARCA; BH-17PJ PATRIMONIO PUBLICO-SECRETARIA 2.859,08 0,00 0,00 0,00 0,00 0,00 2.859,08 314,50 43,29 0,00 357,79 2.501,29 685,50 0,00 28/02/2015
566 215000 CRISTIANE RODRIGUES DE CARVALHO ASSESSOR ATIVO BELO HORIZONTE - COMARCA; BH-14PJ DEFESA CONSUMIDOR-GAB 005PJ 0,00 1.181,65 3.938,84 0,00 0,00 0,00 5.120,49 513,01 629,42 0,00 1.142,43 3.978,06 685,50 0,00 28/02/2015
567 257700 CRISTIANE RODRIGUES PAES NUNES ANALISTA DO MP ATIVO BELO HORIZONTE - COMARCA; BH-22PJ PES COM DEF E IDOSOS-ORIENTACAO PSIC 10.638,28 2.127,66 0,00 0,00 0,00 0,00 12.765,94 1.404,25 2.248,89 0,00 3.653,14 9.112,80 4.748,31 372,42 28/02/2015
568 510800 CRISTIANE SANTOS FERNANDES ORNELES ANALISTA DO MP ATIVO BELO HORIZONTE - COMARCA; COORD ESTADUAL DAS PJS DE HAB. E URBANISMO 6.265,58 375,93 0,00 0,00 2.213,84 0,00 8.855,35 730,57 1.358,74 0,00 2.089,31 6.766,04 685,50 0,00 28/02/2015
569 535700 CRISTIANE SANTOS MIRANDA OFICIAL DO MP ATIVO BETIM - COMARCA; BETIM-PJ-02PJ 3.250,03 0,00 0,00 0,00 0,00 0,00 3.250,03 357,50 71,89 0,00 429,39 2.820,64 685,50 0,00 28/02/2015
570 536200 CRISTIANO DE OLIVEIRA ANALISTA DO MP ATIVO CONCEIÇÃO DO MATO DENTRO - COMARCA; CONCEICAO DO MATO DENTRO-PJ-UNPJ 5.006,87 0,00 0,00 0,00 0,00 0,00 5.006,87 550,76 399,66 0,00 950,42 4.056,45 685,50 0,00 28/02/2015
571 477400 CRISTIANO SOARES ELEUTERIO ANALISTA DO MP ATIVO BELO HORIZONTE - COMARCA; BH-17PJ PATRIMONIO PUBLICO 6.793,15 407,59 0,00 0,00 0,00 0,00 7.200,74 792,08 936,23 0,00 1.728,31 5.472,43 685,50 0,00 28/02/2015
572 449400 CRISTIANO TEIXEIRA RODRIGUES LANA ANALISTA DO MP ATIVO BELO HORIZONTE - COMARCA; ASSESS TECNICO-JUR JUNTO AS PROC. DE JUST 6.793,15 407,59 0,00 0,00 0,00 0,00 7.200,74 792,08 936,23 0,00 1.728,31 5.472,43 685,50 0,00 28/02/2015
573 239400 CRISTINA DE FATIMA CRUZ E SILVA OFICIAL DO MP ATIVO MONTE SANTO DE MINAS - COMARCA; MONTE SANTO DE MINAS-PJ-SECRETARIA 7.014,37 1.402,87 0,00 0,00 0,00 0,00 8.417,24 925,90 1.233,97 0,00 2.159,87 6.257,37 685,50 0,00 28/02/2015
574 544000 CRISTINA DE OLIVEIRA TERRA ANALISTA DO MP ATIVO MATOZINHOS - COMARCA; MATOZINHOS-PJ-02PJ 4.548,03 0,00 0,00 0,00 0,00 0,00 4.548,03 500,28 307,78 0,00 808,06 3.739,97 685,50 0,00 28/02/2015
575 356800 CRISTINA DE PINHO BARROSO OFICIAL DO MP ATIVO SABINÓPOLIS - COMARCA; SABINOPOLIS-PJ-UNPJ 4.696,06 939,21 0,00 0,00 0,00 0,00 5.635,27 619,88 454,24 0,00 1.074,12 4.561,15 967,10 0,00 28/02/2015
576 449100 CRISTINA KISTEMANN CHIODI ASSESSOR ATIVO BELO HORIZONTE - COMARCA; COORD-GERAL DAS PJS POR BACIA HIDRO. DE MG 0,00 0,00 8.777,78 0,00 0,00 0,00 8.777,78 513,01 1.635,17 0,00 2.148,18 6.629,60 685,50 0,00 28/02/2015
577 348201 CRISTINA MARIA DA SILVA ANALISTA DO MP ATIVO PATOS DE MINAS - COMARCA; PATOS DE MINAS-PJ-02PJ 6.578,93 394,74 0,00 0,00 0,00 0,00 6.973,67 767,10 880,66 0,00 1.647,76 5.325,91 685,50 0,00 28/02/2015
578 434900 CRISTINA MELO DE MADUREIRA ANALISTA DO MP ATIVO BELO HORIZONTE - COMARCA; CAO-CRIMINAL-SECRETARIA 7.973,40 797,34 0,00 0,00 0,00 0,00 8.770,74 1.544,99 1.836,88 0,00 3.381,87 5.388,87 920,50 5.274,65 28/02/2015
579 117100 CRISTINA PEDROSA GARABINI COORDENADOR/ANALISTA ATIVO BELO HORIZONTE - COMARCA; DIRET DE INFORMACAO E CONHECIMENTO-DINC/CEAF 17.524,60 11.234,98 0,00 0,00 0,00 0,00 28.759,58 2.891,56 6.188,72 0,00 9.080,28 19.679,30 685,50 0,00 28/02/2015
580 307700 CRISTINA TEIXEIRA MARQUES OFICIAL DO MP ATIVO BELO HORIZONTE - COMARCA; CENTRAL DE APOIO TECNICO-SECRETARIA 5.169,86 1.033,97 0,00 0,00 0,00 0,00 6.203,83 682,42 692,24 0,00 1.374,66 4.829,17 2.826,52 196,26 28/02/2015
581 265300 CRISTOVAO SANCHES DE MEDEIROS ANALISTA DO MP ATIVO BELO HORIZONTE - COMARCA; BH-02PJ FAMILIA-SECRETARIA 9.663,38 1.932,68 0,00 0,00 0,00 0,00 11.596,06 1.275,57 1.962,56 0,00 3.238,13 8.357,93 685,50 0,00 28/02/2015
582 349800 CROZEIR LUIZ DA SILVA OFICIAL DO MP ATIVO UNAÍ - COMARCA; UNAI-PJ-SECRETARIA 5.511,94 551,19 0,00 0,00 0,00 0,00 6.063,13 666,94 608,38 0,00 1.275,32 4.787,81 3.246,46 183,36 28/02/2015
583 490500 CYNTHIA CRISTINA DE SOUZA OLIVEIRA VALENTE ANALISTA DO MP ATIVO BELO HORIZONTE - COMARCA; BH-09PJ AUDITORIA MILITAR 6.265,58 375,93 0,00 0,00 0,00 0,00 6.641,51 730,57 799,36 0,00 1.529,93 5.111,58 920,50 0,00 28/02/2015
584 389800 CYNTHIA GARIGLIO DOS SANTOS OFICIAL DO MP ATIVO PERDIZES - COMARCA; PERDIZES-PJ-SECRETARIA 4.131,19 413,12 0,00 0,00 1.514,77 0,00 6.059,08 499,87 603,79 0,00 1.103,66 4.955,42 920,50 0,00 28/02/2015
585 335101 CYNTHIA GONTIJO D ASSUNCAO ANALISTA DO MP ATIVO BELO HORIZONTE - COMARCA; PROC. JUSTICA DIR. DIFUSOS E COLETIVOS-SEC 6.793,15 407,59 0,00 0,00 0,00 0,00 7.200,74 792,08 936,23 0,00 1.728,31 5.472,43 685,50 0,00 28/02/2015
586 154000 CYNTHIA LOPES DOS SANTOS LAGES ASSESSOR ATIVO BELO HORIZONTE - COMARCA; PROCURADOR-GERAL DE JUSTICA- GABINETE 0,00 5.151,41 10.302,83 0,00 0,00 0,00 15.454,24 1.699,97 2.956,27 0,00 4.656,24 10.798,00 4.748,31 372,42 28/02/2015
587 269700 CYNTIA ROCHA CAVALCANTI OFICIAL DO MP ATIVO UBERLÂNDIA - COMARCA; UBERLANDIA-PJ-06PJ 6.793,15 1.358,63 0,00 0,00 0,00 0,00 8.151,78 896,70 1.169,00 0,00 2.065,70 6.086,08 4.748,31 372,42 28/02/2015
588 278000 DAIRTON LOPES MARTINS FILHO COORDENADOR/ANALISTA ATIVO BELO HORIZONTE - COMARCA; DIRETORIA DE SISTEMAS DE INFORMACAO 0,00 2.060,57 10.302,83 0,00 0,00 0,00 12.363,40 1.019,30 2.293,48 0,00 3.312,78 9.050,62 4.748,31 372,42 28/02/2015
589 392700 DALIANA CHAVES SILVA OFICIAL DO MP ATIVO ITAÚNA - COMARCA; ITAUNA-PJ-SECRETARIA 5.006,87 500,69 0,00 0,00 0,00 0,00 5.507,56 605,83 521,83 0,00 1.127,66 4.379,90 4.650,94 363,50 28/02/2015
590 558101 DALLEY TASSIA SILVA ANALISTA DO MP ATIVO MORADA NOVA DE MINAS - COMARCA; MORADA NOVA DE MINAS-PJ-UNPJ 4.848,98 0,00 0,00 0,00 0,00 0,00 4.848,98 533,39 287,18 0,00 820,57 4.028,41 685,50 0,00 28/02/2015
591 476700 DALTON DAUD ANALISTA DO MP ATIVO ARAGUARI - COMARCA; ARAGUARI-PJ-05PJ 6.793,15 407,59 0,00 0,00 0,00 0,00 7.200,74 792,08 837,39 0,00 1.629,47 5.571,27 4.748,31 372,42 28/02/2015
592 548700 DALVA DE SOUZA ROCHA ALMEIDA OFICIAL DO MP ATIVO IPATINGA - COMARCA; IPATINGA-PJ-01PJ 3.250,03 0,00 0,00 0,00 0,00 0,00 3.250,03 357,50 55,90 0,00 413,40 2.836,63 685,50 0,00 28/02/2015
593 426900 DANIEL ALVES DA SILVA OFICIAL DO MP ATIVO BELO HORIZONTE - COMARCA; EXTINTA - PROTOCOLO DA PGJ 3.814,70 381,47 0,00 0,00 0,00 0,00 4.196,17 461,58 171,25 0,00 632,83 3.563,34 4.748,31 203,14 28/02/2015
594 122000 DANIEL ANTONIO VIEIRA OFICIAL DO MP ATIVO ENTRE-RIOS DE MINAS - COMARCA; ENTRE RIOS DE MINAS-PJ-SECRETARIA 7.721,95 3.860,98 0,00 0,00 0,00 0,00 11.582,93 1.274,12 1.761,67 0,00 3.035,79 8.547,14 685,50 0,00 28/02/2015
595 272401 DANIEL AUGUSTO DOS REIS ANALISTA DO MP ATIVO BELO HORIZONTE - COMARCA; BH-22PJ PES COM DEF E IDOSOS-ASS JURIDICA 8.233,02 823,30 0,00 0,00 0,00 0,00 9.056,32 996,20 1.390,38 0,00 2.386,58 6.669,74 685,50 0,00 28/02/2015
596 536301 DANIEL BATISTA MARIANO ANALISTA DO MP ATIVO CURVELO - COMARCA; CURVELO-PJ-05PJ 4.848,98 0,00 0,00 0,00 0,00 0,00 4.848,98 533,39 368,05 0,00 901,44 3.947,54 685,50 0,00 28/02/2015
597 411000 DANIEL FERREIRA DA SILVA ANALISTA DO MP ATIVO GOVERNADOR VALADARES - COMARCA; GOVERNADOR VALADARES-PJ-15PJ 7.721,95 1.544,39 0,00 0,00 0,00 0,00 9.266,34 1.019,30 1.342,95 0,00 2.362,25 6.904,09 1.729,64 74,17 28/02/2015
598 309000 DANIEL GOMES DOS SANTOS ANALISTA DO MP ATIVO POÇOS DE CALDAS - COMARCA; POCOS DE CALDAS-PJ-03PJ 9.063,59 1.812,72 0,00 0,00 0,00 0,00 10.876,31 1.196,39 1.835,83 0,00 3.032,22 7.844,09 4.983,31 372,42 28/02/2015
599 554500 DANIEL GOMES PEREIRA OFICIAL DO MP ATIVO NANUQUE - COMARCA; NANUQUE-PJ-02PJ 2.952,15 0,00 0,00 0,00 0,00 0,00 2.952,15 324,74 62,98 0,00 387,72 2.564,43 685,50 0,00 28/02/2015
600 453000 DANIEL GONCALVES PEREIRA ANALISTA DO MP ATIVO UNAÍ - COMARCA; UNAI-PJ-02PJ 6.793,15 407,59 0,00 0,00 0,00 0,00 7.200,74 792,08 936,23 0,00 1.728,31 5.472,43 3.823,43 287,64 28/02/2015
601 495500 DANIEL GUIMARAES CABRAL OFICIAL DO MP ATIVO BELO HORIZONTE - COMARCA; BH-17PJ PATRIMONIO PUBLICO-SECRETARIA 3.355,81 201,35 0,00 0,00 1.185,72 0,00 4.742,88 391,29 376,15 0,00 767,44 3.975,44 685,50 0,00 28/02/2015
602 442900 DANIEL GUIMARAES GONCALVES ANALISTA DO MP ATIVO UBERLÂNDIA - COMARCA; UBERLANDIA-PJ-03PJ 7.014,37 701,44 0,00 0,00 0,00 0,00 7.715,81 848,74 1.062,29 0,00 1.911,03 5.804,78 4.338,50 334,86 28/02/2015
603 491200 DANIEL HENRIQUE SOUTO COSTA ANALISTA DO MP ATIVO CORAÇÃO DE JESUS - COMARCA; CORACAO DE JESUS-PJ-UNPJ 6.265,58 375,93 0,00 0,00 0,00 0,00 6.641,51 730,57 799,36 0,00 1.529,93 5.111,58 685,50 0,00 28/02/2015
604 464600 DANIEL PIACENTINI STIVANIN ANALISTA DO MP ATIVO ANDRADAS - COMARCA; ANDRADAS-PJ-02PJ 6.793,15 407,59 0,00 0,00 0,00 0,00 7.200,74 792,08 936,23 0,00 1.728,31 5.472,43 685,50 0,00 28/02/2015
605 417000 DANIEL QUEIROZ FERREIRA ANALISTA DO MP ATIVO SÃO SEBASTIÃO DO PARAÍSO - COMARCA; SAO SEBASTIAO DO PARAISO-PJ-05PJ 7.721,95 772,20 0,00 0,00 0,00 0,00 8.494,15 934,36 1.252,79 0,00 2.187,15 6.307,00 685,50 0,00 28/02/2015
606 396700 DANIEL SILVA CARNEVALLI DIRETOR/ANALISTA ATIVO BELO HORIZONTE - COMARCA; SUPERINTENDENCIA DE TECNOLOGIA DA INFORMACAO 0,00 1.335,40 13.353,95 0,00 0,00 0,00 14.689,35 996,20 2.939,47 0,00 3.935,67 10.753,68 4.748,31 372,42 28/02/2015
607 489300 DANIEL TABOZA ROCHA ANALISTA DO MP ATIVO IPATINGA - COMARCA; IPATINGA-PJ-08PJ 6.265,58 375,93 0,00 0,00 0,00 0,00 6.641,51 730,57 799,36 0,00 1.529,93 5.111,58 685,50 0,00 28/02/2015
608 414100 DANIEL TARDELI VALADAO ANALISTA DO MP ATIVO TRÊS CORACOES - COMARCA; TRES CORACOES-PJ-02PJ 7.014,37 701,44 0,00 0,00 2.571,94 0,00 10.287,75 848,74 1.769,58 0,00 2.618,32 7.669,43 685,50 0,00 28/02/2015
609 446600 DANIEL VIEIRA BUENO OFICIAL DO MP ATIVO RIO PIRACICABA - COMARCA; RIO PIRACICABA-PJ-UNPJ 4.131,19 413,12 0,00 0,00 0,00 0,00 4.544,31 499,87 307,04 0,00 806,91 3.737,40 685,50 0,00 28/02/2015
610 253200 DANIELA BATISTA LIMA BARBOSA ASSESSOR ATIVO BELO HORIZONTE - COMARCA; CENTRAL DE APOIO TECN-SETOR DE MEIO AMBIENTE 0,00 787,77 3.938,84 0,00 0,00 0,00 4.726,61 513,01 521,10 0,00 1.034,11 3.692,50 685,50 0,00 28/02/2015
611 505800 DANIELA BORGES DE MATTOS RESENDE ANALISTA DO MP ATIVO JUIZ DE FORA - COMARCA; JUIZ DE FORA-PJ-20PJ 6.265,58 375,93 0,00 0,00 2.213,84 0,00 8.855,35 730,57 1.408,16 0,00 2.138,73 6.716,62 920,50 0,00 28/02/2015
612 478000 DANIELA CARVALHO SOARES ANALISTA DO MP ATIVO SÃO JOÃO DEL REI - COMARCA; SAO JOAO DEL REI-PJ-01PJ 6.793,15 407,59 0,00 0,00 2.400,25 0,00 9.600,99 792,08 1.596,30 0,00 2.388,38 7.212,61 685,50 0,00 28/02/2015
613 275900 DANIELA CHAGAS SODRE ANALISTA DO MP ATIVO BELO HORIZONTE - COMARCA; CENTRAL DE APOIO TECNICO-SETOR CONTABIL 9.977,95 1.995,59 0,00 0,00 0,00 0,00 11.973,54 1.317,09 2.054,95 0,00 3.372,04 8.601,50 4.983,31 372,42 28/02/2015
614 234301 DANIELA CRUZ SOARES ANALISTA DO MP ATIVO BELO HORIZONTE - COMARCA; LAB TECNOLOGIA CONTRA LAVAGEM DINHEIRO 10.984,62 2.196,92 0,00 0,00 0,00 0,00 13.181,54 1.449,97 2.400,03 0,00 3.850,00 9.331,54 4.748,31 372,42 28/02/2015
615 301000 DANIELA DE ALMEIDA E OLIVEIRA ANALISTA DO MP ATIVO BELO HORIZONTE - COMARCA; DIRETORIA DE SISTEMAS DE INFORMACAO 9.977,95 1.995,59 0,00 0,00 3.991,18 0,00 15.964,72 1.317,09 3.201,95 0,00 4.519,04 11.445,68 685,50 0,00 28/02/2015
616 296000 DANIELA DE AZEVEDO SILVA ANALISTA DO MP ATIVO ITAJUBA - COMARCA; ITAJUBA-PJ-03PJ 10.302,83 2.060,57 0,00 0,00 0,00 0,00 12.363,40 1.359,97 2.199,79 0,00 3.559,76 8.803,64 685,50 0,00 28/02/2015
617 453500 DANIELA DE CASTRO SOUSA BARBOSA ANALISTA DO MP ATIVO BELO HORIZONTE - COMARCA; BH-08PJ JUIZADO ESPECIAL-SECRETARIA 6.793,15 407,59 0,00 0,00 0,00 0,00 7.200,74 927,89 1.238,40 0,00 2.166,29 5.034,45 685,50 1.234,60 28/02/2015
618 506000 DANIELA DE OLIVEIRA CAVALIERI ANALISTA DO MP ATIVO BELO HORIZONTE - COMARCA; BH-14PJ DEFESA CONSUMIDOR-GAB 005PJ 5.169,86 310,19 0,00 0,00 1.826,68 0,00 7.306,73 602,81 1.017,43 0,00 1.620,24 5.686,49 685,50 0,00 28/02/2015
619 546200 DANIELA DE VILHENA LEMES GONCALVES OFICIAL DO MP ATIVO TRÊS CORACOES - COMARCA; TRES CORACOES-PJ-05PJ 2.952,15 0,00 0,00 0,00 0,00 0,00 2.952,15 324,74 36,02 0,00 360,76 2.591,39 685,50 0,00 28/02/2015
620 356400 DANIELA LEAL FERRAZ ANALISTA DO MP ATIVO MONTES CLAROS - COMARCA; COORD REG PJ DEF EDUC DIR CRIANCA ADOL NORTE 8.501,02 850,10 0,00 0,00 0,00 0,00 9.351,12 1.028,62 1.462,54 0,00 2.491,16 6.859,96 4.748,31 372,42 28/02/2015
621 501000 DANIELA LOURENCO SANTOS DA SILVA GUIMARAES ANALISTA DO MP ATIVO BELO HORIZONTE - COMARCA; BH-12PJ JUIZO CRIMINAL-GAB 086PJ 6.265,58 375,93 0,00 0,00 2.213,84 0,00 8.855,35 730,57 1.408,16 0,00 2.138,73 6.716,62 920,50 0,00 28/02/2015
622 195801 DANIELA MARIA DE OLIVEIRA QUEIROZ ANALISTA DO MP ATIVO ARAGUARI - COMARCA; ARAGUARI-PJ-06PJ 7.973,40 2.392,02 0,00 0,00 0,00 0,00 10.365,42 1.815,35 2.344,54 0,00 4.159,89 6.205,53 685,50 6.137,80 28/02/2015
623 511400 DANIELA MARIA LARA DE OLIVEIRA ANALISTA DO MP ATIVO BOA ESPERANÇA - COMARCA; BOA ESPERANCA-PJ-02PJ 5.691,44 341,49 0,00 0,00 0,00 0,00 6.032,93 663,62 600,99 0,00 1.264,61 4.768,32 685,50 0,00 28/02/2015
624 252101 DANIELA PAULA ALVES PENA ANALISTA DO MP ATIVO CONTAGEM - COMARCA; CONTAGEM-PJ-APO TECNICO 8.233,02 2.469,91 0,00 0,00 0,00 0,00 10.702,93 1.177,32 1.793,39 0,00 2.970,71 7.732,22 685,50 0,00 28/02/2015
625 604700 DANIELA PEIXOTO NOGUEIRA OFICIAL DO MP ATIVO BELO HORIZONTE - COMARCA; DIRET DE FORMACAO, APERFEIC. E POS-GRADUACAO 3.250,03 0,00 0,00 0,00 0,00 0,00 3.250,03 357,50 98,85 0,00 456,35 2.793,68 685,50 0,00 28/02/2015
626 429600 DANIELA PIMENTA NUNES MACHADO ANALISTA DO MP ATIVO BELO HORIZONTE - COMARCA; BH-05PJ JUÍZO DE SUCESSÕES 7.973,40 797,34 0,00 0,00 0,00 0,00 8.770,74 1.544,99 1.933,58 0,00 3.478,57 5.292,17 4.748,31 5.998,71 28/02/2015
627 424300 DANIELA PORTO PINTO OFICIAL DO MP ATIVO BELO HORIZONTE - COMARCA; EXTINTA-DEFESA DA SAUDE-19 PJ-GABINETE 3.938,84 393,88 0,00 0,00 0,00 0,00 4.332,72 476,60 264,67 0,00 741,27 3.591,45 685,50 0,00 28/02/2015
628 462000 DANIELA SOUSA GOMES DO AMARAL ANALISTA DO MP ATIVO BETIM - COMARCA; BETIM-PJ-03PJ 6.793,15 407,59 0,00 0,00 0,00 0,00 7.200,74 792,08 936,23 0,00 1.728,31 5.472,43 920,50 0,00 28/02/2015
629 427000 DANIELA TEIXEIRA DINIZ ANDRADE ANALISTA DO MP ATIVO BELO HORIZONTE - COMARCA; DIRETORIA DE PROJETOS DE EDIFICACOES 6.469,61 646,96 0,00 0,00 0,00 0,00 7.116,57 782,82 866,21 0,00 1.649,03 5.467,54 920,50 0,00 28/02/2015
630 337200 DANIELA TOLEDO SENIUK ANALISTA DO MP ATIVO BELO HORIZONTE - COMARCA; CGMP-SECRETARIA DA CORREGEDORIA-GERAL DO MP 7.721,95 772,20 0,00 0,00 0,00 0,00 8.494,15 934,36 1.203,37 0,00 2.137,73 6.356,42 920,50 0,00 28/02/2015
631 605600 DANIELE ALZIRA SILVA CABRAL MOREIRA OFICIAL DO MP ATIVO BELO HORIZONTE - COMARCA; BH-10PJ EXECUÇÃO PENAL 3.250,03 0,00 0,00 0,00 0,00 0,00 3.250,03 357,50 98,85 0,00 456,35 2.793,68 685,50 0,00 28/02/2015
632 195500 DANIELE CHAVES FONSECA OFICIAL DO MP ATIVO BELO HORIZONTE - COMARCA; ASSESSORIA ESPECIAL DO PGJ 9.063,59 2.719,08 0,00 0,00 0,00 0,00 11.782,67 1.296,09 2.057,66 0,00 3.353,75 8.428,92 4.748,31 372,42 28/02/2015
633 323400 DANIELE MEGALE SANTINI OFICIAL DO MP ATIVO BELO HORIZONTE - COMARCA; ASSESS TECNICO-JUR JUNTO AS PROC. DE JUST 6.265,58 626,56 0,00 0,00 0,00 0,00 6.892,14 758,14 811,28 0,00 1.569,42 5.322,72 685,50 0,00 28/02/2015
634 357900 DANIELE REJANE PINTO VERSIEUX OFICIAL DO MP ATIVO PEDRO LEOPOLDO - COMARCA; PEDRO LEOPOLDO-PJ-03PJ 5.691,44 569,14 0,00 0,00 0,00 0,00 6.260,58 794,91 942,53 0,00 1.737,44 4.523,14 685,50 965,88 28/02/2015
635 389500 DANIELE VASCONCELOS AMORIM OFICIAL DO MP ATIVO SÃO SEBASTIÃO DO PARAÍSO - COMARCA; SAO SEBASTIAO DO PARAISO-PJ-04PJ 5.169,86 516,99 0,00 0,00 0,00 0,00 5.686,85 625,55 565,71 0,00 1.191,26 4.495,59 685,50 0,00 28/02/2015
636 629700 DANIELLA BASTOS MARTINS BICALHO OFICIAL DO MP ATIVO GOVERNADOR VALADARES - COMARCA; GOVERNADOR VALADARES-PJ-15PJ 2.859,08 0,00 0,00 0,00 0,00 0,00 2.859,08 314,50 56,76 0,00 371,26 2.487,82 685,50 0,00 28/02/2015
637 265000 DANIELLE CASTANHEIRA SCALABRINI OFICIAL DO MP ATIVO BELO HORIZONTE - COMARCA; JUNTA RECURSAL DO PROCON ESTADUAL 5.876,69 1.175,34 0,00 0,00 0,00 0,00 7.052,03 775,72 751,57 0,00 1.527,29 5.524,74 4.748,31 372,42 28/02/2015
638 490100 DANIELLE DE AVILA SILVA LOPES ANALISTA DO MP ATIVO BELO HORIZONTE - COMARCA; PROC. JUSTICA DIR. DIFUSOS E COLETIVOS-SEC 6.265,58 1.253,12 0,00 0,00 0,00 0,00 7.518,70 827,06 1.014,05 0,00 1.841,11 5.677,59 4.141,39 316,79 28/02/2015
639 549600 DANIELLE GOMES LOPES RODRIGUES OFICIAL DO MP ATIVO ITABIRA - COMARCA; ITABIRA-PJ-03PJ 3.250,03 0,00 0,00 0,00 0,00 0,00 3.250,03 357,50 98,85 0,00 456,35 2.793,68 920,50 0,00 28/02/2015
640 613000 DANIELLE SILVA OLIVEIRA FRANKLIN OFICIAL DO MP ATIVO BELO HORIZONTE - COMARCA; DIRETORIA DE ADMINISTRACAO FINANCEIRA 3.147,52 0,00 0,00 0,00 0,00 0,00 3.147,52 346,23 85,16 0,00 431,39 2.716,13 685,50 0,00 28/02/2015
641 380800 DANILLO RIBEIRO ANTUNES ANALISTA DO MP ATIVO MONTES CLAROS - COMARCA; MONTES CLAROS-PJ-SECRETARIA 8.233,02 823,30 0,00 0,00 0,00 0,00 9.056,32 996,20 1.291,54 0,00 2.287,74 6.768,58 685,50 0,00 28/02/2015
642 453700 DANILO BOTELHO DE CARVALHO ASSESSOR/ANALISTA ATIVO BELO HORIZONTE - COMARCA; DIRETORIA DE ADMINISTRACAO FINANCEIRA 0,00 478,40 7.973,40 0,00 0,00 0,00 8.451,80 792,08 1.280,27 0,00 2.072,35 6.379,45 920,50 0,00 28/02/2015
643 391200 DANILO D'AVILA MENDES ANALISTA DO MP ATIVO SÃO ROMÃO - COMARCA; SAO ROMAO-PJ-UNPJ 8.233,02 823,30 0,00 0,00 0,00 0,00 9.056,32 996,20 1.390,38 0,00 2.386,58 6.669,74 4.748,31 372,42 28/02/2015
644 494900 DANILO GAVIAO AVELINO DE MELLO ANALISTA DO MP ATIVO POUSO ALEGRE - COMARCA; POUSO ALEGRE-PJ-08PJ 6.265,58 375,93 0,00 0,00 0,00 0,00 6.641,51 730,57 799,36 0,00 1.529,93 5.111,58 3.342,10 243,52 28/02/2015
645 604300 DANILO NASCIMENTO SALGADO ANALISTA DO MP ATIVO JANAÚBA - COMARCA; JANAUBA-PJ-01PJ 5.006,87 0,00 0,00 0,00 0,00 0,00 5.006,87 550,76 399,66 0,00 950,42 4.056,45 685,50 0,00 28/02/2015
646 600700 DANILO OLIVEIRA CARILLI OFICIAL DO MP ATIVO ARAGUARI - COMARCA; ARAGUARI-PJ-07PJ 2.952,15 0,00 0,00 0,00 0,00 0,00 2.952,15 324,74 62,98 0,00 387,72 2.564,43 685,50 0,00 28/02/2015
647 550800 DANTE MENDES BIANCHETTI FILHO ANALISTA DO MP ATIVO BARBACENA - COMARCA; BARBACENA-PJ-SECRETARIA 4.548,03 0,00 0,00 0,00 0,00 0,00 4.548,03 500,28 307,78 0,00 808,06 3.739,97 685,50 0,00 28/02/2015
648 298300 DANUZA MONICA DE SOUZA DINIZ ANALISTA DO MP ATIVO DIVINÓPOLIS - COMARCA; DIVINOPOLIS-PJ-02PJ 7.973,40 1.594,68 0,00 0,00 0,00 0,00 9.568,08 1.052,49 1.466,22 0,00 2.518,71 7.049,37 685,50 0,00 28/02/2015
649 398700 DARCY LUIZ MILEO GREGATTI OFICIAL DO MP ATIVO LAMBARI - COMARCA; LAMBARI-PJ-SECRETARIA 4.848,98 484,90 0,00 0,00 0,00 0,00 5.333,88 768,81 641,37 0,00 1.410,18 3.923,70 685,50 1.655,25 28/02/2015
650 406200 DARIANA AUGUSTA DE TOLEDO PATROCINIO ASSESSOR/OFICIAL ATIVO BELO HORIZONTE - COMARCA; EXTINTA - DIRETORIA DE CONTRATOS E CONVÊNIOS 0,00 797,34 7.973,40 0,00 2.923,58 0,00 11.694,32 625,55 2.217,76 0,00 2.843,31 8.851,01 685,50 0,00 28/02/2015
651 305000 DARLI LEITE DE OLIVEIRA OFICIAL DO MP ATIVO ARAÇUAÍ - COMARCA; ARACUAI-PJ-01PJ 4.696,06 939,21 0,00 0,00 0,00 0,00 5.635,27 619,88 404,82 0,00 1.024,70 4.610,57 4.983,31 372,42 28/02/2015
652 122200 DAVID RIBEIRO DOS SANTOS ANALISTA DO MP ATIVO BORDA DA MATA - COMARCA; BORDA DA MATA-PJ-UNPJ 14.432,31 10.102,61 0,00 0,00 0,00 0,00 24.534,92 2.837,64 5.487,60 0,00 8.325,24 16.209,68 4.748,31 1.634,22 28/02/2015
653 389400 DAWSON CANEDO MARQUES OFICIAL DO MP ATIVO VARGINHA - COMARCA; VARGINHA-PJ-06PJ 5.169,86 516,99 0,00 0,00 0,00 0,00 5.686,85 625,55 565,71 0,00 1.191,26 4.495,59 920,50 0,00 28/02/2015
654 537200 DAYANE TEIXEIRA DE OLIVEIRA ANALISTA DO MP ATIVO BONFINÓPOLIS DE MINAS - COMARCA; BONFINOPOLIS DE MINAS-PJ-UNPJ 5.006,87 0,00 0,00 0,00 0,00 0,00 5.006,87 550,76 399,66 0,00 950,42 4.056,45 685,50 0,00 28/02/2015
655 256100 DAYSE ROSALY PEREIRA BATISTA OFICIAL DO MP ATIVO BELO HORIZONTE - COMARCA; PROCON-MG-SECRETARIA DE FISCALIZACOES 5.169,86 2.142,29 0,00 0,00 0,00 0,00 7.312,15 682,42 997,03 0,00 1.679,45 5.632,70 1.009,98 29,74 28/02/2015
656 311901 DEBORA APARECIDA DA SILVA ASSESSOR ATIVO BELO HORIZONTE - COMARCA; BH-23PJ CIVEL-SETOR ATEND PUB 0,00 0,00 2.359,08 0,00 0,00 0,00 2.359,08 300,30 58,26 0,00 358,56 2.000,52 1.629,13 23,59 28/02/2015
657 194301 DEBORA APARECIDA DOS SANTOS ANALISTA DO MP ATIVO UBERLÂNDIA - COMARCA; UBERLANDIA-PJ-SEC FAMILIA 10.638,28 3.191,48 0,00 0,00 0,00 0,00 13.829,76 1.521,27 2.509,26 0,00 4.030,53 9.799,23 4.748,31 372,42 28/02/2015
658 518800 DEBORA CARVALHO FIORATTO OFICIAL DO MP ATIVO BELO HORIZONTE - COMARCA; EXTINTA - DIVISÃO DE APOIO À LICITAÇÃO 4.000,95 240,06 0,00 0,00 0,00 0,00 4.241,01 488,24 272,67 0,00 760,91 3.480,10 685,50 197,52 28/02/2015
659 444900 DEBORA CLAUDIA PEREIRA ALVES ANALISTA DO MP ATIVO BELO HORIZONTE - COMARCA; BH-08PJ JUIZADO ESPECIAL-SECRETARIA 7.014,37 701,44 0,00 0,00 2.571,94 0,00 10.287,75 848,74 1.769,58 0,00 2.618,32 7.669,43 920,50 0,00 28/02/2015
660 617700 DEBORA COMANDUCI SCHREIDER ANALISTA DO MP ATIVO BICAS - COMARCA; BICAS-PJ-UNPJ 4.404,59 0,00 0,00 0,00 0,00 0,00 4.404,59 484,50 238,63 0,00 723,13 3.681,46 920,50 0,00 28/02/2015
661 555700 DEBORA CRISTINA BUITRAGO PEREIRA ANALISTA DO MP ATIVO BELO HORIZONTE - COMARCA; EXTINTA - DIRETORIA DE CONTRATOS E CONVÊNIOS 5.006,87 0,00 0,00 0,00 0,00 0,00 5.006,87 550,76 399,66 0,00 950,42 4.056,45 685,50 0,00 28/02/2015
662 513100 DEBORA CRISTINA PEREIRA DE OLIVEIRA ANALISTA DO MP ATIVO BELO HORIZONTE - COMARCA; BH-23PJ CIVEL-SETOR JURIDICO 5.691,44 341,49 0,00 0,00 2.010,98 0,00 8.043,91 663,62 1.203,43 0,00 1.867,05 6.176,86 920,50 0,00 28/02/2015
663 612100 DEBORA DUARTE SILVA DE SOUZA OFICIAL DO MP ATIVO RIBEIRÃO DAS NEVES - COMARCA; RIBEIRAO DAS NEVES-PJ-06PJ 3.147,52 629,50 0,00 0,00 0,00 0,00 3.777,02 415,47 115,29 0,00 530,76 3.246,26 920,50 0,00 28/02/2015
664 539700 DEBORA SALES CARVALHO ANALISTA DO MP ATIVO PATOS DE MINAS - COMARCA; COORD REG PJ DEF EDU DIR CRI ADO AL PAR NOROE 5.006,87 0,00 0,00 0,00 0,00 0,00 5.006,87 550,76 399,66 0,00 950,42 4.056,45 685,50 0,00 28/02/2015
665 424100 DEBORA SANTOS E ALVES ANALISTA DO MP ATIVO JANUÁRIA - COMARCA; JANUARIA-PJ-01PJ 7.973,40 797,34 0,00 0,00 0,00 0,00 8.770,74 964,78 1.320,49 0,00 2.285,27 6.485,47 4.748,31 372,42 28/02/2015
666 426301 DEBORA SCUCATO MACHADO SOARES OFICIAL DO MP ATIVO NOVA LIMA - COMARCA; NOVA LIMA-PJ-01PJ 3.250,03 325,00 0,00 0,00 0,00 0,00 3.575,03 393,25 142,24 0,00 535,49 3.039,54 3.065,52 107,25 28/02/2015
667 550200 DEBORA TRINDADE LEITE ANALISTA DO MP ATIVO MANHUAÇU - COMARCA; MANHUACU-PJ-05PJ 5.006,87 0,00 0,00 0,00 0,00 0,00 5.006,87 550,76 318,80 0,00 869,56 4.137,31 685,50 0,00 28/02/2015
668 438000 DEBORAH COSTA LAGE ANALISTA DO MP ATIVO BELO HORIZONTE - COMARCA; ASSESS TECNICO-JUR JUNTO AS PROC. DE JUST 7.973,40 797,34 0,00 0,00 0,00 0,00 8.770,74 1.544,99 1.933,58 0,00 3.478,57 5.292,17 5.803,24 6.095,41 28/02/2015
669 475700 DEBORAH LOBAO LACERDA OFICIAL DO MP ATIVO BELO HORIZONTE - COMARCA; BH-17PJ PATRIMONIO PUBLICO-SECRETARIA 4.000,95 240,06 0,00 0,00 0,00 0,00 4.241,01 466,51 246,30 0,00 712,81 3.528,20 685,50 0,00 28/02/2015
670 613700 DEISER MARIA FERREIRA ROSCOE OFICIAL DO MP ATIVO BELO HORIZONTE - COMARCA; DIRETORIA DE PAGAMENTO DE PESSOAL-DPAG 3.147,52 0,00 0,00 0,00 0,00 0,00 3.147,52 346,23 85,16 0,00 431,39 2.716,13 685,50 0,00 28/02/2015
671 551900 DEISY ROCHA SILVA FREIRE ANALISTA DO MP ATIVO JOÃO PINHEIRO - COMARCA; JOAO PINHEIRO-PJ-01PJ 5.006,87 0,00 0,00 0,00 1.668,96 0,00 6.675,83 550,76 858,24 0,00 1.409,00 5.266,83 685,50 0,00 28/02/2015
672 501900 DELI RAQUEL RODRIGUES ANALISTA DO MP ATIVO ITUIUTABA - COMARCA; ITUIUTABA-PJ-04PJ 6.265,58 375,93 0,00 0,00 0,00 0,00 6.641,51 730,57 799,36 0,00 1.529,93 5.111,58 685,50 0,00 28/02/2015
673 378600 DELIANE LOPES VIEIRA BREIJAO NEVES ANALISTA DO MP ATIVO JUIZ DE FORA - COMARCA; JUIZ DE FORA-PJ-12PJ 8.233,02 823,30 0,00 0,00 0,00 0,00 9.056,32 996,20 1.340,96 0,00 2.337,16 6.719,16 920,50 0,00 28/02/2015
674 522500 DELMINDA MARIA LEAO E SILVA OFICIAL DO MP ATIVO ITAGUARA - COMARCA; ITAGUARA-PJ-UNPJ 3.250,03 2.275,02 0,00 0,00 0,00 0,00 5.525,05 607,76 526,10 0,00 1.133,86 4.391,19 685,50 0,00 28/02/2015
675 487700 DENIA FERREIRA MAIA SILVA OFICIAL DO MP ATIVO TRÊS CORACOES - COMARCA; TRES CORACOES-PJ-01PJ 3.694,41 221,66 0,00 0,00 0,00 0,00 3.916,07 430,77 160,81 0,00 591,58 3.324,49 685,50 0,00 28/02/2015
676 424800 DENIS APARECIDO CAMPOS DELFINO ANALISTA DO MP ATIVO LUZ - COMARCA; LUZ-PJ-UNPJ 7.721,95 772,20 0,00 0,00 0,00 0,00 8.494,15 1.191,21 1.507,46 0,00 2.698,67 5.795,48 5.761,65 3.038,24 28/02/2015
677 381400 DENISE ANGELICA MELLO DE PAULA OFICIAL DO MP ATIVO BELO HORIZONTE - COMARCA; BH-18PJ DIREITOS HUMANOS-SECRETARIA 5.169,86 516,99 0,00 0,00 0,00 0,00 5.686,85 625,55 565,71 0,00 1.191,26 4.495,59 685,50 0,00 28/02/2015
678 196300 DENISE DE ALMEIDA VILELA FURTADO OFICIAL DO MP ATIVO BELO HORIZONTE - COMARCA; CENTRAL DE APOIO TECNICO-SECRETARIA 7.014,37 2.104,31 0,00 0,00 0,00 0,00 9.118,68 1.003,05 1.356,23 0,00 2.359,28 6.759,40 685,50 0,00 28/02/2015
679 336900 DENISE DE SOUSA MORAES SILVA OFICIAL DO MP ATIVO MATEUS LEME - COMARCA; MATEUS LEME-PJ-02PJ 4.696,06 469,61 0,00 0,00 0,00 0,00 5.165,67 568,22 438,15 0,00 1.006,37 4.159,30 685,50 0,00 28/02/2015
680 271100 DENISE ELOY PEIXOTO OFICIAL DO MP ATIVO BELO HORIZONTE - COMARCA; DIRET DE DESENV DE RECURSOS HUMANOS-DDRH 6.793,15 1.358,63 0,00 0,00 0,00 0,00 8.151,78 896,70 1.169,00 0,00 2.065,70 6.086,08 4.748,31 372,42 28/02/2015
681 385400 DENISE FREITAS DE ASSIS OFICIAL DO MP ATIVO CARATINGA - COMARCA; CARATINGA-PJ-01PJ 5.006,87 1.609,01 0,00 0,00 0,00 0,00 6.615,88 605,83 727,77 0,00 1.333,60 5.282,28 685,50 0,00 28/02/2015
682 437100 DENISE NOGUEIRA MAGRI MENDES ANALISTA DO MP ATIVO BELO HORIZONTE - COMARCA; LAB TECNOLOGIA CONTRA LAVAGEM DINHEIRO 7.973,40 1.594,68 0,00 0,00 0,00 0,00 9.568,08 1.685,44 1.930,71 0,00 3.616,15 5.951,93 685,50 5.754,20 28/02/2015
683 524700 DENISE RAMOS GUIMARAES OFICIAL DO MP ATIVO SANTA LUZIA - COMARCA; SANTA LUZIA-PJ-SECRETARIA 3.577,90 214,67 0,00 0,00 0,00 0,00 3.792,57 440,80 199,94 0,00 640,74 3.151,83 685,50 214,67 28/02/2015
684 239100 DENISE RIBEIRO DOS SANTOS CAETANO OFICIAL DO MP ATIVO ITANHANDU - COMARCA; ITANHANDU-PJ-SECRETARIA 7.014,37 1.402,87 0,00 0,00 0,00 0,00 8.417,24 925,90 1.135,13 0,00 2.061,03 6.356,21 4.748,31 372,42 28/02/2015
685 325500 DENISE ROSA TORRES COORDENADOR/OFICIAL ATIVO BELO HORIZONTE - COMARCA; DIRETORIA DE PESSOAL ADMINISTRATIVO - DPAD 0,00 906,36 9.063,59 0,00 0,00 0,00 9.969,95 734,23 1.713,67 0,00 2.447,90 7.522,05 4.748,31 372,42 28/02/2015
686 437200 DENISE VIVIANE DOS SANTOS ANALISTA DO MP ATIVO BELO HORIZONTE - COMARCA; ASSESS TECNICA DA CORREGEDORIA-GERAL DO MP 7.014,37 701,44 0,00 0,00 0,00 0,00 7.715,81 848,74 1.012,87 0,00 1.861,61 5.854,20 1.155,50 0,00 28/02/2015
687 267900 DENISIA DE ALMEIDA SALES OFICIAL DO MP ATIVO BELO HORIZONTE - COMARCA; CAO-CRIMINAL-SECRETARIA 4.848,98 969,80 0,00 0,00 0,00 0,00 5.818,78 741,00 605,80 0,00 1.346,80 4.471,98 2.624,97 1.156,45 28/02/2015
688 480300 DESIREE ARANTES FERREIRA GOUVEA OFICIAL DO MP ATIVO PRATÁPOLIS - COMARCA; PRATAPOLIS-PJ-UNPJ 3.694,41 221,66 0,00 0,00 0,00 0,00 3.916,07 549,21 351,90 0,00 901,11 3.014,96 685,50 1.196,40 28/02/2015
689 355300 DEYSE CRISTINA MORAIS OFICIAL DO MP ATIVO PASSOS - COMARCA; PASSOS-PJ-02PJ 5.511,94 551,19 0,00 0,00 0,00 0,00 6.063,13 666,94 657,80 0,00 1.324,74 4.738,39 685,50 0,00 28/02/2015
690 523700 DIANA CAMPOS RESENDE OFICIAL DO MP ATIVO SÃO JOÃO DEL REI - COMARCA; SAO JOAO DEL REI-PJ-04PJ 3.938,84 1.575,54 0,00 0,00 1.838,13 0,00 7.352,51 606,58 930,14 0,00 1.536,72 5.815,79 685,50 0,00 28/02/2015
691 241900 DIANA CARDOSO MARTINS OFICIAL DO MP ATIVO BELO HORIZONTE - COMARCA; CAO-DH APOIO COMUNITARIO-SEC ADM 5.691,44 1.138,29 0,00 0,00 0,00 0,00 6.829,73 751,27 845,43 0,00 1.596,70 5.233,03 685,50 0,00 28/02/2015
692 410100 DIANA GORDILHO SILVEIRA SENA ANALISTA DO MP ATIVO BELO HORIZONTE - COMARCA; ASSESS TECNICO-JUR JUNTO AS PROC. DE JUST 7.973,40 797,34 0,00 0,00 0,00 0,00 8.770,74 1.014,40 1.430,89 0,00 2.445,29 6.325,45 4.748,31 823,50 28/02/2015
693 553000 DIANA MARIA MARQUES ANALISTA DO MP ATIVO BETIM - COMARCA; BETIM-PJ-12PJ 4.548,03 0,00 0,00 0,00 0,00 0,00 4.548,03 500,28 267,35 0,00 767,63 3.780,40 685,50 0,00 28/02/2015
694 520000 DIARLE TOSTE DOS SANTOS ANALISTA DO MP ATIVO RIO POMBA - COMARCA; RIO POMBA-PJ-UNPJ 6.265,58 375,93 0,00 0,00 0,00 0,00 6.641,51 799,68 852,45 0,00 1.652,13 4.989,38 920,50 628,26 28/02/2015
695 539800 DIEGO CAMARGOS RODRIGUES OFICIAL DO MP ATIVO CONTAGEM - COMARCA; CONTAGEM-PJ-09PJ 2.952,15 0,00 0,00 0,00 0,00 0,00 2.952,15 324,74 62,98 0,00 387,72 2.564,43 685,50 0,00 28/02/2015
696 607300 DIEGO CERVEIRA DE SOUZA ANALISTA DO MP ATIVO PATOS DE MINAS - COMARCA; COORD REG BACIAS PARACATU,URUCUIA E ABAETE 4.548,03 0,00 0,00 0,00 0,00 0,00 4.548,03 547,62 375,99 0,00 923,61 3.624,42 685,50 478,13 28/02/2015
697 446900 DIEGO DE FREITAS OFICIAL DO MP ATIVO UBERABA - COMARCA; UBERABA-PJ-06PJ 3.814,70 381,47 0,00 0,00 0,00 0,00 4.196,17 461,58 237,32 0,00 698,90 3.497,27 2.363,97 125,89 28/02/2015
698 379801 DIEGO OSORIO DA SILVA CORDEIRO ANALISTA DO MP ATIVO CONSELHEIRO LAFAIETE - COMARCA; CONSELHEIRO LAFAIETE-PJ-08PJ 5.006,87 0,00 0,00 0,00 0,00 0,00 5.006,87 550,76 399,66 0,00 950,42 4.056,45 685,50 0,00 28/02/2015
699 288800 DILENE NEPOMUCENO ALVES OFICIAL DO MP ATIVO BELO HORIZONTE - COMARCA; DIRETORIA DE PESSOAL ADMINISTRATIVO - DPAD 6.578,93 1.315,79 0,00 0,00 0,00 0,00 7.894,72 868,42 1.106,08 0,00 1.974,50 5.920,22 4.517,41 351,26 28/02/2015
700 270101 DILSON DO AMARAL ANALISTA DO MP ATIVO RIO CASCA - COMARCA; RIO CASCA-PJ-UNPJ 5.006,87 0,00 0,00 0,00 0,00 0,00 5.006,87 550,76 399,66 0,00 950,42 4.056,45 685,50 0,00 28/02/2015
701 466000 DIMITRI GUDE MARCIAL ANALISTA DO MP ATIVO NANUQUE - COMARCA; NANUQUE-PJ-02PJ 6.265,58 375,93 0,00 0,00 0,00 0,00 6.641,51 730,57 749,94 0,00 1.480,51 5.161,00 1.139,38 0,00 28/02/2015
702 516300 DINORA APARECIDA MACEDO BRANDAO ANALISTA DO MP ATIVO BELO HORIZONTE - COMARCA; ASSESS JUR DO CONS SUPERIOR DO MINISTERIO PUB 5.169,86 310,19 0,00 0,00 0,00 0,00 5.480,05 602,81 515,09 0,00 1.117,90 4.362,15 685,50 0,00 28/02/2015
703 511700 DIOGENES HENRIQUES PEREIRA LOURENCO ANALISTA DO MP ATIVO CONTAGEM - COMARCA; CONTAGEM-PJ-22PJ 6.265,58 375,93 0,00 0,00 0,00 0,00 6.641,51 730,57 799,36 0,00 1.529,93 5.111,58 685,50 0,00 28/02/2015
704 604100 DIOGO CESAR DE OLIVEIRA HONORIO ASSESSOR ATIVO PIUMHI - COMARCA; PIUMHI-PJ-02PJ 0,00 0,00 2.359,08 0,00 0,00 0,00 2.359,08 421,40 62,66 0,00 484,06 1.875,02 685,50 0,00 28/02/2015
705 387800 DIOGO FELIX DA SILVA OFICIAL DO MP ATIVO CONSELHEIRO PENA - COMARCA; CONSELHEIRO PENA-PJ-01PJ 4.131,19 413,12 0,00 0,00 1.514,77 0,00 6.059,08 499,87 702,63 0,00 1.202,50 4.856,58 685,50 0,00 28/02/2015
706 259600 DIOGO MESQUITA MAIA ANALISTA DO MP ATIVO BELO HORIZONTE - COMARCA; DIRET DE APOIO AS PROCURADORIAS DE JUSTICA 9.663,38 6.764,36 0,00 0,00 0,00 0,00 16.427,74 1.807,05 3.095,70 0,00 4.902,75 11.524,99 920,50 0,00 28/02/2015
707 364100 DIOGO OLIVEIRA CANUTO OFICIAL DO MP ATIVO BELO HORIZONTE - COMARCA; EXTINTA-04ª PJ JUÍZO REG PÚBLICOS-SECRETARIA 5.691,44 569,14 0,00 0,00 0,00 0,00 6.260,58 688,66 706,13 0,00 1.394,79 4.865,79 685,50 0,00 28/02/2015
708 386700 DIRCIMAR FERNANDES CARNEIRO OFICIAL DO MP ATIVO VISCONDE DO RIO BRANCO - COMARCA; VISCONDE DO RIO BRANCO-PJ-03PJ 5.169,86 2.584,93 0,00 0,00 0,00 0,00 7.754,79 853,03 1.071,83 0,00 1.924,86 5.829,93 746,80 0,00 28/02/2015
709 113800 DIRSON APARECIDO GUIMARAES ASSESSOR ATIVO BELO HORIZONTE - COMARCA; DIVISAO DE MANUTENCAO PREDIAL 0,00 3.151,07 3.938,84 0,00 2.363,30 0,00 9.453,21 513,01 1.359,38 0,00 1.872,39 7.580,82 685,50 0,00 28/02/2015
710 216700 DOMICIO VALDETE PEREIRA OFICIAL DO MP ATIVO TEÓFILO OTONI - COMARCA; COORD REG PJ DEF EDU DIR CRIAN ADOL JEQUI MUC 8.501,02 1.700,20 0,00 0,00 0,00 0,00 10.201,22 1.122,13 1.522,34 0,00 2.644,47 7.556,75 4.748,31 372,42 28/02/2015
711 85700 DONIZETTE PEREIRA DOS SANTOS OFICIAL DO MP ATIVO BELO HORIZONTE - COMARCA; EXTINTA - PROTOCOLO DA PGJ 16.215,23 12.972,18 0,00 0,00 9.729,14 0,00 38.916,55 3.388,98 9.291,01 0,00 12.679,99 26.236,56 5.326,87 2.046,97 28/02/2015
712 192701 DONIZETTI APARECIDO AMORIM ANALISTA DO MP ATIVO PRATÁPOLIS - COMARCA; PRATAPOLIS-PJ-UNPJ 5.691,44 1.707,43 0,00 0,00 2.466,29 0,00 9.865,16 813,88 1.613,53 0,00 2.427,41 7.437,75 685,50 0,00 28/02/2015
713 558700 DORCILIA FATIMA DE OLIVEIRA OFICIAL DO MP ATIVO DIVINÓPOLIS - COMARCA; DIVINOPOLIS-PJ-02PJ 3.250,03 0,00 0,00 0,00 0,00 0,00 3.250,03 357,50 71,89 0,00 429,39 2.820,64 920,50 0,00 28/02/2015
714 555300 DOUGLAS CUNHA DE SOUZA ANALISTA DO MP ATIVO VARZEA DA PALMA - COMARCA; VARZEA DA PALMA-PJ-01PJ 5.006,87 0,00 0,00 0,00 0,00 0,00 5.006,87 550,76 399,66 0,00 950,42 4.056,45 685,50 0,00 28/02/2015
715 265900 DOUGLAS GOMES MOREIRA ANALISTA DO MP ATIVO BELO HORIZONTE - COMARCA; CENTRAL DE APOIO TECNICO-SETOR DE ENGENHARIA 10.638,28 2.127,66 0,00 0,00 0,00 0,00 12.765,94 1.404,25 2.298,31 0,00 3.702,56 9.063,38 685,50 0,00 28/02/2015
716 241000 DOUGLAS MEIRELLES DE CASTRO OFICIAL DO MP ATIVO CONCEIÇÃO DO RIO VERDE - COMARCA; CONCEICAO DO RIO VERDE-PJ-UNPJ 7.242,73 2.172,82 0,00 0,00 0,00 0,00 9.415,55 1.035,71 1.379,47 0,00 2.415,18 7.000,37 4.983,31 372,42 28/02/2015
717 534900 DOUGLAS SILVA E SOUZA ANALISTA DO MP ATIVO CAMPOS GERAIS - COMARCA; CAMPOS GERAIS-PJ-SECRETARIA 5.006,87 0,00 0,00 0,00 0,00 0,00 5.006,87 550,76 359,23 0,00 909,99 4.096,88 685,50 0,00 28/02/2015
718 630700 DOUGLAS TAVEIRA LEMOS DE OLIVEIRA ANALISTA DO MP ATIVO BELO HORIZONTE - COMARCA; BH-18PJ VIOLENCIA DOMESTICA 4.848,98 0,00 0,00 0,00 0,00 0,00 4.848,98 533,39 368,05 0,00 901,44 3.947,54 685,50 0,00 28/02/2015
719 615600 DOUGLAS URIEL SOARES MOREIRA SILVA ANALISTA DO MP ATIVO IPATINGA - COMARCA; IPATINGA-PJ-01PJ 4.404,59 0,00 0,00 0,00 0,00 0,00 4.404,59 484,50 279,06 0,00 763,56 3.641,03 685,50 0,00 28/02/2015
720 146800 DUCINALVA AMARAL LOPES REIS OFICIAL DO MP ATIVO PARAISÓPOLIS - COMARCA; PARAISOPOLIS-PJ-UNPJ 10.638,28 5.319,14 0,00 0,00 0,00 0,00 15.957,42 1.755,32 2.980,59 0,00 4.735,91 11.221,51 4.983,31 372,42 28/02/2015
721 122500 DUILIO CARLOS FERREIRA UTSCH OFICIAL DO MP ATIVO CONCEIÇÃO DO MATO DENTRO - COMARCA; CONCEICAO DO MATO DENTRO-PJ-UNPJ 8.501,02 5.950,72 0,00 0,00 0,00 0,00 14.451,74 1.589,69 2.710,91 0,00 4.300,60 10.151,14 685,50 0,00 28/02/2015
722 201800 DULCINEIA ANDRE DE SOUZA OFICIAL DO MP ATIVO JEQUITINHONHA - COMARCA; JEQUITINHONHA-PJ-SECRETARIA 8.501,02 2.550,31 0,00 0,00 0,00 0,00 11.051,33 1.215,65 1.680,98 0,00 2.896,63 8.154,70 685,50 0,00 28/02/2015
723 395800 DUVIDIER MEDIRCIO JUNIOR ANALISTA DO MP ATIVO BELO HORIZONTE - COMARCA; CENTRAL DE APOIO TECNICO-SETOR DE ENGENHARIA 8.777,78 877,78 0,00 0,00 0,00 0,00 9.655,56 1.062,11 1.537,05 0,00 2.599,16 7.056,40 685,50 0,00 28/02/2015
724 604800 ECIA RAMILIS ISSA DE ABREU ANALISTA DO MP ATIVO MONTALVÂNIA - COMARCA; MONTALVANIA-PJ-UNPJ 4.548,03 0,00 0,00 0,00 0,00 0,00 4.548,03 500,28 307,78 0,00 808,06 3.739,97 685,50 0,00 28/02/2015
725 273000 EDELFINA APARECIDA GUIMARAES OFICIAL DO MP ATIVO BELO HORIZONTE - COMARCA; PROMOT ESTADUAL DE DEF PATRI CULT E TUR DE MG 5.876,69 2.350,68 0,00 0,00 0,00 0,00 8.227,37 905,01 1.138,08 0,00 2.043,09 6.184,28 4.748,31 372,42 28/02/2015
726 523300 EDER DOS SANTOS PATRICIO ANALISTA DO MP ATIVO NOVA SERRANA - COMARCA; NOVA SERRANA-PJ-03PJ 6.068,01 364,08 0,00 0,00 0,00 0,00 6.432,09 747,58 837,21 0,00 1.584,79 4.847,30 685,50 364,08 28/02/2015
727 356700 EDER JOSE PACHECO OFICIAL DO MP ATIVO CAMPO BELO - COMARCA; CAMPO BELO-PJ-SECRETARIA 5.691,44 569,14 0,00 0,00 0,00 0,00 6.260,58 688,66 706,13 0,00 1.394,79 4.865,79 5.028,36 372,42 28/02/2015
728 507900 EDERSON SILVA LOPES OFICIAL DO MP ATIVO BELO HORIZONTE - COMARCA; SERVICO MEDICO-DEPTO PERIC MEDICA SAUDE OCUP 3.355,81 201,35 0,00 0,00 0,00 0,00 3.557,16 391,29 85,94 0,00 477,23 3.079,93 920,50 0,00 28/02/2015
729 296200 EDGARD GOULART MATOSINHO DE LAET JUNIOR ANALISTA DO MP ATIVO GOVERNADOR VALADARES - COMARCA; GOVERNADOR VALADARES-PJ-12PJ 9.663,38 1.932,68 0,00 0,00 0,00 0,00 11.596,06 1.275,57 1.863,72 0,00 3.139,29 8.456,77 685,50 0,00 28/02/2015
730 295000 EDILA MARIA DA SILVEIRA OFICIAL DO MP ATIVO FORMIGA - COMARCA; FORMIGA-PJ-SECRETARIA 5.169,86 1.033,97 0,00 0,00 0,00 0,00 6.203,83 682,42 692,24 0,00 1.374,66 4.829,17 685,50 0,00 28/02/2015
731 332300 EDILA MARILAC MIRANDA PRADO OFICIAL DO MP ATIVO DIAMANTINA - COMARCA; COORD REG BACIAS RIOS JEQUITINHONHA E MUCURI 5.691,44 2.276,58 0,00 0,00 0,00 0,00 7.968,02 876,48 1.025,18 0,00 1.901,66 6.066,36 4.590,71 357,98 28/02/2015
732 376600 EDILANE CONSOLACAO ROSA NAZARETH ANALISTA DO MP ATIVO BETIM - COMARCA; BETIM-PJ-10PJ 8.233,02 823,30 0,00 0,00 3.018,77 0,00 12.075,09 996,20 2.220,54 0,00 3.216,74 8.858,35 685,50 0,00 28/02/2015
733 301500 EDILENE APARECIDA DE CARVALHO ANALISTA DO MP ATIVO BELO HORIZONTE - COMARCA; DIRETORIA DE ADMINISTRACAO FINANCEIRA 9.663,38 1.932,68 0,00 0,00 3.865,35 0,00 15.461,41 1.275,57 3.025,54 0,00 4.301,11 11.160,30 685,50 0,00 28/02/2015
734 309800 EDILZA DOS REIS OFICIAL DO MP ATIVO UBERLÂNDIA - COMARCA; UBERLANDIA-PJ-03PJ 6.469,61 1.293,92 0,00 0,00 0,00 0,00 7.763,53 853,99 1.024,55 0,00 1.878,54 5.884,99 4.386,22 339,23 28/02/2015
735 200500 EDINEIA MARIA DE OLIVEIRA ANTUNES OFICIAL DO MP ATIVO MONTES CLAROS - COMARCA; MONTES CLAROS-PJ-10PJ 8.501,02 2.550,31 0,00 0,00 0,00 0,00 11.051,33 1.215,65 1.878,66 0,00 3.094,31 7.957,02 4.983,31 372,42 28/02/2015
736 427700 EDISANGELA SOARES LOPES OFICIAL DO MP ATIVO PIRAPORA - COMARCA; PIRAPORA-PJ-02PJ 4.131,19 413,12 0,00 0,00 0,00 0,00 4.544,31 499,87 307,04 0,00 806,91 3.737,40 685,50 0,00 28/02/2015
737 555400 EDISON MONTEIRO SAMPAIO NETO ANALISTA DO MP ATIVO BELO HORIZONTE - COMARCA; BH-12PJ JUIZO CRIMINAL-GAB 094PJ 4.548,03 0,00 0,00 0,00 0,00 0,00 4.548,03 500,28 307,78 0,00 808,06 3.739,97 685,50 0,00 28/02/2015
738 517700 EDMILSON TADEU FERNANDES OFICIAL DO MP ATIVO POUSO ALEGRE - COMARCA; POUSO ALEGRE-PJ-SECRETARIA 4.000,95 240,06 0,00 0,00 0,00 0,00 4.241,01 488,24 277,61 0,00 765,85 3.475,16 3.230,11 410,31 28/02/2015
739 358400 EDNA APARECIDA SILVA FERREIRA OFICIAL DO MP ATIVO CORONEL FABRICIANO - COMARCA; CORONEL FABRICIANO-PJ-SECRETARIA 5.691,44 569,14 0,00 0,00 0,00 0,00 6.260,58 688,66 706,13 0,00 1.394,79 4.865,79 2.883,27 201,46 28/02/2015
740 331800 EDNA MARCIA CAMILO DA SILVA OFICIAL DO MP ATIVO SETE LAGOAS - COMARCA; SETE LAGOAS-PJ-07PJ 6.068,01 606,80 0,00 0,00 0,00 0,00 6.674,81 734,23 926,02 0,00 1.660,25 5.014,56 685,50 430,96 28/02/2015
741 422800 EDNILSON DE SOUZA FERREIRA ASSESSOR ATIVO BELO HORIZONTE - COMARCA; DIRET DE INFORMACAO E EXPEDICAO DE PROCESSOS 0,00 0,00 2.359,08 0,00 786,36 0,00 3.145,44 334,90 135,46 0,00 470,36 2.675,08 685,50 0,00 28/02/2015
742 327900 EDRIEL SANTANA PEREIRA OFICIAL DO MP ATIVO TUPACIGUARA - COMARCA; TUPACIGUARA-PJ-UNPJ 6.068,01 606,80 0,00 0,00 0,00 0,00 6.674,81 734,23 807,51 0,00 1.541,74 5.133,07 4.983,31 372,42 28/02/2015
743 482400 EDSON GARCIA OFICIAL DO MP ATIVO MACHADO - COMARCA; MACHADO-PJ-02PJ 3.355,81 201,35 0,00 0,00 0,00 0,00 3.557,16 391,29 85,94 0,00 477,23 3.079,93 685,50 0,00 28/02/2015
744 225601 EDSON LABRE FILHO ANALISTA DO MP ATIVO VARGINHA - COMARCA; VARGINHA-PJ-01PJ 9.663,38 1.932,68 0,00 0,00 0,00 0,00 11.596,06 1.275,57 1.962,56 0,00 3.238,13 8.357,93 4.748,31 372,42 28/02/2015
745 602700 EDSON NOGUEIRA BUENO OFICIAL DO MP ATIVO PITANGUI - COMARCA; PITANGUI-PJ-02PJ 2.952,15 0,00 0,00 0,00 0,00 0,00 2.952,15 324,74 62,98 0,00 387,72 2.564,43 685,50 0,00 28/02/2015
746 414400 EDUARDO ABRANTES CAMPOS ANALISTA DO MP ATIVO OLIVEIRA - COMARCA; OLIVEIRA-PJ-02PJ 7.973,40 797,34 0,00 0,00 0,00 0,00 8.770,74 964,78 1.320,49 0,00 2.285,27 6.485,47 685,50 0,00 28/02/2015
747 476800 EDUARDO ALVES DE MOURA ANALISTA DO MP ATIVO UBERLÂNDIA - COMARCA; UBERLANDIA-PJ-19PJ 6.793,15 407,59 0,00 0,00 0,00 0,00 7.200,74 976,62 1.111,13 0,00 2.087,75 5.112,99 1.267,35 1.687,91 28/02/2015
748 390800 EDUARDO AMORIM PETTERSEN OFICIAL DO MP ATIVO CARANGOLA - COMARCA; CARANGOLA-PJ-03PJ 5.006,87 500,69 0,00 0,00 0,00 0,00 5.507,56 605,83 521,83 0,00 1.127,66 4.379,90 4.871,19 372,42 28/02/2015
749 633200 EDUARDO ANTONIO CODO SANTOS ASSESSOR ATIVO BELO HORIZONTE - COMARCA; ASSESSORIA ESPECIAL FINANCEIRA DO PGJAA 0,00 9.469,83 18.939,65 0,00 0,00 0,00 28.409,48 3.020,61 9.660,12 0,00 12.680,73 15.728,75 685,50 15.747,21 28/02/2015
750 461600 EDUARDO ANTONIO DE ASSIS FARIA ASSESSOR ATIVO BELO HORIZONTE - COMARCA; ASSESS EXECUTIVA DO CONSELHO SUPERIOR DO MP 0,00 0,00 3.938,84 0,00 0,00 0,00 3.938,84 508,68 282,63 0,00 791,31 3.147,53 685,50 0,00 28/02/2015
751 248800 EDUARDO DE CASTRO AMORIM ANALISTA DO MP ATIVO BELO HORIZONTE - COMARCA; BH-01PJ FAZENDA PUBLICA EXEC FISCAIS 11.342,29 2.268,46 0,00 0,00 0,00 0,00 13.610,75 1.497,18 2.505,08 0,00 4.002,26 9.608,49 4.748,31 372,42 28/02/2015
752 209100 EDUARDO DE SOUZA MAIA ANALISTA DO MP ATIVO BELO HORIZONTE - COMARCA; CAO-TS-TERCEIRO SETOR-ASSESSORIA JURIDICA 11.885,64 3.565,69 0,00 0,00 0,00 0,00 15.451,33 1.699,65 2.807,30 0,00 4.506,95 10.944,38 685,50 0,00 28/02/2015
753 633900 EDUARDO GONCALVES PIRES OFICIAL DO MP ATIVO BELO HORIZONTE - COMARCA; BH-19PJ SAUDE-SECRETARIA 150PJ 2.859,08 0,00 0,00 0,00 0,00 0,00 2.859,08 356,43 97,55 0,00 453,98 2.405,10 716,66 381,21 28/02/2015
754 350500 EDUARDO GONCALVES RIBEIRO OFICIAL DO MP ATIVO VESPASIANO - COMARCA; VESPASIANO-PJ-04PJ 4.696,06 469,61 0,00 0,00 0,00 0,00 5.165,67 568,22 438,15 0,00 1.006,37 4.159,30 4.748,31 372,42 28/02/2015
755 115800 EDUARDO HENRIQUE DE CAMPOS MAIA OFICIAL DO MP ATIVO BELO HORIZONTE - COMARCA; EXTINTA - DIVISAO DE SERVICOS GERAIS 9.663,38 3.865,35 0,00 0,00 0,00 0,00 13.528,73 1.488,16 2.386,17 0,00 3.874,33 9.654,40 685,50 0,00 28/02/2015
756 392600 EDUARDO HENRIQUE DOS SANTOS COSTA ELIAZAR OFICIAL DO MP ATIVO MATOZINHOS - COMARCA; MATOZINHOS-PJ-02PJ 4.848,98 484,90 0,00 0,00 0,00 0,00 5.333,88 586,73 343,84 0,00 930,57 4.403,31 5.471,31 304,71 28/02/2015
757 122900 EDUARDO JOSE COSTA SILVA OFICIAL DO MP ATIVO SETE LAGOAS - COMARCA; SETE LAGOAS-PJ-04PJ 12.845,44 8.991,80 0,00 0,00 0,00 0,00 21.837,24 2.402,10 4.518,51 0,00 6.920,61 14.916,63 685,50 0,00 28/02/2015
758 418700 EDUARDO LEMOS SIMOES OFICIAL DO MP ATIVO LAVRAS - COMARCA; COORD REG DO MA DA BACIA DO RIO GRANDE 4.848,98 484,90 0,00 0,00 0,00 0,00 5.333,88 768,81 671,71 0,00 1.440,52 3.893,36 4.748,31 2.138,02 28/02/2015
759 407500 EDUARDO MASCARENHAS CURI AZEVEDO ANALISTA DO MP ATIVO BELO HORIZONTE - COMARCA; DIRETORIA DE IMPRENSA 7.014,37 701,44 0,00 0,00 0,00 0,00 7.715,81 848,74 1.062,29 0,00 1.911,03 5.804,78 685,50 0,00 28/02/2015
760 601300 EDUARDO TRAD VIEIRA OFICIAL DO MP ATIVO RIBEIRÃO DAS NEVES - COMARCA; RIBEIRAO DAS NEVES-PJ-01PJ 2.952,15 0,00 0,00 0,00 0,00 0,00 2.952,15 324,74 62,98 0,00 387,72 2.564,43 920,50 0,00 28/02/2015
761 257600 EDUARDO VALADARES CABRAL ANALISTA DO MP ATIVO BELO HORIZONTE - COMARCA; PROCON-MG-GAB DO COORDENADOR DO PROCON-MG 9.063,59 1.812,72 0,00 0,00 0,00 0,00 10.876,31 1.196,39 1.835,83 0,00 3.032,22 7.844,09 685,50 0,00 28/02/2015
762 545700 EDVAIR FERREIRA DE CARVALHO OFICIAL DO MP ATIVO ARAGUARI - COMARCA; ARAGUARI-PJ-06PJ 2.952,15 0,00 0,00 0,00 0,00 0,00 2.952,15 324,74 22,54 0,00 347,28 2.604,87 685,50 0,00 28/02/2015
763 401700 EDWANIA AMORIM DO CARMO OFICIAL DO MP ATIVO RIBEIRÃO DAS NEVES - COMARCA; RIBEIRAO DAS NEVES-PJ-03PJ 5.169,86 516,99 0,00 0,00 0,00 0,00 5.686,85 625,55 565,71 0,00 1.191,26 4.495,59 4.097,61 312,78 28/02/2015
764 303600 EFIGENIO SARAIVA LOPES ANALISTA DO MP ATIVO BELO HORIZONTE - COMARCA; DIRETORIA DE PAGAMENTO DE PESSOAL-DPAG 10.638,28 2.127,66 0,00 0,00 0,00 0,00 12.765,94 1.404,25 2.199,47 0,00 3.603,72 9.162,22 685,50 0,00 28/02/2015
765 312000 ELAINE APARECIDA DE ARAUJO RODRIGUES ASSESSOR/OFICIAL ATIVO DIVINÓPOLIS - COMARCA; DIVINOPOLIS-PJ-02PJ 0,00 4.385,91 6.265,58 0,00 0,00 1.098,94 11.750,43 1.098,94 2.556,32 0,00 3.655,26 8.095,17 685,50 1.648,41 28/02/2015
766 286000 ELAINE APARECIDA SILVA BERZOINI OFICIAL DO MP ATIVO JUIZ DE FORA - COMARCA; JUIZ DE FORA-PJ-07PJ 6.578,93 1.315,79 0,00 0,00 0,00 0,00 7.894,72 868,42 1.106,08 0,00 1.974,50 5.920,22 685,50 0,00 28/02/2015
767 509000 ELAINE CANDIDA PONTES OFICIAL DO MP ATIVO BELO HORIZONTE - COMARCA; BH-02PJ FAMILIA-SECRETARIA 3.694,41 221,66 0,00 0,00 0,00 0,00 3.916,07 430,77 187,77 0,00 618,54 3.297,53 685,50 0,00 28/02/2015
768 283601 ELAINE CRISTINA MEQUELINO DUARTE ANALISTA DO MP ATIVO ALFENAS - COMARCA; ALFENAS-PJ-04PJ 8.233,02 823,30 0,00 0,00 0,00 0,00 9.056,32 996,20 1.291,54 0,00 2.287,74 6.768,58 1.155,50 0,00 28/02/2015
769 535500 ELAINE DE OLIVEIRA CAMPOS REIS OFICIAL DO MP ATIVO RIBEIRÃO DAS NEVES - COMARCA; RIBEIRAO DAS NEVES-PJ-11PJ 2.952,15 0,00 0,00 0,00 0,00 0,00 2.952,15 324,74 62,98 0,00 387,72 2.564,43 920,50 0,00 28/02/2015
770 455700 ELAINE DE OLIVEIRA CASTRO ANALISTA DO MP ATIVO POMPÉU - COMARCA; POMPEU-PJ-UNPJ 6.265,58 375,93 0,00 0,00 0,00 0,00 6.641,51 730,57 749,94 0,00 1.480,51 5.161,00 685,50 0,00 28/02/2015
771 367200 ELAINE MUNIZ BARBOSA ANALISTA DO MP ATIVO BELO HORIZONTE - COMARCA; DIRETORIA DE REDES E BANCOS DE DADOS 8.501,02 850,10 0,00 0,00 0,00 0,00 9.351,12 1.028,62 1.462,54 0,00 2.491,16 6.859,96 685,50 0,00 28/02/2015
772 176900 ELAINE RIBEIRO TAVEIRA OFICIAL DO MP ATIVO BELO HORIZONTE - COMARCA; DIRETORIA DE PESSOAL ADMINISTRATIVO - DPAD 7.478,49 2.243,55 0,00 0,00 0,00 0,00 9.722,04 1.069,42 1.553,32 0,00 2.622,74 7.099,30 4.748,31 372,42 28/02/2015
773 496200 ELAINE SABRINA DIAS MOREIRA ANALISTA DO MP ATIVO CORONEL FABRICIANO - COMARCA; CORONEL FABRICIANO-PJ-03PJ 6.265,58 375,93 0,00 0,00 0,00 0,00 6.641,51 730,57 799,36 0,00 1.529,93 5.111,58 685,50 0,00 28/02/2015
774 489200 ELAINE VICENTINO GARCIA ANALISTA DO MP ATIVO BELO HORIZONTE - COMARCA; CENTRAL DE APOIO TECNICO-SETOR CONTABIL 6.265,58 1.253,12 0,00 0,00 2.506,23 0,00 10.024,93 827,06 1.604,42 0,00 2.431,48 7.593,45 1.155,50 0,00 28/02/2015
775 244500 ELCI ALVES DE SOUZA ASSESSOR ATIVO BELO HORIZONTE - COMARCA; CAO-CONFLITOS AGRARIOS-SECRETARIA 0,00 787,77 3.938,84 0,00 0,00 0,00 4.726,61 513,01 471,68 0,00 984,69 3.741,92 685,50 0,00 28/02/2015
776 472500 ELCI VAZ DE OLIVEIRA FILHO ANALISTA DO MP ATIVO PIUMHI - COMARCA; PIUMHI-PJ-02PJ 6.793,15 2.717,26 0,00 0,00 0,00 0,00 9.510,41 1.046,15 1.501,52 0,00 2.547,67 6.962,74 685,50 0,00 28/02/2015
777 385200 ELCI VIANA REIS OFICIAL DO MP ATIVO RIO PARDO DE MINAS - COMARCA; RIO PARDO DE MINAS-PJ-SECRETARIA 5.169,86 1.550,96 0,00 0,00 0,00 0,00 6.720,82 739,29 818,77 0,00 1.558,06 5.162,76 685,50 0,00 28/02/2015
778 289801 ELCIO JOSE DOS SANTOS ASSESSOR/ANALISTA ATIVO BELO HORIZONTE - COMARCA; EXTINTA - DIVISAO DE SERVICOS GERAIS 0,00 526,67 8.777,78 0,00 0,00 0,00 9.304,45 792,08 1.514,75 0,00 2.306,83 6.997,62 685,50 0,00 28/02/2015
779 123000 ELCIO VILHENA DE FARIA OFICIAL DO MP ATIVO BELO HORIZONTE - COMARCA; DIVISAO DE MEMORIA INSTITUCIONAL 12.845,44 10.276,35 0,00 0,00 0,00 2.543,40 25.665,19 2.543,40 5.532,34 0,00 8.075,74 17.589,45 685,50 0,00 28/02/2015
780 503200 ELDER GOMES DUTRA ANALISTA DO MP ATIVO IGARAPÉ - COMARCA; IGARAPE-PJ-03PJ 6.265,58 375,93 0,00 0,00 2.213,84 0,00 8.855,35 730,57 1.408,16 0,00 2.138,73 6.716,62 685,50 0,00 28/02/2015
781 319600 ELEN TULER DE ALBERGARIA ANALISTA DO MP ATIVO BELO HORIZONTE - COMARCA; BH-19PJ SAUDE 8.501,02 2.550,31 0,00 0,00 3.683,78 0,00 14.735,11 1.215,65 2.891,70 0,00 4.107,35 10.627,76 1.155,50 0,00 28/02/2015
782 333100 ELENILDA ROCHA DE MORAES MELO OFICIAL DO MP ATIVO MAR DE ESPANHA - COMARCA; MAR DE ESPANHA-PJ-SECRETARIA 4.696,06 469,61 0,00 0,00 0,00 0,00 5.165,67 568,22 391,03 0,00 959,25 4.206,42 685,50 0,00 28/02/2015
783 151000 ELI LOURENCO RIBEIRO AGENTE DO MP ATIVO BELO HORIZONTE - COMARCA; BH-17PJ PATRIMONIO PUBLICO-SECRETARIA 7.014,37 2.805,75 0,00 0,00 0,00 0,00 9.820,12 1.080,21 1.183,38 0,00 2.263,59 7.556,53 685,50 0,00 28/02/2015
784 205500 ELIANA ALVES DE SOUSA OFICIAL DO MP ATIVO GOVERNADOR VALADARES - COMARCA; GOVERNADOR VALADARES-PJ-07PJ 5.876,69 1.763,01 0,00 0,00 0,00 0,00 7.639,70 840,37 1.043,67 0,00 1.884,04 5.755,66 685,50 0,00 28/02/2015
785 628800 ELIANA APARECIDA PEREIRA ANALISTA DO MP ATIVO CAMBUÍ - COMARCA; CAMBUI-PJ-02PJ 4.404,59 0,00 0,00 0,00 0,00 0,00 4.404,59 484,50 279,06 0,00 763,56 3.641,03 685,50 0,00 28/02/2015
786 301700 ELIANA DA SILVEIRA ANALISTA DO MP ATIVO BELO HORIZONTE - COMARCA; ASSESS TECNICO-JUR JUNTO AS PROC. DE JUST 9.358,72 1.871,74 0,00 0,00 0,00 0,00 11.230,46 1.235,35 1.922,51 0,00 3.157,86 8.072,60 4.748,31 372,42 28/02/2015
787 103400 ELIANA DE FARIA MORAIS JOTTA OFICIAL DO MP ATIVO BELO HORIZONTE - COMARCA; DIRET DE PESSOAL DO MINISTERIO PUBLICO - DPMP 18.939,65 9.469,83 0,00 0,00 0,00 0,00 28.409,48 3.125,04 5.978,81 0,00 9.103,85 19.305,63 4.748,31 372,42 28/02/2015
788 251500 ELIANA DE LIMA MILAGRES FONSECA ANALISTA DO MP ATIVO CONTAGEM - COMARCA; CONTAGEM-PJ-06PJ 9.358,72 1.871,74 0,00 0,00 0,00 0,00 11.230,46 1.235,35 1.823,66 0,00 3.059,01 8.171,45 4.748,31 372,42 28/02/2015
789 503900 ELIANA DIAS DUTRA FERREIRA OFICIAL DO MP ATIVO GOVERNADOR VALADARES - COMARCA; GOVERNADOR VALADARES-PJ-10PJ 4.000,95 240,06 0,00 0,00 0,00 0,00 4.241,01 466,51 177,23 0,00 643,74 3.597,27 920,50 0,00 28/02/2015
790 413900 ELIANA PINTO DE OLIVEIRA NEVES ANALISTA DO MP ATIVO CAMPO BELO - COMARCA; CAMPO BELO-PJ-03PJ 7.721,95 772,20 0,00 0,00 0,00 0,00 8.494,15 934,36 1.252,79 0,00 2.187,15 6.307,00 685,50 0,00 28/02/2015
791 228200 ELIANA RODRIGUES DA CUNHA PINHEIRO DIRETOR/OFICIAL ATIVO BELO HORIZONTE - COMARCA; SUPERINTENDÊNCIA DE ENGENHARIA E ARQUITETURA 0,00 2.670,79 13.353,95 0,00 0,00 956,04 16.980,78 956,04 3.580,65 0,00 4.536,69 12.444,09 4.748,31 372,42 28/02/2015
792 386600 ELIANA SABINO CHAVES ANALISTA DO MP ATIVO CARATINGA - COMARCA; CARATINGA-PJ-06PJ 7.973,40 3.986,70 0,00 0,00 0,00 0,00 11.960,10 1.315,61 2.051,66 0,00 3.367,27 8.592,83 685,50 0,00 28/02/2015
793 297400 ELIANE AUGUSTA RIBEIRO COSTA ANALISTA DO MP ATIVO CONSELHEIRO LAFAIETE - COMARCA; CONSELHEIRO LAFAIETE-PJ-05PJ 9.977,95 1.995,59 0,00 0,00 0,00 0,00 11.973,54 1.317,09 1.956,11 0,00 3.273,20 8.700,34 685,50 0,00 28/02/2015
794 510600 ELIANE CAROLINA MAIA ANALISTA DO MP ATIVO IGARAPÉ - COMARCA; IGARAPE-PJ-01PJ 5.691,44 341,49 0,00 0,00 0,00 0,00 6.032,93 663,62 452,73 0,00 1.116,35 4.916,58 3.125,62 180,59 28/02/2015
795 269300 ELIANE EDLAMAR ROCHA OFICIAL DO MP ATIVO PEDRO LEOPOLDO - COMARCA; PEDRO LEOPOLDO-PJ-02PJ 6.265,58 1.253,12 0,00 0,00 0,00 0,00 7.518,70 827,06 964,63 0,00 1.791,69 5.727,01 920,50 0,00 28/02/2015
796 359100 ELIANE FARIAS DE OLIVEIRA ASSESSOR ATIVO BELO HORIZONTE - COMARCA; EXTINTA-TUTELA DAS FUNDACOES-21 PJ- GABINETE 0,00 0,00 2.359,08 0,00 0,00 0,00 2.359,08 334,90 71,42 0,00 406,32 1.952,76 685,50 0,00 28/02/2015
797 262600 ELIANE FERREIRA SOARES ASSESSOR ATIVO BELO HORIZONTE - COMARCA; BH-18PJ DIREITOS HUMANOS-SECRETARIA 0,00 1.181,65 3.938,84 0,00 0,00 0,00 5.120,49 513,01 580,00 0,00 1.093,01 4.027,48 920,50 0,00 28/02/2015
798 204400 ELIANE GLAUCE DE QUEIROS MAIA OFICIAL DO MP ATIVO GUANHÃES - COMARCA; GUANHAES-PJ-01PJ 8.501,02 2.550,31 0,00 0,00 3.683,78 0,00 14.735,11 1.215,65 2.891,70 0,00 4.107,35 10.627,76 685,50 0,00 28/02/2015
799 91800 ELIANE KAPLER COORDENADOR/OFICIAL ATIVO BELO HORIZONTE - COMARCA; DIRET DE CONTROLE E DE MANUTENCAO DE IMOVEIS 11.711,44 6.951,20 0,00 0,00 0,00 0,00 18.662,64 1.803,56 3.711,26 0,00 5.514,82 13.147,82 1.155,50 0,00 28/02/2015
800 334200 ELIANE MARCIA DE OLIVEIRA BRITO OFICIAL DO MP ATIVO BELO HORIZONTE - COMARCA; BH-08PJ JUIZADO ESPECIAL-SECRETARIA 4.696,06 469,61 0,00 0,00 0,00 0,00 5.165,67 568,22 438,15 0,00 1.006,37 4.159,30 685,50 0,00 28/02/2015
801 365900 ELIANE MARIA DE OLIVEIRA FERREIRA OFICIAL DO MP ATIVO SETE LAGOAS - COMARCA; SETE LAGOAS-PJ-11PJ 5.876,69 2.350,68 0,00 0,00 0,00 0,00 8.227,37 905,01 1.187,50 0,00 2.092,51 6.134,86 685,50 0,00 28/02/2015
802 320600 ELIANE STADLER DE SOUZA OFICIAL DO MP ATIVO FRANCISCO SÁ - COMARCA; FRANCISCO SA-PJ-SECRETARIA 5.691,44 569,14 0,00 0,00 0,00 0,00 6.260,58 688,66 656,71 0,00 1.345,37 4.915,21 685,50 0,00 28/02/2015
803 448900 ELIAS PEREIRA OTONI ASSESSOR ATIVO BELO HORIZONTE - COMARCA; EXTINTA - DIVISAO DE TRANSPORTES 0,00 0,00 3.938,84 0,00 0,00 0,00 3.938,84 508,68 242,19 0,00 750,87 3.187,97 685,50 0,00 28/02/2015
804 495400 ELICA SOUZA GASPARONI MATTOS OFICIAL DO MP ATIVO UBÁ - COMARCA; UBA-PJ-SECRETARIA 4.000,95 240,06 0,00 0,00 0,00 0,00 4.241,01 466,51 246,30 0,00 712,81 3.528,20 920,50 0,00 28/02/2015
805 86600 ELIENE FERREIRA DA SILVA OFICIAL DO MP ATIVO BELO HORIZONTE - COMARCA; BH-22PJ PES COM DEF E IDOSOS 16.215,23 8.107,62 0,00 0,00 0,00 0,00 24.322,85 2.675,51 4.978,61 0,00 7.654,12 16.668,73 5.218,31 372,42 28/02/2015
806 183800 ELIENE MARIA CUNHA OFICIAL DO MP ATIVO BELO HORIZONTE - COMARCA; DIRETORIA DE PESSOAL ADMINISTRATIVO - DPAD 9.358,72 2.807,62 0,00 0,00 0,00 0,00 12.166,34 1.338,30 2.102,14 0,00 3.440,44 8.725,90 4.748,31 372,42 28/02/2015
807 172300 ELINA APARECIDA SILVA ASSESSOR ATIVO BELO HORIZONTE - COMARCA; BH-19PJ SAUDE-SECRETARIA 130PJ 0,00 707,72 2.359,08 0,00 0,00 0,00 3.066,80 412,75 111,99 0,00 524,74 2.542,06 920,50 0,00 28/02/2015
808 492501 ELINE CAMPOS DA FONSECA CUNHA ANALISTA DO MP ATIVO JEQUERI - COMARCA; JEQUERI-PJ-UNPJ 4.404,59 264,28 0,00 0,00 0,00 0,00 4.668,87 513,58 331,98 0,00 845,56 3.823,31 920,50 0,00 28/02/2015
809 618900 ELISA MOURA VIEIRA MARCATTI OFICIAL DO MP ATIVO BELO HORIZONTE - COMARCA; BH-23PJ CIVEL-SEC EXP CIVEIS 2.859,08 0,00 0,00 0,00 0,00 0,00 2.859,08 314,50 56,76 0,00 371,26 2.487,82 685,50 0,00 28/02/2015
810 256500 ELISABETE NOGUEIRA ANALISTA DO MP ATIVO BELO HORIZONTE - COMARCA; BH-21PJ TUTELA DAS FUNDACOES-ASS CURADORES 9.063,59 3.625,44 0,00 0,00 0,00 0,00 12.689,03 1.395,79 2.131,23 0,00 3.527,02 9.162,01 5.218,31 372,42 28/02/2015
811 355000 ELISANGELA DARLANTONI RIBEIRO OFICIAL DO MP ATIVO ARAXÁ - COMARCA; ARAXA-PJ-05PJ 4.848,98 484,90 0,00 0,00 0,00 0,00 5.333,88 679,24 527,66 0,00 1.206,90 4.126,98 2.594,78 1.029,05 28/02/2015
812 604400 ELISANGELA DEMASI FERREIRA MOREIRA ANALISTA DO MP ATIVO CAXAMBU - COMARCA; CAXAMBU-PJ-UNPJ 5.006,87 0,00 0,00 0,00 0,00 0,00 5.006,87 602,86 476,57 0,00 1.079,43 3.927,44 920,50 526,30 28/02/2015
813 323800 ELISANGELA GONCALVES DE JESUS OFICIAL DO MP ATIVO BELO HORIZONTE - COMARCA; BH-09PJ AUDITORIA MILITAR-SECRETARIA 4.848,98 484,90 0,00 0,00 0,00 0,00 5.333,88 679,24 577,08 0,00 1.256,32 4.077,56 685,50 897,12 28/02/2015
814 261400 ELISANGELA MENDES OFICIAL DO MP ATIVO POUSO ALEGRE - COMARCA; POUSO ALEGRE-PJ-05PJ 6.265,58 1.253,12 0,00 0,00 0,00 0,00 7.518,70 827,06 1.014,05 0,00 1.841,11 5.677,59 685,50 0,00 28/02/2015
815 507400 ELISANGELA MIGUEL DA ROCHA ASSESSOR ATIVO BELO HORIZONTE - COMARCA; CGMP-DIVIS DE APOIO FISC ORIENTACAO FUNCIONAL 0,00 0,00 2.359,08 0,00 0,00 0,00 2.359,08 334,90 71,42 0,00 406,32 1.952,76 685,50 0,00 28/02/2015
816 534100 ELISANGELA ROSINE SILVA OFICIAL DO MP ATIVO UBERABA - COMARCA; UBERABA-PJ-06PJ 2.952,15 0,00 0,00 0,00 0,00 0,00 2.952,15 324,74 62,98 0,00 387,72 2.564,43 685,50 0,00 28/02/2015
817 461700 ELIZABETH ALEIXO DA PAZ ANALISTA DO MP ATIVO JUIZ DE FORA - COMARCA; JUIZ DE FORA-PJ-24PJ 6.793,15 407,59 0,00 0,00 0,00 0,00 7.200,74 792,08 936,23 0,00 1.728,31 5.472,43 685,50 0,00 28/02/2015
818 198100 ELIZABETH CARDOSO CAMPOS OFICIAL DO MP ATIVO PIUMHI - COMARCA; PIUMHI-PJ-02PJ 7.973,40 6.378,72 0,00 0,00 0,00 1.578,73 15.930,85 1.578,73 3.071,26 0,00 4.649,99 11.280,86 685,50 0,00 28/02/2015
819 227300 ELIZABETH COIMBRA FELIX COORDENADOR/OFICIAL ATIVO BELO HORIZONTE - COMARCA; DIRETORIA DE PAGAMENTO DE PESSOAL-DPAG 7.973,40 4.204,74 0,00 0,00 0,00 0,00 12.178,14 1.140,20 2.061,02 0,00 3.201,22 8.976,92 4.748,31 372,42 28/02/2015
820 354800 ELIZABETH DOS REIS OFICIAL DO MP ATIVO BELO HORIZONTE - COMARCA; EXTINTA - DIVISÃO DE MATERIAL PERMANENTE 5.876,69 587,67 0,00 0,00 0,00 0,00 6.464,36 711,08 706,58 0,00 1.417,66 5.046,70 685,50 0,00 28/02/2015
821 612000 ELIZABETH MARIA DE QUEIROZ TANIGUCHI OFICIAL DO MP ATIVO BELO HORIZONTE - COMARCA; DIRET DE DESENV DE RECURSOS HUMANOS-DDRH 2.859,08 0,00 0,00 0,00 0,00 0,00 2.859,08 314,50 56,76 0,00 371,26 2.487,82 685,50 0,00 28/02/2015
822 452800 ELIZANGELA MARIA DAVI OFICIAL DO MP ATIVO ARCOS - COMARCA; ARCOS-PJ-01PJ 3.694,41 221,66 0,00 0,00 0,00 0,00 3.916,07 430,77 160,81 0,00 591,58 3.324,49 1.155,50 0,00 28/02/2015
823 496300 ELIZANGELA MARQUES PINTO COELHO OFICIAL DO MP ATIVO BELO HORIZONTE - COMARCA; DIRETORIA DE PESSOAL ADMINISTRATIVO - DPAD 4.000,95 240,06 0,00 0,00 0,00 0,00 4.241,01 466,51 246,30 0,00 712,81 3.528,20 1.098,70 13,37 28/02/2015
824 422500 ELIZETE FORTES DA CUNHA ANALISTA DO MP ATIVO RIBEIRÃO DAS NEVES - COMARCA; RIBEIRAO DAS NEVES-PJ-07PJ 7.973,40 797,34 0,00 0,00 0,00 0,00 8.770,74 1.544,99 1.884,16 0,00 3.429,15 5.341,59 920,50 5.626,29 28/02/2015
825 506100 ELLEM CRISTINA ROCHA FONSECA BOWEN ANALISTA DO MP ATIVO GOVERNADOR VALADARES - COMARCA; COORD REG PJ DEF EDU DIR CRIANCA ADOL RIODOCE 6.265,58 375,93 0,00 0,00 0,00 0,00 6.641,51 730,57 799,36 0,00 1.529,93 5.111,58 1.625,50 0,00 28/02/2015
826 468200 ELLEN CRISTINA BERNARDES DARE ANALISTA DO MP ATIVO TRÊS PONTAS - COMARCA; TRES PONTAS-PJ-02PJ 6.793,15 407,59 0,00 0,00 0,00 0,00 7.200,74 792,08 886,81 0,00 1.678,89 5.521,85 685,50 0,00 28/02/2015
827 418800 ELLEN CRISTINA DE QUEIROZ FERREIRA ANALISTA DO MP ATIVO BELO HORIZONTE - COMARCA; CENTRAL DE APOIO TECNICO-SETOR CONTABIL 7.721,95 772,20 0,00 0,00 0,00 0,00 8.494,15 934,36 1.252,79 0,00 2.187,15 6.307,00 685,50 0,00 28/02/2015
828 328401 ELLEN CRISTINA FERREIRA MORAIS MONTEIRO ANALISTA DO MP ATIVO CAMANDUCAIA - COMARCA; CAMANDUCAIA-PJ-UNPJ 7.014,37 701,44 0,00 0,00 0,00 0,00 7.715,81 848,74 963,45 0,00 1.812,19 5.903,62 920,50 0,00 28/02/2015
829 556100 ELLEN CRISTINE BIANCHIN DA SILVA OFICIAL DO MP ATIVO SÃO GONÇALO DO SAPUCAÍ - COMARCA; SAO GONCALO DO SAPUCAI-PJ-02PJ 2.952,15 0,00 0,00 0,00 0,00 0,00 2.952,15 324,74 22,54 0,00 347,28 2.604,87 1.866,36 29,52 28/02/2015
830 447100 ELLEN ROSANA DE MACEDO BORGES OFICIAL DO MP ATIVO UBERLÂNDIA - COMARCA; UBERLANDIA-PJ-17PJ 4.848,98 484,90 0,00 0,00 0,00 0,00 5.333,88 672,08 592,04 0,00 1.264,12 4.069,76 2.150,53 974,78 28/02/2015
831 477700 ELMA JACOB OFICIAL DO MP ATIVO BELO HORIZONTE - COMARCA; COORD DE GABINETE DO PGJ 4.404,59 2.202,30 0,00 0,00 0,00 0,00 6.606,89 726,76 790,89 0,00 1.517,65 5.089,24 685,50 0,00 28/02/2015
832 123300 ELMA PAULA DOS SANTOS COELHO OFICIAL DO MP ATIVO BELO HORIZONTE - COMARCA; BH-19PJ SAUDE-SECRETARIA 130PJ 10.638,28 8.510,62 0,00 0,00 6.382,97 2.106,38 27.638,25 2.106,38 6.195,11 0,00 8.301,49 19.336,76 685,50 0,00 28/02/2015
833 356500 ELOISA CARDOSO SILVA FRANCA OFICIAL DO MP ATIVO PEÇANHA - COMARCA; PECANHA-PJ-SECRETARIA 4.696,06 469,61 0,00 0,00 0,00 0,00 5.165,67 568,22 310,16 0,00 878,38 4.287,29 685,50 0,00 28/02/2015
834 251901 ELOISA COSTA E SILVA ANALISTA DO MP ATIVO SANTOS DUMONT - COMARCA; SANTOS DUMONT-PJ-02PJ 6.265,58 1.253,12 0,00 0,00 0,00 0,00 7.518,70 827,06 1.014,05 0,00 1.841,11 5.677,59 685,50 0,00 28/02/2015
835 400400 ELOIZA MARIA FERRI PIRES DA SILVA OFICIAL DO MP ATIVO BELO HORIZONTE - COMARCA; EXTINTA - DIRETORIA DE COMPRAS E LICITAÇÕES 4.848,98 484,90 0,00 0,00 0,00 0,00 5.333,88 787,54 591,95 0,00 1.379,49 3.954,39 685,50 1.825,50 28/02/2015
836 258000 ELSO CECIANO PALMEIRA ASSESSOR/OFICIAL ATIVO BELO HORIZONTE - COMARCA; DIRET DE PESSOAL DO MINISTERIO PUBLICO - DPMP 0,00 3.986,70 7.973,40 0,00 0,00 0,00 11.960,10 1.120,87 2.055,80 0,00 3.176,67 8.783,43 4.748,31 372,42 28/02/2015
837 206900 ELVIRA RITA DOS SANTOS ANALISTA DO MP ATIVO BELO HORIZONTE - COMARCA; CENTRAL DE APOIO TECNICO-SETOR CONTABIL 13.882,65 4.164,80 0,00 0,00 6.015,82 0,00 24.063,27 1.985,22 5.245,31 0,00 7.230,53 16.832,74 685,50 0,00 28/02/2015
838 506800 ELVIS FERREIRA DA SILVA ANALISTA DO MP ATIVO BELO HORIZONTE - COMARCA; DIRETORIA DE SISTEMAS DE INFORMACAO 6.265,58 375,93 0,00 0,00 0,00 0,00 6.641,51 730,57 749,94 0,00 1.480,51 5.161,00 3.264,20 236,38 28/02/2015
839 154300 ELZA MARIA DA SILVA OFICIAL DO MP ATIVO ERVÁLIA - COMARCA; ERVALIA-PJ-SECRETARIA 7.721,95 6.177,57 0,00 0,00 0,00 1.625,36 15.524,88 1.673,57 3.277,42 0,00 4.950,99 10.573,89 685,50 1.508,98 28/02/2015
840 602400 ELZA MARIA MOREIRA MUNIZ ANALISTA DO MP ATIVO CARMO DO PARANAÍBA - COMARCA; CARMO DO PARANAIBA-PJ-02PJ 5.006,87 0,00 0,00 0,00 0,00 0,00 5.006,87 550,76 399,66 0,00 950,42 4.056,45 685,50 0,00 28/02/2015
841 368401 ELZIRA SIMOES DOS SANTOS ASSESSOR ATIVO BELO HORIZONTE - COMARCA; DIRETORIA DE RELACOES PUBLICAS E CERIMONIAL 0,00 1.755,56 8.777,78 0,00 0,00 0,00 10.533,34 513,01 2.117,95 0,00 2.630,96 7.902,38 685,50 0,00 28/02/2015
842 437400 EMANOELLE DA SILVA RODRIGUES OFICIAL DO MP ATIVO UNAÍ - COMARCA; UNAI-PJ-03PJ 4.848,98 484,90 0,00 0,00 0,00 0,00 5.333,88 586,73 429,90 0,00 1.016,63 4.317,25 1.956,57 116,51 28/02/2015
843 458900 EMANUELLE CONRAD SILVA FREDERICO ANALISTA DO MP ATIVO DIVINÓPOLIS - COMARCA; DIVINOPOLIS-PJ-08PJ 6.793,15 407,59 0,00 0,00 0,00 0,00 7.200,74 792,08 936,23 0,00 1.728,31 5.472,43 943,13 23,62 28/02/2015
844 284100 EMERSON MAGNO ALMEIDA PEDROSA DA FONSECA ANALISTA DO MP ATIVO BELO HORIZONTE - COMARCA; CENTRAL DE APOIO TECNICO-SETOR CONTABIL 9.977,95 1.995,59 0,00 0,00 0,00 0,00 11.973,54 1.317,09 1.291,83 0,00 2.608,92 9.364,62 4.983,31 372,42 28/02/2015
845 179900 EMERSON MORAIS DIAS OFICIAL DO MP ATIVO BELO HORIZONTE - COMARCA; EXTINTA - DIVISÃO DE APOIO À LICITAÇÃO 9.358,72 2.807,62 0,00 0,00 0,00 0,00 12.166,34 1.338,30 2.151,56 0,00 3.489,86 8.676,48 685,50 0,00 28/02/2015
846 488700 EMERSON SIQUEIRA DE SOUSA TEIXEIRA ANALISTA DO MP ATIVO TARUMIRIM - COMARCA; TARUMIRIM-PJ-UNPJ 6.265,58 375,93 0,00 0,00 0,00 0,00 6.641,51 730,57 651,10 0,00 1.381,67 5.259,84 1.155,50 0,00 28/02/2015
847 194200 EMILIA ALVES FERREIRA RAMOS OFICIAL DO MP ATIVO UBERLÂNDIA - COMARCA; UBERLANDIA-PJ-02PJ 4.848,98 1.454,69 0,00 0,00 0,00 0,00 6.303,67 802,75 733,37 0,00 1.536,12 4.767,55 685,50 1.060,27 28/02/2015
848 123400 EMILIO CARLOS MARTINS OFICIAL DO MP ATIVO AREADO - COMARCA; AREADO-PJ-UNPJ 10.984,62 7.689,24 0,00 0,00 0,00 0,00 18.673,86 2.054,12 3.694,86 0,00 5.748,98 12.924,88 2.949,35 207,52 28/02/2015
849 549300 EMILIO VIEIRA SILVA ASSESSOR ATIVO BELO HORIZONTE - COMARCA; EXTINTA - DIVISAO DE TRANSPORTES 0,00 0,00 2.359,08 0,00 0,00 0,00 2.359,08 334,90 71,42 0,00 406,32 1.952,76 685,50 0,00 28/02/2015
850 620700 EMILY FONTANA DE SIQUEIRA ANALISTA DO MP ATIVO BELO HORIZONTE - COMARCA; BH-18PJ VIOLENCIA DOMESTICA 4.848,98 0,00 0,00 0,00 0,00 0,00 4.848,98 533,39 368,05 0,00 901,44 3.947,54 685,50 0,00 28/02/2015
851 297000 ENEIDA SOARES COSTA MELO ANALISTA DO MP ATIVO PIUMHI - COMARCA; PIUMHI-PJ-01PJ 9.977,95 1.995,59 0,00 0,00 0,00 0,00 11.973,54 1.317,09 2.104,37 0,00 3.421,46 8.552,08 4.748,31 372,42 28/02/2015
852 276000 ENEZIO RODRIGUES DE SOUZA FILHO OFICIAL DO MP ATIVO UBERLÂNDIA - COMARCA; UBERLANDIA-PJ-SEC FAMILIA 6.068,01 1.213,60 0,00 0,00 2.427,20 0,00 9.708,81 800,98 1.623,50 0,00 2.424,48 7.284,33 685,50 0,00 28/02/2015
853 387700 ENI MARIA DOS REIS OFICIAL DO MP ATIVO POUSO ALEGRE - COMARCA; POUSO ALEGRE-PJ-04PJ 5.169,86 1.625,31 0,00 0,00 0,00 0,00 6.795,17 625,55 821,08 0,00 1.446,63 5.348,54 4.748,31 372,42 28/02/2015
854 605100 ENIA MAIA OFICIAL DO MP ATIVO BELO HORIZONTE - COMARCA; DIRETORIA DE ORCAMENTO-DIOR/SPC 2.952,15 0,00 0,00 0,00 0,00 0,00 2.952,15 324,74 62,98 0,00 387,72 2.564,43 685,50 0,00 28/02/2015
855 612200 ENILDO GOMES MEIRA FILHO ANALISTA DO MP ATIVO BUENÓPOLIS - COMARCA; BUENOPOLIS-PJ-UNPJ 4.404,59 0,00 0,00 0,00 0,00 0,00 4.404,59 484,50 199,07 0,00 683,57 3.721,02 920,50 0,00 28/02/2015
856 553700 ENIVALDO NOVATO PUBLIO ANALISTA DO MP ATIVO DIVINÓPOLIS - COMARCA; DIVINOPOLIS-PJ-09PJ 4.548,03 0,00 0,00 0,00 0,00 0,00 4.548,03 500,28 267,35 0,00 767,63 3.780,40 685,50 0,00 28/02/2015
857 417300 ERIC BARATTI DA SILVA ANALISTA DO MP ATIVO PRATA - COMARCA; PRATA-PJ-UNPJ 7.014,37 701,44 0,00 0,00 0,00 0,00 7.715,81 848,74 1.062,29 0,00 1.911,03 5.804,78 685,50 0,00 28/02/2015
858 398900 ERIC TEIXEIRA SILVA OFICIAL DO MP ATIVO UBERLÂNDIA - COMARCA; UBERLANDIA-PJ-08PJ 4.848,98 484,90 0,00 0,00 0,00 0,00 5.333,88 768,81 641,37 0,00 1.410,18 3.923,70 685,50 1.655,25 28/02/2015
859 274200 ERICA DE SOUZA ANDRADE OFICIAL DO MP ATIVO CURVELO - COMARCA; CURVELO-PJ-05PJ 6.469,61 1.293,92 0,00 0,00 0,00 0,00 7.763,53 853,99 1.024,55 0,00 1.878,54 5.884,99 685,50 0,00 28/02/2015
860 225700 ERICA GOMES DO COUTO OFICIAL DO MP ATIVO BELO HORIZONTE - COMARCA; CAO-TS-TERCEIRO SETOR-SECRETARIA 8.233,02 1.646,60 0,00 0,00 0,00 0,00 9.879,62 1.086,76 1.591,89 0,00 2.678,65 7.200,97 4.748,31 372,42 28/02/2015
861 632600 ERICA LEONOR MARTINS OFICIAL DO MP ATIVO RESENDE COSTA - COMARCA; RESENDE COSTA-PJ-UNPJ 2.859,08 0,00 0,00 0,00 0,00 0,00 2.859,08 429,82 186,61 0,00 616,43 2.242,65 965,93 1.048,33 28/02/2015
862 524800 ERICA MACHADO DA COSTA E SOUZA ANALISTA DO MP ATIVO BELO HORIZONTE - COMARCA; PROC JUST RECURSOS ESP E EXTRAORD CRIMINAIS 6.068,01 364,08 0,00 0,00 0,00 0,00 6.432,09 747,58 870,59 0,00 1.618,17 4.813,92 685,50 485,44 28/02/2015
863 249500 ERICA RODRIGUES ANDRADE OFICIAL DO MP ATIVO SÃO FRANCISCO - COMARCA; SAO FRANCISCO-PJ-02PJ 4.696,06 939,21 0,00 0,00 0,00 0,00 5.635,27 619,88 503,66 0,00 1.123,54 4.511,73 920,50 0,00 28/02/2015
864 260800 ERICA VIANA GIARDINI DE OLIVEIRA OFICIAL DO MP ATIVO BELO HORIZONTE - COMARCA; EXTINTA - DIVISÃO DE COMPRAS 6.578,93 1.315,79 0,00 0,00 0,00 0,00 7.894,72 868,42 1.106,08 0,00 1.974,50 5.920,22 685,50 0,00 28/02/2015
865 299800 ERICH DOUGLAS RIBEIRO GARCIA ANALISTA DO MP ATIVO BELO HORIZONTE - COMARCA; CENTRAL DE APOIO TECNICO-SETOR CONTABIL 9.663,38 1.932,68 0,00 0,00 0,00 0,00 11.596,06 1.275,57 2.011,98 0,00 3.287,55 8.308,51 685,50 0,00 28/02/2015
866 365000 ERICK EDUARDO JOSE DA SILVA OFICIAL DO MP ATIVO SANTOS DUMONT - COMARCA; SANTOS DUMONT-PJ-02PJ 4.696,06 469,61 0,00 0,00 0,00 0,00 5.165,67 568,22 438,15 0,00 1.006,37 4.159,30 4.748,31 372,42 28/02/2015
867 123500 ERICO SEGISMUNDO LIMA VILASBOAS ANALISTA DO MP ATIVO MONTES CLAROS - COMARCA; COORD REG PJ DEF EDUC DIR CRIANCA ADOL NORTE 14.432,31 11.545,84 0,00 0,00 0,00 2.857,60 28.835,75 2.857,60 6.120,16 0,00 8.977,76 19.857,99 4.748,31 372,42 28/02/2015
868 227400 ERIKA DE LAET GOULART BOECHAT ASSESSOR/OFICIAL ATIVO BELO HORIZONTE - COMARCA; ASSESSORIA ESPECIAL DO PGJ 2.511,58 2.434,96 0,00 0,00 0,00 0,00 4.946,54 1.110,55 2.331,64 0,00 3.442,19 1.504,35 1.136,74 8.038,86 28/02/2015
869 451800 ERIKA DELLARETTI GUIMARAES OFICIAL DO MP ATIVO LAVRAS - COMARCA; LAVRAS-PJ-SECRETARIA 3.694,41 221,66 0,00 0,00 0,00 0,00 3.916,07 430,77 160,81 0,00 591,58 3.324,49 685,50 0,00 28/02/2015
870 285100 ERIKA FERREIRA DA SILVA OFICIAL DO MP ATIVO JUIZ DE FORA - COMARCA; JUIZ DE FORA-PJ-14PJ 6.469,61 1.293,92 0,00 0,00 0,00 0,00 7.763,53 853,99 1.073,97 0,00 1.927,96 5.835,57 4.386,22 339,23 28/02/2015
871 420100 ERIKA JEANINE VERSIANI DE CASTRO ANALISTA DO MP ATIVO MONTES CLAROS - COMARCA; COORD REG PJ DEF EDUC DIR CRIANCA ADOL NORTE 7.973,40 797,34 0,00 0,00 0,00 0,00 8.770,74 964,78 1.271,07 0,00 2.235,85 6.534,89 4.748,31 372,42 28/02/2015
872 606900 ERIKA MARIA BARBOSA ANALISTA DO MP ATIVO BELO HORIZONTE - COMARCA; CAO-SAUDE 4.548,03 0,00 0,00 0,00 0,00 0,00 4.548,03 547,62 324,80 0,00 872,42 3.675,61 920,50 478,13 28/02/2015
873 491000 ERIKA ROCHA BARRETO ANALISTA DO MP ATIVO BELO HORIZONTE - COMARCA; DIRETORIA DE SISTEMAS DE INFORMACAO 6.265,58 375,93 0,00 0,00 0,00 0,00 6.641,51 730,57 799,36 0,00 1.529,93 5.111,58 685,50 0,00 28/02/2015
874 283201 ERIKA STEHLING ASSESSOR/ANALISTA ATIVO BELO HORIZONTE - COMARCA; CENTRAL DE APOIO TECNICO-SETOR DE ENGENHARIA 0,00 478,40 7.973,40 0,00 0,00 0,00 8.451,80 730,57 1.198,35 0,00 1.928,92 6.522,88 685,50 0,00 28/02/2015
875 383500 ERIKO RODRIGUES VELOSO ANALISTA DO MP ATIVO BOCAIÚVA - COMARCA; BOCAIUVA-PJ-01PJ 6.793,15 679,32 0,00 0,00 0,00 0,00 7.472,47 821,97 1.002,74 0,00 1.824,71 5.647,76 685,50 0,00 28/02/2015
876 254000 ERLANDIA DA SILVA MENDES OFICIAL DO MP ATIVO IPATINGA - COMARCA; IPATINGA-PJ-03PJ 6.793,15 2.037,95 0,00 0,00 0,00 0,00 8.831,10 971,42 1.187,00 0,00 2.158,42 6.672,68 4.748,31 372,42 28/02/2015
877 208600 ERNANE JOSE DA COSTA ANALISTA DO MP ATIVO BELO HORIZONTE - COMARCA; CENTRAL DE APOIO TECNICO-SETOR MEDICO 13.882,65 6.941,33 0,00 0,00 0,00 0,00 20.823,98 2.290,64 4.270,52 0,00 6.561,16 14.262,82 685,50 0,00 28/02/2015
878 260600 ERNANI CALDEIRA DE ANDRADE ANALISTA DO MP ATIVO BELO HORIZONTE - COMARCA; CENTRAL DE APOIO TECNICO-SETOR CONTABIL 10.984,62 2.196,92 0,00 0,00 0,00 0,00 13.181,54 1.449,97 2.400,03 0,00 3.850,00 9.331,54 4.531,61 352,56 28/02/2015
879 348500 ERNILANDIA OLIVEIRA DIAS OFICIAL DO MP ATIVO BELO HORIZONTE - COMARCA; EXTINTA - JUIZO DE FAMILIA-02 PJ-02 VARA 5.169,86 516,99 0,00 0,00 0,00 0,00 5.686,85 625,55 565,71 0,00 1.191,26 4.495,59 685,50 0,00 28/02/2015
880 199300 ERTON PORTINARI DE ANDRADE OFICIAL DO MP ATIVO SETE LAGOAS - COMARCA; SETE LAGOAS-PJ-01PJ 8.501,02 2.550,31 0,00 0,00 0,00 0,00 11.051,33 1.215,65 1.779,82 0,00 2.995,47 8.055,86 4.748,31 372,42 28/02/2015
881 430400 ESDRAS SOARES VILAS BOAS RIBEIRO OFICIAL DO MP ATIVO BELO HORIZONTE - COMARCA; BH-17PJ PATRIMONIO PUBLICO-SECRETARIA 4.848,98 484,90 0,00 0,00 1.777,96 0,00 7.111,84 586,73 968,26 0,00 1.554,99 5.556,85 685,50 0,00 28/02/2015
882 618800 ESLY DE CARLA AYALLA BARBOSA MENDES OFICIAL DO MP ATIVO ITABIRITO - COMARCA; ITABIRITO-PJ-01PJ 2.859,08 0,00 0,00 0,00 0,00 0,00 2.859,08 314,50 56,76 0,00 371,26 2.487,82 920,50 0,00 28/02/2015
883 537000 ESTANISLAU CORREIA ALMEIDA JUNIOR OFICIAL DO MP ATIVO UBERLÂNDIA - COMARCA; UBERLANDIA-PJ-25PJ 2.952,15 0,00 0,00 0,00 0,00 0,00 2.952,15 324,74 62,98 0,00 387,72 2.564,43 685,50 0,00 28/02/2015
884 326900 ESTER ALICE PIMENTA OFICIAL DO MP ATIVO BELO HORIZONTE - COMARCA; COORD DE INCLUSAO E MOBILIZACAO SOCIAIS 6.068,01 606,80 0,00 0,00 0,00 0,00 6.674,81 734,23 758,09 0,00 1.492,32 5.182,49 4.748,31 372,42 28/02/2015
885 503700 ESTHER GONCALVES FONSECA ANALISTA DO MP ATIVO BELO HORIZONTE - COMARCA; DIRETORIA DE PUBLICIDADE INSTITUCIONAL 5.169,86 310,19 0,00 0,00 0,00 0,00 5.480,05 602,81 515,09 0,00 1.117,90 4.362,15 685,50 0,00 28/02/2015
886 475600 ETIENE DE FATIMA OLIVEIRA PEREIRA ANALISTA DO MP ATIVO PATROCÍNIO - COMARCA; PATROCINIO-PJ-04PJ 6.793,15 407,59 0,00 0,00 0,00 0,00 7.200,74 792,08 886,81 0,00 1.678,89 5.521,85 920,50 0,00 28/02/2015
887 428800 EUGENIA RODRIGUES TRAJANO BORGES ANALISTA DO MP ATIVO UBERABA - COMARCA; UBERABA-PJ-08PJ 7.014,37 701,44 0,00 0,00 0,00 0,00 7.715,81 848,74 1.062,29 0,00 1.911,03 5.804,78 685,50 0,00 28/02/2015
888 272700 EUGENIO DE BARCELOS FILHO OFICIAL DO MP ATIVO FRUTAL - COMARCA; FRUTAL-PJ-02PJ 5.169,86 1.033,97 0,00 0,00 0,00 0,00 6.203,83 682,42 642,82 0,00 1.325,24 4.878,59 2.826,52 196,26 28/02/2015
889 254100 EULALIA ALVES MIRANDA LUCAS OFICIAL DO MP ATIVO ALMENARA - COMARCA; ALMENARA-PJ-SECRETARIA 6.469,61 2.402,24 0,00 0,00 0,00 0,00 8.871,85 853,99 1.230,50 0,00 2.084,49 6.787,36 685,50 0,00 28/02/2015
890 615500 EUNICE BARBOSA PINTO OFICIAL DO MP ATIVO CARLOS CHAGAS - COMARCA; CARLOS CHAGAS-PJ-UNPJ 2.859,08 0,00 0,00 0,00 0,00 0,00 2.859,08 314,50 56,76 0,00 371,26 2.487,82 685,50 0,00 28/02/2015
891 557900 EURIPEDES JUSUE PERES OFICIAL DO MP ATIVO IBIÁ - COMARCA; IBIA-PJ-UNPJ 2.952,15 0,00 0,00 0,00 0,00 0,00 2.952,15 324,74 62,98 0,00 387,72 2.564,43 685,50 0,00 28/02/2015
892 225800 EURO CESAR VIEIRA BARBOSA ANALISTA DO MP ATIVO BELO HORIZONTE - COMARCA; BH-17PJ PATRIMONIO PUBLICO 12.356,19 3.706,86 0,00 0,00 0,00 0,00 16.063,05 1.766,94 3.006,44 0,00 4.773,38 11.289,67 4.983,31 372,42 28/02/2015
893 199400 EUSTAQUIO ADAILTON LIMA E SILVA OFICIAL DO MP ATIVO MANGA - COMARCA; MANGA-PJ-01PJ 8.501,02 4.250,51 0,00 0,00 0,00 0,00 12.751,53 1.402,67 2.097,11 0,00 3.499,78 9.251,75 685,50 0,00 28/02/2015
894 249000 EUSTAQUIO GOMES DE OLIVEIRA OFICIAL DO MP ATIVO BELO HORIZONTE - COMARCA; CAO-TS-CONTROLADORIA E APOIO AS ENTIDADES  6.578,93 2.631,57 0,00 0,00 0,00 0,00 9.210,50 1.013,16 1.428,12 0,00 2.441,28 6.769,22 685,50 0,00 28/02/2015
895 67100 EVA DAS DORES BARROS VALGAS ANALISTA DO MP ATIVO FERROS - COMARCA; FERROS-PJ-SECRETARIA 14.432,31 10.102,61 0,00 0,00 0,00 0,00 24.534,92 3.007,21 5.622,99 0,00 8.630,20 15.904,72 685,50 3.114,77 28/02/2015
896 548000 EVA VILMA LEAO DOS REIS JULIO OFICIAL DO MP ATIVO BELO HORIZONTE - COMARCA; BH-15PJ M AMB 16PJ HAB URB-SECRETARIA 3.250,03 650,01 0,00 0,00 0,00 0,00 3.900,04 429,00 185,63 0,00 614,63 3.285,41 685,50 0,00 28/02/2015
897 517000 EVALDO SENA COSTA FILHO ANALISTA DO MP ATIVO CONTAGEM - COMARCA; CONTAGEM-PJ-15PJ 6.265,58 1.253,12 0,00 0,00 0,00 0,00 7.518,70 827,06 865,79 0,00 1.692,85 5.825,85 920,50 0,00 28/02/2015
898 217500 EVELANGE LEAO RABELO ASSESSOR ATIVO BELO HORIZONTE - COMARCA; COORD EST DEF DIR FAMILIA PESSOA DEFICI IDOSO 0,00 471,82 2.359,08 0,00 943,63 0,00 3.774,53 386,80 313,52 0,00 700,32 3.074,21 685,50 0,00 28/02/2015
899 540400 EVIE SARAMELLA DE RESENDE OFICIAL DO MP ATIVO BARBACENA - COMARCA; BARBACENA-PJ-05PJ 2.952,15 0,00 0,00 0,00 0,00 0,00 2.952,15 324,74 62,98 0,00 387,72 2.564,43 685,50 0,00 28/02/2015
900 469000 EWERTON CARDOSO DE SA RODRIGUES ANALISTA DO MP ATIVO CAMPO BELO - COMARCA; CAMPO BELO-PJ-01PJ 6.793,15 407,59 0,00 0,00 0,00 0,00 7.200,74 792,08 886,81 0,00 1.678,89 5.521,85 685,50 0,00 28/02/2015
901 368900 FABIANA BARBOSA SIQUEIRA OFICIAL DO MP ATIVO BELO HORIZONTE - COMARCA; CAO-ORDEM ECONOMICA E TRIBUTARIA-SECRETARIA 5.691,44 569,14 0,00 0,00 0,00 0,00 6.260,58 688,66 656,71 0,00 1.345,37 4.915,21 920,50 0,00 28/02/2015
902 273800 FABIANA CARNEIRO AMORIM COORDENADOR/OFICIAL ATIVO BELO HORIZONTE - COMARCA; BH-23PJ INFRACIONAL-COORD ADM INFRACIONAL 0,00 1.812,72 9.063,59 0,00 0,00 0,00 10.876,31 827,06 1.838,55 0,00 2.665,61 8.210,70 4.748,31 372,42 28/02/2015
903 519300 FABIANA DE OLIVEIRA LOUREIRO ANALISTA DO MP ATIVO BELO HORIZONTE - COMARCA; BH-09PJ AUDITORIA MILITAR 6.265,58 375,93 0,00 0,00 0,00 0,00 6.641,51 799,68 901,87 0,00 1.701,55 4.939,96 1.004,27 635,93 28/02/2015
904 363400 FABIANA DOURADO DUPIN VIEGAS ANALISTA DO MP ATIVO BELO HORIZONTE - COMARCA; GABINETE DE PROCURADOR DE JUSTIÇA - SALA 705 9.358,72 935,87 0,00 0,00 0,00 0,00 10.294,59 1.132,40 1.644,03 0,00 2.776,43 7.518,16 1.155,50 0,00 28/02/2015
905 410800 FABIANA DUARTE QUITITE ANALISTA DO MP ATIVO BELO HORIZONTE - COMARCA; EXTINTA-MEIO AMB PATRIM HIST CULTURAL-15PJGAB 7.973,40 797,34 0,00 0,00 0,00 0,00 8.770,74 1.014,40 1.430,89 0,00 2.445,29 6.325,45 4.748,31 823,50 28/02/2015
906 419500 FABIANA EULALIA DOS SANTOS ANALISTA DO MP ATIVO SÃO JOÃO DEL REI - COMARCA; SAO JOAO DEL REI-PJ-01PJ 7.973,40 797,34 0,00 0,00 0,00 0,00 8.770,74 1.544,99 1.933,58 0,00 3.478,57 5.292,17 5.803,24 6.095,41 28/02/2015
907 376300 FABIANA MATTOSO LEMOS ANALISTA DO MP ATIVO BELO HORIZONTE - COMARCA; COORD-GERAL DAS PJS POR BACIA HIDRO. DE MG 8.233,02 823,30 0,00 0,00 0,00 0,00 9.056,32 996,20 1.390,38 0,00 2.386,58 6.669,74 685,50 0,00 28/02/2015
908 331500 FABIANA PACHECO OFICIAL DO MP ATIVO GUAXUPÉ - COMARCA; GUAXUPE-PJ-01PJ 5.876,69 587,67 0,00 0,00 0,00 0,00 6.464,36 711,08 657,16 0,00 1.368,24 5.096,12 4.748,31 372,42 28/02/2015
909 510700 FABIANA PEREIRA SANTOS BORGES ANALISTA DO MP ATIVO BELO HORIZONTE - COMARCA; DIRETORIA DE SISTEMAS DE INFORMACAO 6.265,58 375,93 0,00 0,00 0,00 0,00 6.641,51 730,57 749,94 0,00 1.480,51 5.161,00 685,50 0,00 28/02/2015
910 181700 FABIANA SOUZA FERREIRA OFICIAL DO MP ATIVO BELO HORIZONTE - COMARCA; BH-19PJ SAUDE-SECRETARIA 150PJ 4.548,03 1.364,41 0,00 0,00 0,00 0,00 5.912,44 711,90 630,45 0,00 1.342,35 4.570,09 2.956,60 808,20 28/02/2015
911 272900 FABIANA STOCKLER LEITE OFICIAL DO MP ATIVO LAJINHA - COMARCA; LAJINHA-PJ-SECRETARIA 6.469,61 2.587,84 0,00 0,00 0,00 0,00 9.057,45 996,32 1.291,82 0,00 2.288,14 6.769,31 685,50 0,00 28/02/2015
912 225500 FABIANE DE FATIMA PORTELLA ANALISTA DO MP ATIVO BELO HORIZONTE - COMARCA; SERVICO MEDICO-DEPTO PERIC MEDICA SAUDE OCUP 11.885,64 2.377,13 0,00 0,00 0,00 0,00 14.262,77 1.568,90 2.664,66 0,00 4.233,56 10.029,21 4.748,31 372,42 28/02/2015
913 433800 FABIANE DINIZ MATTOS ANALISTA DO MP ATIVO BELO HORIZONTE - COMARCA; BH-23PJ INFRACIONAL-ASS JURIDICA 7.973,40 797,34 0,00 0,00 0,00 0,00 8.770,74 1.591,02 1.886,17 0,00 3.477,19 5.293,55 685,50 6.044,70 28/02/2015
914 455000 FABIANO CARVALHO DA SILVA ANALISTA DO MP ATIVO LAVRAS - COMARCA; COORD REG DO MA DA BACIA DO RIO GRANDE 6.793,15 407,59 0,00 0,00 0,00 0,00 7.200,74 792,08 936,23 0,00 1.728,31 5.472,43 943,13 23,62 28/02/2015
915 498800 FABIANO FURTADO PESSOA COELHO ANALISTA DO MP ATIVO BELO HORIZONTE - COMARCA; DIRETORIA DE REDES E BANCOS DE DADOS 6.265,58 375,93 0,00 0,00 0,00 0,00 6.641,51 730,57 749,94 0,00 1.480,51 5.161,00 920,50 0,00 28/02/2015
916 394600 FABIANO PALHARES SILVA ANALISTA DO MP ATIVO BELO HORIZONTE - COMARCA; CENTRAL DE APOIO TECN-SETOR DE MEIO AMBIENTE 8.233,02 823,30 0,00 0,00 3.018,77 0,00 12.075,09 996,20 2.171,12 0,00 3.167,32 8.907,77 920,50 0,00 28/02/2015
917 444400 FABIANO SARAIVA MEDEIROS ANALISTA DO MP ATIVO BETIM - COMARCA; BETIM-PJ-11PJ 7.014,37 701,44 0,00 0,00 0,00 0,00 7.715,81 848,74 1.012,87 0,00 1.861,61 5.854,20 4.983,31 372,42 28/02/2015
918 408700 FABIANO SOARES PORTILHO ANALISTA DO MP ATIVO VIÇOSA - COMARCA; VICOSA-PJ-02PJ 7.973,40 797,34 0,00 0,00 0,00 0,00 8.770,74 1.544,99 1.933,58 0,00 3.478,57 5.292,17 2.518,09 5.794,28 28/02/2015
919 384301 FABIO BRUNO DA SILVA ANALISTA DO MP ATIVO BONFIM - COMARCA; BONFIM-PJ-UNPJ 7.014,37 701,44 0,00 0,00 0,00 0,00 7.715,81 1.046,49 1.355,62 0,00 2.402,11 5.313,70 1.045,04 1.830,68 28/02/2015
920 442600 FABIO CARVALHO VIEIRA ANALISTA DO MP ATIVO MONTES CLAROS - COMARCA; MONTES CLAROS-PJ-06PJ 5.691,44 569,14 0,00 0,00 0,00 0,00 6.260,58 688,66 706,13 0,00 1.394,79 4.865,79 685,50 0,00 28/02/2015
921 123700 FABIO JOSE ANDRADE NOGUEIRA OFICIAL DO MP ATIVO FORMIGA - COMARCA; FORMIGA-PJ-SECRETARIA 7.721,95 5.405,38 0,00 0,00 0,00 0,00 13.127,33 1.444,01 1.364,14 0,00 2.808,15 10.319,18 685,50 0,00 28/02/2015
922 240101 FABIO JUNQUEIRA DE ASSIS FONSECA OFICIAL DO MP ATIVO BELO HORIZONTE - COMARCA; DIRET DE DESENV DE RECURSOS HUMANOS-DDRH 4.265,74 426,57 0,00 0,00 0,00 0,00 4.692,31 516,15 336,68 0,00 852,83 3.839,48 1.315,00 47,21 28/02/2015
923 271500 FABIO LUIZ VIEIRA OFICIAL DO MP ATIVO SANTA VITÓRIA - COMARCA; SANTA VITORIA-PJ-UNPJ 6.265,58 1.253,12 0,00 0,00 0,00 0,00 7.518,70 827,06 915,21 0,00 1.742,27 5.776,43 4.294,75 316,79 28/02/2015
924 213100 FABIO PRATES GONCALVES ASSESSOR ATIVO BELO HORIZONTE - COMARCA; DIRETORIA DE RELACOES PUBLICAS E CERIMONIAL 6.265,58 1.879,67 0,00 0,00 0,00 0,00 8.145,25 513,01 1.362,39 0,00 1.875,40 6.269,85 920,50 0,00 28/02/2015
925 436700 FABIO SANTIAGO DE CARVALHO OFICIAL DO MP ATIVO POÇO FUNDO - COMARCA; POCO FUNDO-PJ-UNPJ 5.006,87 500,69 0,00 0,00 1.835,85 0,00 7.343,41 605,83 1.026,68 0,00 1.632,51 5.710,90 685,50 0,00 28/02/2015
926 208400 FABIOLA DE SOUSA CARDOSO ASSESSOR/ANALISTA ATIVO BELO HORIZONTE - COMARCA; ASSESS TECNICA DA CORREGEDORIA-GERAL DO MP 13.882,65 6.097,48 0,00 0,00 0,00 0,00 19.980,13 1.985,22 4.122,45 0,00 6.107,67 13.872,46 4.748,31 372,42 28/02/2015
927 392200 FABIOLA LEROY COSTA ANALISTA DO MP ATIVO ESMERALDAS - COMARCA; ESMERALDAS-PJ-01PJ 6.469,61 646,96 0,00 0,00 0,00 0,00 7.116,57 782,82 915,63 0,00 1.698,45 5.418,12 685,50 0,00 28/02/2015
928 409000 FABIOLA MONTEIRO DE CARVALHO CASTRO ANALISTA DO MP ATIVO BOM SUCESSO - COMARCA; BOM SUCESSO-PJ-UNPJ 7.721,95 772,20 0,00 0,00 2.831,38 0,00 11.325,53 934,36 2.031,42 0,00 2.965,78 8.359,75 685,50 0,00 28/02/2015
929 227900 FABIOLA PIMENTA DE CARVALHO OFICIAL DO MP ATIVO MONTES CLAROS - COMARCA; COORD REG BACIA RIOS VERDE GRANDE E PARDO 5.876,69 1.175,34 0,00 0,00 0,00 0,00 7.052,03 775,72 850,42 0,00 1.626,14 5.425,89 685,50 0,00 28/02/2015
930 525800 FABRICIA ALVES DANTAS OFICIAL DO MP ATIVO MONTES CLAROS - COMARCA; MONTES CLAROS-PJ-01PJ 3.938,84 0,00 0,00 0,00 0,00 0,00 3.938,84 433,27 136,89 0,00 570,16 3.368,68 3.048,80 118,17 28/02/2015
931 263400 FABRICIA PINTO TEIXEIRA SANTIAGO OFICIAL DO MP ATIVO BELO HORIZONTE - COMARCA; CAO-TS-TERCEIRO SETOR-SECRETARIA 6.578,93 1.315,79 0,00 0,00 0,00 0,00 7.894,72 868,42 1.007,24 0,00 1.875,66 6.019,06 920,50 0,00 28/02/2015
932 420800 FABRICIO BERNARDES DE OLIVEIRA OFICIAL DO MP ATIVO ITURAMA - COMARCA; ITURAMA-PJ-02PJ 5.006,87 500,69 0,00 0,00 0,00 0,00 5.507,56 605,83 472,41 0,00 1.078,24 4.429,32 4.773,22 372,42 28/02/2015
933 474000 FABRICIO DE FREITAS SALES ANALISTA DO MP ATIVO BELO HORIZONTE - COMARCA; SUPERINTENDENCIA DE RECURSOS HUMANOS 6.793,15 407,59 0,00 0,00 0,00 0,00 7.200,74 792,08 936,23 0,00 1.728,31 5.472,43 4.983,31 372,42 28/02/2015
934 510100 FABRICIO FURTADO ASSIS DO CARMO ANALISTA DO MP ATIVO BELO HORIZONTE - COMARCA; SERVICO MEDICO-DEPTO PERIC MEDICA SAUDE OCUP 5.691,44 1.080,37 0,00 0,00 0,00 0,00 6.771,81 663,62 853,60 0,00 1.517,22 5.254,59 685,50 0,00 28/02/2015
935 519600 FABRICIO GONTIJO SALVATI ANALISTA DO MP ATIVO JUIZ DE FORA - COMARCA; JUIZ DE FORA-PJ-13PJ 6.265,58 375,93 0,00 0,00 0,00 0,00 6.641,51 799,68 921,07 0,00 1.720,75 4.920,76 685,50 698,07 28/02/2015
936 428200 FABRICIO ORZIL VIANA ANALISTA DO MP ATIVO SANTA LUZIA - COMARCA; SANTA LUZIA-PJ-04PJ 6.469,61 646,96 0,00 0,00 0,00 0,00 7.116,57 782,82 915,63 0,00 1.698,45 5.418,12 685,50 0,00 28/02/2015
937 455600 FABRICIO PAIVA DA ROCHA ANALISTA DO MP ATIVO ANDRELÂNDIA - COMARCA; ANDRELANDIA-PJ-UNPJ 6.793,15 407,59 0,00 0,00 0,00 0,00 7.200,74 792,08 886,81 0,00 1.678,89 5.521,85 685,50 0,00 28/02/2015
938 511500 FABRICIO RENE CARDOSO DE PADUA ANALISTA DO MP ATIVO SÃO SEBASTIÃO DO PARAÍSO - COMARCA; SAO SEBASTIAO DO PARAISO-PJ-03PJ 6.265,58 375,93 0,00 0,00 0,00 0,00 6.641,51 730,57 799,36 0,00 1.529,93 5.111,58 685,50 0,00 28/02/2015
939 496100 FABRICIO RESENDE GONCALVES OFICIAL DO MP ATIVO ENTRE-RIOS DE MINAS - COMARCA; ENTRE RIOS DE MINAS-PJ-UNPJ 4.000,95 1.348,38 0,00 0,00 0,00 0,00 5.349,33 466,51 516,63 0,00 983,14 4.366,19 685,50 0,00 28/02/2015
940 514900 FADUA MARIA DRUMOND CHEQUER FIGUEIREDO ANALISTA DO MP ATIVO ALMENARA - COMARCA; COORD REG INCLUSAO MOBILIZ VALE JEQUITINHONHA 6.265,58 375,93 0,00 0,00 0,00 0,00 6.641,51 799,68 901,87 0,00 1.701,55 4.939,96 685,50 628,26 28/02/2015
941 282500 FANNY FERREIRA MELO FAVERO DE FRAVET OFICIAL DO MP ATIVO ARAXÁ - COMARCA; ARAXA-PJ-03PJ 5.511,94 1.102,39 0,00 0,00 0,00 0,00 6.614,33 727,58 792,71 0,00 1.520,29 5.094,04 3.472,02 233,89 28/02/2015
942 540100 FATIMA CRISTINA POVOA DA COSTA OFICIAL DO MP ATIVO BELO HORIZONTE - COMARCA; BH-18PJ VIOLENCIA DOMESTICA-SECRETARIA 3.250,03 650,01 0,00 0,00 0,00 0,00 3.900,04 502,57 311,95 0,00 814,52 3.085,52 685,50 668,80 28/02/2015
943 382800 FATIMA DE OLIVEIRA COELHO E SILVA OFICIAL DO MP ATIVO BELO HORIZONTE - COMARCA; DIRETORIA DE ADMINISTRACAO FINANCEIRA 4.131,19 826,24 0,00 0,00 0,00 0,00 4.957,43 545,32 349,33 0,00 894,65 4.062,78 1.815,12 67,10 28/02/2015
944 398601 FELIPE ANTONIO HORTA DE PAULA ANALISTA DO MP ATIVO BELO HORIZONTE - COMARCA; PROC. JUSTICA DIR. DIFUSOS E COLETIVOS-SEC 5.006,87 0,00 0,00 0,00 0,00 0,00 5.006,87 550,76 399,66 0,00 950,42 4.056,45 685,50 0,00 28/02/2015
945 430900 FELIPE BOY VIEIRA ANALISTA DO MP ATIVO BELO HORIZONTE - COMARCA; CAO-DH APOIO COMUNITARIO-SEC ADM 7.014,37 701,44 0,00 0,00 0,00 0,00 7.715,81 848,74 1.062,29 0,00 1.911,03 5.804,78 4.338,50 334,86 28/02/2015
946 631700 FELIPE DE MORAIS SIMOES COELHO ANALISTA DO MP ATIVO BELO HORIZONTE - COMARCA; BH-18PJ VIOLENCIA DOMESTICA 4.404,59 0,00 0,00 0,00 0,00 0,00 4.404,59 484,50 279,06 0,00 763,56 3.641,03 685,50 0,00 28/02/2015
947 549100 FELIPE FERNANDES ALVIM ANALISTA DO MP ATIVO LAJINHA - COMARCA; LAJINHA-PJ-UNPJ 5.006,87 0,00 0,00 0,00 0,00 0,00 5.006,87 550,76 399,66 0,00 950,42 4.056,45 685,50 0,00 28/02/2015
948 487300 FELIPE FERNANDES SILVEIRA ASSESSOR ATIVO BELO HORIZONTE - COMARCA; DIVISAO DE MANUTENCAO PREDIAL 0,00 0,00 2.359,08 0,00 0,00 0,00 2.359,08 334,90 71,42 0,00 406,32 1.952,76 685,50 0,00 28/02/2015
949 620100 FELIPE GOMES DE AZEVEDO OFICIAL DO MP ATIVO BELO HORIZONTE - COMARCA; BH-18PJ VIOLENCIA DOMESTICA-SECRETARIA 2.859,08 0,00 0,00 0,00 0,00 0,00 2.859,08 314,50 56,76 0,00 371,26 2.487,82 685,50 0,00 28/02/2015
950 601600 FELIPE RODRIGUES DE SIQUEIRA ANALISTA DO MP ATIVO BELO HORIZONTE - COMARCA; BH-02PJ FAMILIA 5.006,87 0,00 0,00 0,00 0,00 0,00 5.006,87 579,08 462,31 0,00 1.041,39 3.965,48 685,50 257,52 28/02/2015
951 628900 FELIX FERNANDO JUNIO VIEIRA ANALISTA DO MP ATIVO CAETÉ - COMARCA; CAETE-PJ-02PJ 4.404,59 0,00 0,00 0,00 0,00 0,00 4.404,59 484,50 238,63 0,00 723,13 3.681,46 685,50 0,00 28/02/2015
952 544500 FELLIPE LEMOS MARCONDES BUENO ANALISTA DO MP ATIVO SÃO SEBASTIÃO DO PARAÍSO - COMARCA; SAO SEBASTIAO DO PARAISO-PJ-04PJ 5.006,87 0,00 0,00 0,00 0,00 0,00 5.006,87 550,76 399,66 0,00 950,42 4.056,45 685,50 0,00 28/02/2015
953 612600 FERNANDA ADRIANA DE PAULA GUIDO ANALISTA DO MP ATIVO PARACATU - COMARCA; PARACATU-PJ-03PJ 4.848,98 0,00 0,00 0,00 0,00 0,00 4.848,98 533,39 368,05 0,00 901,44 3.947,54 685,50 0,00 28/02/2015
954 508400 FERNANDA AGANETTI MATTOS DE OLIVEIRA ANALISTA DO MP ATIVO BELO HORIZONTE - COMARCA; BH-19PJ SAUDE 6.265,58 375,93 0,00 0,00 0,00 0,00 6.641,51 730,57 799,36 0,00 1.529,93 5.111,58 685,50 0,00 28/02/2015
955 453600 FERNANDA ALBERNAZ RABELO ANALISTA DO MP ATIVO BELO HORIZONTE - COMARCA; GABINETE DE PROCURADOR DE JUSTIÇA - SALA 616 6.793,15 407,59 0,00 0,00 2.400,25 0,00 9.600,99 792,08 1.596,30 0,00 2.388,38 7.212,61 685,50 0,00 28/02/2015
956 255600 FERNANDA ALINA DE ALMEIDA ANDRADE OFICIAL DO MP ATIVO BELO HORIZONTE - COMARCA; SUPRIN DE PLANEJAMENTO E COORDENACAO 5.876,69 1.175,34 0,00 0,00 0,00 0,00 7.052,03 775,72 899,84 0,00 1.675,56 5.376,47 685,50 0,00 28/02/2015
957 443200 FERNANDA ALMEIDA LOPES ANALISTA DO MP ATIVO CONTAGEM - COMARCA; CONTAGEM-PJ-23PJ 7.014,37 701,44 0,00 0,00 0,00 0,00 7.715,81 848,74 1.062,29 0,00 1.911,03 5.804,78 685,50 0,00 28/02/2015
958 281100 FERNANDA ANANIAS MEIRA ANALISTA DO MP ATIVO BELO HORIZONTE - COMARCA; BH-23PJ INFRACIONAL-ASS JURIDICA 9.663,38 1.932,68 0,00 0,00 0,00 0,00 11.596,06 1.275,57 2.011,98 0,00 3.287,55 8.308,51 685,50 0,00 28/02/2015
959 539000 FERNANDA BARBOSA ALVES ANALISTA DO MP ATIVO CANÁPOLIS - COMARCA; CANAPOLIS-PJ-SECRETARIA 5.006,87 0,00 0,00 0,00 0,00 0,00 5.006,87 550,76 399,66 0,00 950,42 4.056,45 685,50 0,00 28/02/2015
960 451200 FERNANDA BLOISE PRADO OFICIAL DO MP ATIVO BELO HORIZONTE - COMARCA; NUCLEO DE NEGOCIACAO DE CONFLITOS AMBIENTAIS 4.000,95 240,06 0,00 0,00 0,00 0,00 4.241,01 466,51 246,30 0,00 712,81 3.528,20 863,70 13,37 28/02/2015
961 427900 FERNANDA BRAGA CARNEIRO BICALHO ANALISTA DO MP ATIVO PEÇANHA - COMARCA; PECANHA-PJ-SECRETARIA 7.014,37 701,44 0,00 0,00 0,00 0,00 7.715,81 848,74 1.012,87 0,00 1.861,61 5.854,20 685,50 0,00 28/02/2015
962 507100 FERNANDA CABRINI VAZ MOTA ANALISTA DO MP ATIVO BELO HORIZONTE - COMARCA; ASSESSORIA JURIDICO-ADMINISTRATIVA 6.265,58 375,93 0,00 0,00 0,00 0,00 6.641,51 730,57 799,36 0,00 1.529,93 5.111,58 4.670,41 365,28 28/02/2015
963 259800 FERNANDA CALZAVARA DE SOUSA COORDENADOR/OFICIAL ATIVO BELO HORIZONTE - COMARCA; DIRET DE FORMACAO, APERFEIC. E POS-GRADUACAO 0,00 2.060,57 10.302,83 0,00 0,00 0,00 12.363,40 896,70 2.327,19 0,00 3.223,89 9.139,51 4.748,31 372,42 28/02/2015
964 550300 FERNANDA CAMARGOS CALDEIRA BRANT ANALISTA DO MP ATIVO CONTAGEM - COMARCA; CONTAGEM-PJ-10PJ 5.006,87 0,00 0,00 0,00 0,00 0,00 5.006,87 550,76 399,66 0,00 950,42 4.056,45 685,50 0,00 28/02/2015
965 494400 FERNANDA CAMPOS BARATA OFICIAL DO MP ATIVO JUIZ DE FORA - COMARCA; JUIZ DE FORA-PJ-08PJ 3.355,81 201,35 0,00 0,00 0,00 0,00 3.557,16 391,29 139,85 0,00 531,14 3.026,02 920,50 0,00 28/02/2015
966 555600 FERNANDA CAROLINE RIBEIRO ANALISTA DO MP ATIVO BELO HORIZONTE - COMARCA; EXTINTA - DIRETORIA DE CONTRATOS E CONVÊNIOS 5.006,87 0,00 0,00 0,00 1.668,96 0,00 6.675,83 550,76 858,24 0,00 1.409,00 5.266,83 685,50 0,00 28/02/2015
967 294500 FERNANDA COSTA FLORES OFICIAL DO MP ATIVO PARÁ DE MINAS - COMARCA; PARA DE MINAS-PJ-04PJ 6.469,61 1.293,92 0,00 0,00 0,00 0,00 7.763,53 853,99 1.024,55 0,00 1.878,54 5.884,99 4.386,22 339,23 28/02/2015
968 344500 FERNANDA CRISTINA DE SOUZA PAZ ASSESSOR ATIVO BELO HORIZONTE - COMARCA; CENTRAL DE APOIO TECN-SETOR DE MEIO AMBIENTE 0,00 0,00 3.938,84 0,00 0,00 0,00 3.938,84 508,68 242,19 0,00 750,87 3.187,97 1.155,50 0,00 28/02/2015
969 538100 FERNANDA CRISTINA DOS SANTOS ROSA MOREIRA OFICIAL DO MP ATIVO RIBEIRÃO DAS NEVES - COMARCA; RIBEIRAO DAS NEVES-PJ-09PJ 3.250,03 650,01 0,00 0,00 0,00 0,00 3.900,04 429,00 185,63 0,00 614,63 3.285,41 685,50 0,00 28/02/2015
970 337800 FERNANDA CRISTINA REIS ROLAND CLIMACO DA SILVA ASSESSOR/OFICIAL ATIVO BELO HORIZONTE - COMARCA; DIRETORIA-GERAL 0,00 877,78 8.777,78 0,00 0,00 0,00 9.655,56 758,14 1.620,64 0,00 2.378,78 7.276,78 685,50 0,00 28/02/2015
971 545400 FERNANDA CUNHA GUIMARAES ANALISTA DO MP ATIVO BELO HORIZONTE - COMARCA; EXTINTA - COORD DEFESA DO DIREITO DE FAMILIA 4.548,03 0,00 0,00 0,00 0,00 0,00 4.548,03 500,28 307,78 0,00 808,06 3.739,97 685,50 0,00 28/02/2015
972 429801 FERNANDA CUNHA PINHEIRO DA SILVA ANALISTA DO MP ATIVO BELO HORIZONTE - COMARCA; DIRETORIA DE PRODUCAO EDITORIAL 5.691,44 341,49 0,00 0,00 0,00 0,00 6.032,93 663,62 818,76 0,00 1.482,38 4.550,55 2.655,62 792,77 28/02/2015
973 408000 FERNANDA DAS NEVES RAMOS ANALISTA DO MP ATIVO BELO HORIZONTE - COMARCA; CENTRAL DE APOIO TECNICO-SETOR CONTABIL 7.973,40 797,34 0,00 0,00 0,00 0,00 8.770,74 1.544,99 1.933,58 0,00 3.478,57 5.292,17 4.748,31 5.998,71 28/02/2015
974 496000 FERNANDA DE ALMEIDA VIANA ASSESSOR/ANALISTA ATIVO BELO HORIZONTE - COMARCA; PROC JUST RECURSOS ESP E EXTRAORD CRIMINAIS 0,00 478,40 7.973,40 0,00 0,00 0,00 8.451,80 730,57 1.297,19 0,00 2.027,76 6.424,04 4.748,31 372,42 28/02/2015
975 266700 FERNANDA DE CASTRO LUCAS ASSESSOR/OFICIAL ATIVO BELO HORIZONTE - COMARCA; DIRET DE DESENV DE RECURSOS HUMANOS-DDRH 0,00 1.755,56 8.777,78 0,00 0,00 0,00 10.533,34 868,42 2.033,01 0,00 2.901,43 7.631,91 4.748,31 1.104,46 28/02/2015
976 433200 FERNANDA DE FIGUEIREDO NORTE ANALISTA DO MP ATIVO BELO HORIZONTE - COMARCA; ASSESS JUR DO CONS SUPERIOR DO MINISTERIO PUB 7.973,40 797,34 0,00 0,00 0,00 0,00 8.770,74 1.544,99 1.884,16 0,00 3.429,15 5.341,59 920,50 5.626,29 28/02/2015
977 419200 FERNANDA DE MIRANDA MARTINS SIMOES ANALISTA DO MP ATIVO UBERLÂNDIA - COMARCA; UBERLANDIA-PJ-19PJ 7.973,40 797,34 0,00 0,00 0,00 0,00 8.770,74 964,78 1.320,49 0,00 2.285,27 6.485,47 4.748,31 372,42 28/02/2015
978 441400 FERNANDA DE MORAIS PINTO ANALISTA DO MP ATIVO BELO HORIZONTE - COMARCA; PROC. JUSTICA DIR. DIFUSOS E COLETIVOS-SEC 7.014,37 701,44 0,00 0,00 0,00 0,00 7.715,81 848,74 1.062,29 0,00 1.911,03 5.804,78 685,50 0,00 28/02/2015
979 432200 FERNANDA DE MOURA GUIMARAES ANALISTA DO MP ATIVO BELO HORIZONTE - COMARCA; ASSESS TECNICO-JUR JUNTO AS PROC. DE JUST 7.014,37 701,44 0,00 0,00 0,00 0,00 7.715,81 848,74 1.062,29 0,00 1.911,03 5.804,78 685,50 0,00 28/02/2015
980 461800 FERNANDA DE OLIVEIRA SANTOS ANALISTA DO MP ATIVO JUIZ DE FORA - COMARCA; JUIZ DE FORA-PJ-21PJ 6.793,15 407,59 0,00 0,00 0,00 0,00 7.200,74 792,08 936,23 0,00 1.728,31 5.472,43 920,50 0,00 28/02/2015
981 432500 FERNANDA DE PAULA ABRANTES ANALISTA DO MP ATIVO BELO HORIZONTE - COMARCA; PROC JUST RECURSOS ESP E EXTRAORD CRIMINAIS 7.014,37 701,44 0,00 0,00 0,00 0,00 7.715,81 848,74 1.062,29 0,00 1.911,03 5.804,78 685,50 0,00 28/02/2015
982 431600 FERNANDA DIAS BARBOSA MENEZES ANALISTA DO MP ATIVO OURO BRANCO - COMARCA; OURO BRANCO-PJ-UNPJ 7.014,37 701,44 0,00 0,00 0,00 0,00 7.715,81 848,74 963,45 0,00 1.812,19 5.903,62 4.983,31 372,42 28/02/2015
983 162200 FERNANDA FERNANDES MONTEIRO ASSESSOR ATIVO BELO HORIZONTE - COMARCA; CAO-DH APOIO COMUNITARIO-SEC ADM 0,00 1.181,65 3.938,84 0,00 0,00 0,00 5.120,49 513,01 580,00 0,00 1.093,01 4.027,48 1.978,18 96,95 28/02/2015
984 512800 FERNANDA FERREIRA BARBOSA MOREIRA ANALISTA DO MP ATIVO IPATINGA - COMARCA; IPATINGA-PJ-05PJ 5.691,44 341,49 0,00 0,00 0,00 0,00 6.032,93 663,62 650,41 0,00 1.314,03 4.718,90 920,50 0,00 28/02/2015
985 329200 FERNANDA GABRIEL GUZELLA OFICIAL DO MP ATIVO BELO HORIZONTE - COMARCA; ASSESS ESPECIAL DO PGJ ATUACAO JUNTO A PGJAI 5.691,44 569,14 0,00 0,00 0,00 0,00 6.260,58 688,66 706,13 0,00 1.394,79 4.865,79 685,50 0,00 28/02/2015
986 324200 FERNANDA GEORGIA NEVES ZAHAN OFICIAL DO MP ATIVO IPANEMA - COMARCA; IPANEMA-PJ-SECRETARIA 5.006,87 2.503,43 0,00 0,00 0,00 0,00 7.510,30 826,13 913,16 0,00 1.739,29 5.771,01 685,50 0,00 28/02/2015
987 548200 FERNANDA GONCALVES DE CARVALHO ZUZA OFICIAL DO MP ATIVO TUPACIGUARA - COMARCA; TUPACIGUARA-PJ-UNPJ 2.952,15 0,00 0,00 0,00 0,00 0,00 2.952,15 324,74 62,98 0,00 387,72 2.564,43 685,50 0,00 28/02/2015
988 355400 FERNANDA HELENA BASQUES OFICIAL DO MP ATIVO SABARÁ - COMARCA; SABARA-PJ-01PJ 5.691,44 569,14 0,00 0,00 0,00 0,00 6.260,58 688,66 706,13 0,00 1.394,79 4.865,79 4.748,31 372,42 28/02/2015
989 454800 FERNANDA IATAROLA BARBOSA DIAS ANALISTA DO MP ATIVO BARBACENA - COMARCA; BARBACENA-PJ-05PJ 6.793,15 407,59 0,00 0,00 0,00 0,00 7.200,74 792,08 886,81 0,00 1.678,89 5.521,85 685,50 0,00 28/02/2015
990 515500 FERNANDA LILIANE MARUGEIRO ANALISTA DO MP ATIVO VESPASIANO - COMARCA; VESPASIANO-PJ-04PJ 6.265,58 375,93 0,00 0,00 2.213,84 0,00 8.855,35 730,57 1.408,16 0,00 2.138,73 6.716,62 685,50 0,00 28/02/2015
991 392900 FERNANDA MAGALHAES SILVA COORDENADOR/ANALISTA ATIVO BELO HORIZONTE - COMARCA; DIRETORIA DE IMPRENSA 0,00 1.030,28 10.302,83 0,00 0,00 0,00 11.333,11 996,20 2.016,50 0,00 3.012,70 8.320,41 685,50 0,00 28/02/2015
992 409200 FERNANDA MAIA SANTIAGO ANALISTA DO MP ATIVO PIRAPORA - COMARCA; PIRAPORA-PJ-02PJ 6.469,61 646,96 0,00 0,00 0,00 0,00 7.116,57 782,82 915,63 0,00 1.698,45 5.418,12 685,50 0,00 28/02/2015
993 621200 FERNANDA MEYGE DE BRITO ANALISTA DO MP ATIVO BELO HORIZONTE - COMARCA; BH-12PJ JUIZO CRIMINAL-GAB 104PJ 4.848,98 0,00 0,00 0,00 0,00 0,00 4.848,98 533,39 368,05 0,00 901,44 3.947,54 685,50 0,00 28/02/2015
994 556500 FERNANDA OTERO COSTA ANALISTA DO MP ATIVO BELO HORIZONTE - COMARCA; ASSESS TECNICO-JUR JUNTO AS PROC. DE JUST 5.006,87 0,00 0,00 0,00 0,00 0,00 5.006,87 550,76 399,66 0,00 950,42 4.056,45 685,50 0,00 28/02/2015
995 615300 FERNANDA PATRICIA RIBEIRO MOTA OFICIAL DO MP ATIVO UBERABA - COMARCA; UBERABA-PJ-05PJ 2.859,08 0,00 0,00 0,00 953,03 0,00 3.812,11 314,50 189,61 0,00 504,11 3.308,00 685,50 0,00 28/02/2015
996 619800 FERNANDA PINTO PEREIRA ANALISTA DO MP ATIVO UBERLÂNDIA - COMARCA; UBERLANDIA-PJ-20PJ 4.848,98 0,00 0,00 0,00 0,00 0,00 4.848,98 533,39 368,05 0,00 901,44 3.947,54 685,50 0,00 28/02/2015
997 412900 FERNANDA PORTELA ROSA ANALISTA DO MP ATIVO BELO HORIZONTE - COMARCA; BH-08PJ JUIZADO ESPECIAL-SECRETARIA 7.973,40 797,34 0,00 0,00 0,00 0,00 8.770,74 1.229,42 1.909,30 0,00 3.138,72 5.632,02 685,50 2.405,76 28/02/2015
998 274301 FERNANDA QUEIROZ PARREIRA ANALISTA DO MP ATIVO PATOS DE MINAS - COMARCA; COORD REG PJ DEF EDU DIR CRI ADO AL PAR NOROE 6.265,58 375,93 0,00 0,00 0,00 0,00 6.641,51 730,57 799,36 0,00 1.529,93 5.111,58 685,50 0,00 28/02/2015
999 467900 FERNANDA QUEIROZ SIMOES GANNAM ANALISTA DO MP ATIVO SÃO LOURENÇO - COMARCA; SAO LOURENCO-PJ-02PJ 6.793,15 407,59 0,00 0,00 0,00 0,00 7.200,74 792,08 936,23 0,00 1.728,31 5.472,43 685,50 0,00 28/02/2015
1000 255500 FERNANDA SIMOES LOPES MENDES ANALISTA DO MP ATIVO BELO HORIZONTE - COMARCA; BH-17PJ PATRIMONIO PUBLICO-SECRETARIA 10.984,62 2.196,92 0,00 0,00 0,00 0,00 13.181,54 1.449,97 2.301,19 0,00 3.751,16 9.430,38 1.155,50 0,00 28/02/2015
1001 481700 FERNANDA VIANA FROES DA SILVA OFICIAL DO MP ATIVO GOVERNADOR VALADARES - COMARCA; GOVERNADOR VALADARES-PJ-09PJ 4.404,59 264,28 0,00 0,00 0,00 0,00 4.668,87 654,76 525,99 0,00 1.180,75 3.488,12 1.155,50 1.283,58 28/02/2015
1002 123900 FERNANDO ANTONIO FARIA ABREU ASSESSOR/ANALISTA ATIVO BELO HORIZONTE - COMARCA; PROCURADORIA-GERAL ADJUNTA ADMINISTRATIVA 20.299,65 21.542,83 0,00 0,00 0,00 3.351,82 45.194,30 3.351,82 7.553,41 11.371,37 22.276,60 22.917,70 4.748,31 372,43 28/02/2015
1003 416900 FERNANDO APARECIDO DA SILVA ANALISTA DO MP ATIVO BOM DESPACHO - COMARCA; BOM DESPACHO-PJ-01PJ 7.721,95 3.860,98 0,00 0,00 0,00 0,00 11.582,93 1.274,12 1.909,93 0,00 3.184,05 8.398,88 920,50 0,00 28/02/2015
1004 395900 FERNANDO AUGUSTO ETO LAGES ANALISTA DO MP ATIVO BELO HORIZONTE - COMARCA; CENTRAL DE APOIO TECN-SETOR DE MEIO AMBIENTE 8.233,02 823,30 0,00 0,00 0,00 0,00 9.056,32 996,20 1.390,38 0,00 2.386,58 6.669,74 685,50 0,00 28/02/2015
1005 380500 FERNANDO BONES COSTA OFICIAL DO MP ATIVO BELO HORIZONTE - COMARCA; EXTINTA - DIVISÃO DE MATERIAL PERMANENTE 4.131,19 413,12 0,00 0,00 0,00 0,00 4.544,31 499,87 307,04 0,00 806,91 3.737,40 685,50 0,00 28/02/2015
1006 500100 FERNANDO CEZAR PINTO ASSESSOR/OFICIAL ATIVO BELO HORIZONTE - COMARCA; EXTINTA - DIVISÃO DE MATERIAL PERMANENTE 0,00 478,40 7.973,40 0,00 2.817,27 0,00 11.269,07 466,51 2.095,13 0,00 2.561,64 8.707,43 920,50 0,00 28/02/2015
1007 346100 FERNANDO EUSTAQUIO CAMPOS UTSCH MOREIRA ANALISTA DO MP ATIVO BELO HORIZONTE - COMARCA; DIRETORIA DE REDES E BANCOS DE DADOS 9.358,72 935,87 0,00 0,00 0,00 0,00 10.294,59 1.132,40 1.545,19 0,00 2.677,59 7.617,00 920,50 0,00 28/02/2015
1008 103500 FERNANDO LUIZ DA SILVA JUNIOR COORDENADOR/OFICIAL ATIVO BELO HORIZONTE - COMARCA; DIVISAO DE ATENDIMENTO E CONSULTA JURIDICA 12.845,44 7.132,16 0,00 0,00 0,00 0,00 19.977,60 1.978,20 4.123,69 0,00 6.101,89 13.875,71 685,50 0,00 28/02/2015
1009 287300 FERNANDO MARCIO ALVES MARTINS OFICIAL DO MP ATIVO LEOPOLDINA - COMARCA; LEOPOLDINA-PJ-01PJ 5.006,87 1.001,37 0,00 0,00 0,00 0,00 6.008,24 660,91 496,11 0,00 1.157,02 4.851,22 4.748,31 372,42 28/02/2015
1010 262200 FERNANDO MARCIO RESENDE PEREIRA COORDENADOR/OFICIAL ATIVO BELO HORIZONTE - COMARCA; BH-12PJ JUIZO CRIMINAL-SECRETARIA 0,00 1.812,72 9.063,59 0,00 0,00 0,00 10.876,31 751,27 1.958,24 0,00 2.709,51 8.166,80 685,50 0,00 28/02/2015
1011 472900 FERNANDO RODRIGUES DE FREITAS ANALISTA DO MP ATIVO BELO HORIZONTE - COMARCA; BH-15PJ M AMB PAT HIST CULT-ASS TECNICA 6.793,15 407,59 0,00 0,00 2.400,25 0,00 9.600,99 792,08 1.546,88 0,00 2.338,96 7.262,03 685,50 0,00 28/02/2015
1012 421400 FERNANDO TEODORO MACIEL ANALISTA DO MP ATIVO SANTA VITÓRIA - COMARCA; SANTA VITORIA-PJ-UNPJ 7.721,95 772,20 0,00 0,00 0,00 0,00 8.494,15 934,36 1.203,37 0,00 2.137,73 6.356,42 4.983,31 372,42 28/02/2015
1013 446300 FERNANDO VITOR DE OLIVEIRA ANALISTA DO MP ATIVO MONTES CLAROS - COMARCA; COORD REG BACIA RIOS VERDE GRANDE E PARDO 7.014,37 701,44 0,00 0,00 0,00 0,00 7.715,81 848,74 1.062,29 0,00 1.911,03 5.804,78 1.252,18 51,95 28/02/2015
1014 617100 FILLIPE DA SILVA BRAGA ANALISTA DO MP ATIVO DIVINO - COMARCA; DIVINO-PJ-UNPJ 4.404,59 0,00 0,00 0,00 0,00 0,00 4.404,59 484,50 279,06 0,00 763,56 3.641,03 685,50 0,00 28/02/2015
1015 398400 FLAVIA ALVARES GUIMARAES OFICIAL DO MP ATIVO BELO HORIZONTE - COMARCA; CGMP-SECRETARIA DA CORREGEDORIA-GERAL DO MP 4.848,98 484,90 0,00 0,00 1.777,96 0,00 7.111,84 768,81 1.080,88 0,00 1.849,69 5.262,15 685,50 1.655,25 28/02/2015
1016 398200 FLAVIA ALVES DE ASSUNCAO RODRIGUES ANALISTA DO MP ATIVO DIVINÓPOLIS - COMARCA; COORD REG DO MA DA BACIA DO ALTO SAO FRANC 7.721,95 772,20 0,00 0,00 2.831,38 0,00 11.325,53 934,36 2.031,42 0,00 2.965,78 8.359,75 685,50 0,00 28/02/2015
1017 318500 FLAVIA BEATRIZ NUNES CRUZ VIEIRA ANALISTA DO MP ATIVO BARBACENA - COMARCA; BARBACENA-PJ-SECRETARIA 9.663,38 1.932,68 0,00 0,00 0,00 0,00 11.596,06 1.275,57 1.913,14 0,00 3.188,71 8.407,35 1.155,50 0,00 28/02/2015
1018 496500 FLAVIA CARAM BORLIDO ANALISTA DO MP ATIVO BELO HORIZONTE - COMARCA; EXTINTA - DIVISAO DE SERVICOS GERAIS 6.265,58 375,93 0,00 0,00 0,00 0,00 6.641,51 730,57 799,36 0,00 1.529,93 5.111,58 685,50 0,00 28/02/2015
1019 534800 FLAVIA CONDE SOARES ANALISTA DO MP ATIVO RIBEIRÃO DAS NEVES - COMARCA; RIBEIRAO DAS NEVES-PJ-10PJ 5.006,87 0,00 0,00 0,00 0,00 0,00 5.006,87 550,76 399,66 0,00 950,42 4.056,45 685,50 0,00 28/02/2015
1020 219500 FLAVIA CRISTINA ANCELMO OFICIAL DO MP ATIVO BELO HORIZONTE - COMARCA; BH-17PJ PATRIMONIO PUBLICO-SECRETARIA 6.265,58 1.253,12 0,00 0,00 0,00 0,00 7.518,70 827,06 1.014,05 0,00 1.841,11 5.677,59 3.692,98 275,69 28/02/2015
1021 329600 FLAVIA CRISTINA DE MATOS XAVIER ANALISTA DO MP ATIVO UBERABA - COMARCA; UBERABA-PJ-15PJ 9.663,38 1.932,68 0,00 0,00 3.865,35 0,00 15.461,41 1.275,57 2.976,12 0,00 4.251,69 11.209,72 920,50 0,00 28/02/2015
1022 207600 FLAVIA DE ANDRADE MANCINI ANALISTA DO MP ATIVO BELO HORIZONTE - COMARCA; ASSESSORIA JURIDICO-ADMINISTRATIVA 12.356,19 3.706,86 0,00 0,00 0,00 0,00 16.063,05 1.766,94 2.957,02 0,00 4.723,96 11.339,09 5.218,31 372,42 28/02/2015
1023 402801 FLAVIA MARIA DE RESENDE NASCIMENTO ANALISTA DO MP ATIVO SÃO JOÃO DEL REI - COMARCA; SAO JOAO DEL REI-PJ-04PJ 6.265,58 375,93 0,00 0,00 2.213,84 0,00 8.855,35 799,68 1.510,68 0,00 2.310,36 6.544,99 920,50 628,26 28/02/2015
1024 437500 FLAVIA MARIA TORRES MARCHETTI COORDENADOR/ANALISTA ATIVO BELO HORIZONTE - COMARCA; BH-13ª PJ JUÍXO DE TÓXICOS 0,00 906,36 9.063,59 0,00 0,00 0,00 9.969,95 848,74 1.583,34 0,00 2.432,08 7.537,87 1.155,50 0,00 28/02/2015
1025 386000 FLAVIA NEVES BRIGIDO OFICIAL DO MP ATIVO BELO HORIZONTE - COMARCA; PROMOT ESTADUAL DE DEF PATRI CULT E TUR DE MG 4.848,98 484,90 0,00 0,00 0,00 0,00 5.333,88 768,81 671,71 0,00 1.440,52 3.893,36 2.287,62 1.912,46 28/02/2015
1026 488600 FLAVIA PEREIRA COSTA ANALISTA DO MP ATIVO BELO HORIZONTE - COMARCA; CENTRAL DE APOIO TECNICO 6.265,58 375,93 0,00 0,00 0,00 0,00 6.641,51 730,57 799,36 0,00 1.529,93 5.111,58 685,50 0,00 28/02/2015
1027 365400 FLAVIA PEREIRA DA SILVA OFICIAL DO MP ATIVO BELO HORIZONTE - COMARCA; BH-15PJ M AMB 16PJ HAB URB-SECRETARIA 5.691,44 569,14 0,00 0,00 0,00 0,00 6.260,58 688,66 706,13 0,00 1.394,79 4.865,79 2.883,27 201,46 28/02/2015
1028 515400 FLAVIA RODRIGUES DE OLIVEIRA E SILVA PAIVA ANALISTA DO MP ATIVO CARATINGA - COMARCA; CARATINGA-PJ-01PJ 6.265,58 375,93 0,00 0,00 0,00 0,00 6.641,51 730,57 601,68 0,00 1.332,25 5.309,26 685,50 0,00 28/02/2015
1029 621600 FLAVIA SARMENTO RODRIGUES ANALISTA DO MP ATIVO BELO HORIZONTE - COMARCA; AUDITORIA INTERNA 4.404,59 0,00 0,00 0,00 0,00 0,00 4.404,59 484,50 279,06 0,00 763,56 3.641,03 920,50 0,00 28/02/2015
1030 535800 FLAVIA SILVA VALADAO OFICIAL DO MP ATIVO TRÊS CORACOES - COMARCA; TRES CORACOES-PJ-04PJ 2.952,15 0,00 0,00 0,00 0,00 0,00 2.952,15 324,74 62,98 0,00 387,72 2.564,43 3.872,65 73,80 28/02/2015
1031 515300 FLAVIA VIEIRA OLIVEIRA GOMES ANALISTA DO MP ATIVO BELO HORIZONTE - COMARCA; CAO-CRIMINAL-SECRETARIA 6.265,58 375,93 0,00 0,00 0,00 0,00 6.641,51 730,57 799,36 0,00 1.529,93 5.111,58 685,50 0,00 28/02/2015
1032 377500 FLAVIANA GONCALVES DE OLIVEIRA ANALISTA DO MP ATIVO TIMÓTEO - COMARCA; TIMOTEO-PJ-02PJ 8.233,02 823,30 0,00 0,00 0,00 0,00 9.056,32 996,20 1.390,38 0,00 2.386,58 6.669,74 4.748,31 372,42 28/02/2015
1033 273100 FLAVIANE DOS SANTOS CASTRO OFICIAL DO MP ATIVO CAXAMBU - COMARCA; CAXAMBU-PJ-SECRETARIA 6.265,58 1.253,12 0,00 0,00 0,00 0,00 7.518,70 827,06 915,21 0,00 1.742,27 5.776,43 1.155,50 0,00 28/02/2015
1034 310600 FLAVIANE NAVES ALCANTARA ASSESSOR/OFICIAL ATIVO BELO HORIZONTE - COMARCA; COMB CRIMES PRAT POR AG POL MUN-SECRETARIA 0,00 1.594,68 7.973,40 0,00 0,00 0,00 9.568,08 853,99 1.570,22 0,00 2.424,21 7.143,87 685,50 0,00 28/02/2015
1035 455800 FLAVIO ANTONIO RIBEIRO OFICIAL DO MP ATIVO BELO HORIZONTE - COMARCA; GRUPO ESP PROM PROC JUST DEF PROB ADM PAT PUB 3.694,41 221,66 0,00 0,00 1.305,36 0,00 5.221,43 430,77 491,28 0,00 922,05 4.299,38 685,50 0,00 28/02/2015
1036 458200 FLAVIO AUGUSTO BRAGA SOARES ANALISTA DO MP ATIVO BELO HORIZONTE - COMARCA; DIVISAO DE MANUTENCAO PREDIAL 6.793,15 407,59 0,00 0,00 0,00 0,00 7.200,74 792,08 936,23 0,00 1.728,31 5.472,43 685,50 0,00 28/02/2015
1037 516500 FLAVIO AUGUSTO RODRIGUES CORREA ANALISTA DO MP ATIVO BELO HORIZONTE - COMARCA; COORD REG BACIAS RIO VELHAS E PARAOPEBA 5.691,44 341,49 0,00 0,00 0,00 0,00 6.032,93 663,62 650,41 0,00 1.314,03 4.718,90 2.857,35 199,09 28/02/2015
1038 84300 FLAVIO DE FARIA BELTRAO OFICIAL DO MP ATIVO BELO HORIZONTE - COMARCA; DIRETORIA DE ADMINISTRACAO FINANCEIRA 18.218,36 12.752,85 0,00 0,00 0,00 0,00 30.971,21 3.351,82 6.582,23 500,10 10.434,15 20.537,06 685,50 0,00 28/02/2015
1039 266600 FLAVIO GUIMARAES LANA ANALISTA DO MP ATIVO BELO HORIZONTE - COMARCA; CENTRAL DE APOIO TECN-SETOR DE MEIO AMBIENTE 9.063,59 1.812,72 0,00 0,00 0,00 0,00 10.876,31 1.196,39 1.835,83 0,00 3.032,22 7.844,09 685,50 0,00 28/02/2015
1040 552600 FLAVIO HENRIQUE EVARISTO GOMES ASSESSOR/ANALISTA ATIVO BELO HORIZONTE - COMARCA; DIRETORIA DE SUPORTE E MANUTENCAO 0,00 0,00 7.973,40 0,00 0,00 0,00 7.973,40 550,76 1.215,08 0,00 1.765,84 6.207,56 685,50 0,00 28/02/2015
1041 241500 FLAVIO HENRIQUE SILVA MARTINS LAGE OFICIAL DO MP ATIVO BELO HORIZONTE - COMARCA; CAO-CRIANCAS E ADOLESCENTES-SECRETARIA 6.469,61 1.940,88 0,00 0,00 0,00 0,00 8.410,49 925,15 1.232,32 0,00 2.157,47 6.253,02 685,50 0,00 28/02/2015
1042 86700 FLAVIO LUCAS TOMAZ AGENTE DO MP ATIVO BELO HORIZONTE - COMARCA; BH-06PJ JUIZO CIVEL-SECRETARIA 5.338,12 2.669,06 0,00 0,00 0,00 0,00 8.007,18 880,79 729,32 0,00 1.610,11 6.397,07 4.629,87 361,57 28/02/2015
1043 407200 FLAVIO LUCIO MONTEIRO PENA ANALISTA DO MP ATIVO BELO HORIZONTE - COMARCA; DIRETORIA DE IMPRENSA 7.014,37 701,44 0,00 0,00 0,00 0,00 7.715,81 848,74 1.062,29 0,00 1.911,03 5.804,78 685,50 0,00 28/02/2015
1044 451700 FLAVIO MAGALHAES PEREIRA ANALISTA DO MP ATIVO BELO HORIZONTE - COMARCA; BH-12PJ JUIZO CRIMINAL-GAB 098PJ 6.793,15 407,59 0,00 0,00 2.400,25 0,00 9.600,99 792,08 1.596,30 0,00 2.388,38 7.212,61 685,50 0,00 28/02/2015
1045 481500 FLAVIO NEVES GUELBER DE MACEDO OFICIAL DO MP ATIVO SÃO JOÃO NEPOMUCENO - COMARCA; SAO JOAO NEPOMUCENO-PJ-02PJ 4.000,95 240,06 0,00 0,00 0,00 0,00 4.241,01 573,74 376,44 0,00 950,18 3.290,83 685,50 974,79 28/02/2015
1046 547500 FRANCELINO MOREIRA DA SILVA ANALISTA DO MP ATIVO BELO HORIZONTE - COMARCA; BH-10PJ EXECUÇÃO PENAL-SECRETARIA 4.548,03 0,00 0,00 0,00 0,00 0,00 4.548,03 500,28 307,78 0,00 808,06 3.739,97 920,50 0,00 28/02/2015
1047 278100 FRANCIANE MARY DE SOUZA DOMENICI DE BRITO E CASTRO ANALISTA DO MP ATIVO BELO HORIZONTE - COMARCA; BH-12PJ JUIZO CRIMINAL-GAB 083PJ 10.638,28 2.127,66 0,00 0,00 0,00 0,00 12.765,94 1.404,25 2.248,89 0,00 3.653,14 9.112,80 685,50 0,00 28/02/2015
1048 192501 FRANCIELLE REIS DE OLIVEIRA ANALISTA DO MP ATIVO PASSOS - COMARCA; PASSOS-PJ-04PJ 9.977,95 1.995,59 0,00 0,00 0,00 0,00 11.973,54 1.317,09 1.956,11 0,00 3.273,20 8.700,34 4.983,31 372,42 28/02/2015
1049 523600 FRANCINE MOURA LIMIRIO OFICIAL DO MP ATIVO UBERABA - COMARCA; UBERABA-PJ-02PJ 3.577,90 214,67 0,00 0,00 0,00 0,00 3.792,57 440,80 199,94 0,00 640,74 3.151,83 685,50 214,67 28/02/2015
1050 467200 FRANCINI RENNO ANALISTA DO MP ATIVO CASSIA - COMARCA; CASSIA-PJ-02PJ 6.793,15 407,59 0,00 0,00 0,00 0,00 7.200,74 976,62 1.209,97 0,00 2.186,59 5.014,15 685,50 1.677,66 28/02/2015
1051 189300 FRANCIS BERNARDO DO NASCIMENTO OFICIAL DO MP ATIVO VARGINHA - COMARCA; VARGINHA-PJ-05PJ 9.358,72 2.807,62 0,00 0,00 0,00 0,00 12.166,34 1.338,30 2.052,72 0,00 3.391,02 8.775,32 5.453,31 372,42 28/02/2015
1052 207800 FRANCISCO CAMPOS PIRES DE MORAIS ANALISTA DO MP ATIVO BELO HORIZONTE - COMARCA; CENTRAL DE APOIO TECN-SETOR DE MEIO AMBIENTE 13.882,65 4.164,80 0,00 0,00 0,00 0,00 18.047,45 1.985,22 3.492,12 0,00 5.477,34 12.570,11 685,50 0,00 28/02/2015
1053 424200 FRANCISCO DE FREITAS JUNIOR ANALISTA DO MP ATIVO MONTE AZUL - COMARCA; MONTE AZUL-PJ-UNPJ 7.014,37 701,44 0,00 0,00 0,00 0,00 7.715,81 848,74 1.062,29 0,00 1.911,03 5.804,78 685,50 0,00 28/02/2015
1054 607700 FRANCISCO EDUARDO DE CASTRO ANALISTA DO MP ATIVO BELO HORIZONTE - COMARCA; DIR ANALISES TECNOLOGIA INTELIGENCIA 4.548,03 0,00 0,00 0,00 0,00 0,00 4.548,03 547,62 365,23 0,00 912,85 3.635,18 685,50 478,13 28/02/2015
1055 204600 FRANCISCO FERREIRA NOVAIS OFICIAL DO MP ATIVO IPATINGA - COMARCA; IPATINGA-PJ-08PJ 6.793,15 2.037,95 0,00 0,00 0,00 0,00 8.831,10 971,42 1.236,42 0,00 2.207,84 6.623,26 4.781,59 372,42 28/02/2015
1056 60500 FRANCISCO OLIMPIO TEIXEIRA AGENTE DO MP ATIVO BELO HORIZONTE - COMARCA; EXTINTA - DIVISAO DE TRANSPORTES 4.696,06 3.756,85 0,00 0,00 0,00 1.121,09 9.574,00 1.121,09 1.828,31 0,00 2.949,40 6.624,60 4.748,31 2.111,22 28/02/2015
1057 411600 FRANCISCO PAIVA BRITO ANALISTA DO MP ATIVO BELO HORIZONTE - COMARCA; TRIBUNAL DO JURI-07 PJ-02 TRIBUNAL 7.014,37 701,44 0,00 0,00 0,00 0,00 7.715,81 848,74 1.062,29 0,00 1.911,03 5.804,78 685,50 0,00 28/02/2015
1058 515800 FRANCISCO RAFAEL DA SILVA NETO ANALISTA DO MP ATIVO SACRAMENTO - COMARCA; SACRAMENTO-PJ-01PJ 5.169,86 310,19 0,00 0,00 0,00 0,00 5.480,05 602,81 373,11 0,00 975,92 4.504,13 685,50 0,00 28/02/2015
1059 515200 FRANCISLEI ELIAS GONCALVES OFICIAL DO MP ATIVO PASSOS - COMARCA; PASSOS-PJ-07PJ 3.355,81 671,16 0,00 0,00 0,00 0,00 4.026,97 442,97 121,70 0,00 564,67 3.462,30 926,90 0,00 28/02/2015
1060 443600 FRANCISLEI MARTINS DE SOUSA ANALISTA DO MP ATIVO TIMÓTEO - COMARCA; TIMOTEO-PJ-01PJ 7.014,37 701,44 0,00 0,00 0,00 0,00 7.715,81 848,74 1.062,29 0,00 1.911,03 5.804,78 3.771,82 282,91 28/02/2015
1061 424500 FREDERICO AUGUSTO COBRA MULLER ANALISTA DO MP ATIVO POUSO ALEGRE - COMARCA; POUSO ALEGRE-PJ-02PJ 7.721,95 772,20 0,00 0,00 0,00 0,00 8.494,15 1.191,21 1.705,14 0,00 2.896,35 5.597,80 5.526,65 3.038,24 28/02/2015
1062 473100 FREDERICO AUGUSTO LIMA FELICIO ANALISTA DO MP ATIVO CONCEIÇÃO DO MATO DENTRO - COMARCA; CONCEICAO DO MATO DENTRO-PJ-UNPJ 6.793,15 407,59 0,00 0,00 0,00 0,00 7.200,74 792,08 936,23 0,00 1.728,31 5.472,43 685,50 0,00 28/02/2015
1063 318100 FREDERICO BIANCHINI JOVIANO DOS SANTOS ASSESSOR/OFICIAL ATIVO BELO HORIZONTE - COMARCA; PROMOT ESTADUAL DE DEF PATRI CULT E TUR DE MG 0,00 1.594,68 7.973,40 0,00 0,00 0,00 9.568,08 619,88 1.634,61 0,00 2.254,49 7.313,59 685,50 0,00 28/02/2015
1064 124200 FREDERICO DE SOUZA ROCHA OFICIAL DO MP ATIVO ESPINOSA - COMARCA; ESPINOSA-PJ-SECRETARIA 10.302,83 7.211,98 0,00 0,00 0,00 0,00 17.514,81 1.926,63 3.361,76 0,00 5.288,39 12.226,42 5.105,43 372,42 28/02/2015
1065 177100 FREDERICO FERNANDES DE ANDRADE OFICIAL DO MP ATIVO BELO HORIZONTE - COMARCA; SUPERINTENDENCIA DE TECNOLOGIA DA INFORMACAO 7.973,40 2.392,02 0,00 0,00 0,00 0,00 10.365,42 1.140,20 1.710,79 0,00 2.850,99 7.514,43 4.748,31 372,42 28/02/2015
1066 456200 FREDERICO FERNANDES PASSOS ANALISTA DO MP ATIVO BELO HORIZONTE - COMARCA; DIRETORIA DE REDES E BANCOS DE DADOS 6.793,15 407,59 0,00 0,00 0,00 0,00 7.200,74 792,08 936,23 0,00 1.728,31 5.472,43 685,50 0,00 28/02/2015
1067 400900 FREDERICO LUCIANO BORGES REIS ANALISTA DO MP ATIVO BELO HORIZONTE - COMARCA; DIRETORIA DE SISTEMAS DE INFORMACAO 7.973,40 797,34 0,00 0,00 0,00 0,00 8.770,74 964,78 1.320,49 0,00 2.285,27 6.485,47 4.748,31 372,42 28/02/2015
1068 466200 FREDERICO LUIS FERNANDES ANALISTA DO MP ATIVO BELO HORIZONTE - COMARCA; BH-12PJ JUIZO CRIMINAL-GAB 106PJ 6.793,15 407,59 0,00 0,00 0,00 0,00 7.200,74 792,08 886,81 0,00 1.678,89 5.521,85 685,50 0,00 28/02/2015
1069 419700 FREDERICO MECKLER SANTOS ANALISTA DO MP ATIVO CLÁUDIO - COMARCA; CLAUDIO-PJ-UNPJ 7.014,37 701,44 0,00 0,00 0,00 0,00 7.715,81 848,74 1.062,29 0,00 1.911,03 5.804,78 4.338,50 334,86 28/02/2015
1070 257100 FULVIA HERONVILLE DA SILVA OFICIAL DO MP ATIVO BELO HORIZONTE - COMARCA; DIVISAO DE MEMORIA INSTITUCIONAL 6.793,15 1.358,63 0,00 0,00 0,00 0,00 8.151,78 896,70 1.119,58 0,00 2.016,28 6.135,50 920,50 0,00 28/02/2015
1071 621700 GABRIEL ANDRADE SOUZA GROSSI RIBEIRO OFICIAL DO MP ATIVO BETIM - COMARCA; BETIM-PJ-SECRETARIA 2.859,08 0,00 0,00 0,00 0,00 0,00 2.859,08 314,50 56,76 0,00 371,26 2.487,82 685,50 0,00 28/02/2015
1072 613600 GABRIEL BASTOS MEIRELES ANALISTA DO MP ATIVO BELO HORIZONTE - COMARCA; BH-16PJ HABITACAO E URBANISMO 4.404,59 0,00 0,00 0,00 0,00 0,00 4.404,59 484,50 279,06 0,00 763,56 3.641,03 685,50 0,00 28/02/2015
1073 397200 GABRIEL DEIVID MARTINS LEITE OFICIAL DO MP ATIVO MONTE CARMELO - COMARCA; MONTE CARMELO-PJ-02PJ 5.169,86 516,99 0,00 0,00 0,00 0,00 5.686,85 625,55 565,71 0,00 1.191,26 4.495,59 899,70 0,00 28/02/2015
1074 629500 GABRIEL TEIXEIRA DE OLIVEIRA ANALISTA DO MP ATIVO UBERLÂNDIA - COMARCA; UBERLANDIA-PJ-02PJ 4.404,59 0,00 0,00 0,00 0,00 0,00 4.404,59 484,50 279,06 0,00 763,56 3.641,03 685,50 0,00 28/02/2015
1075 617900 GABRIELA CIRILA ROQUE ANALISTA DO MP ATIVO ITABIRA - COMARCA; ITABIRA-PJ-SECRETARIA 4.848,98 0,00 0,00 0,00 0,00 0,00 4.848,98 533,39 368,05 0,00 901,44 3.947,54 685,50 0,00 28/02/2015
1076 386800 GABRIELA SIMOES CHAVES ANALISTA DO MP ATIVO BELO HORIZONTE - COMARCA; EXTINTA - DIVISÃO DE COMPRAS 8.233,02 823,30 0,00 0,00 0,00 0,00 9.056,32 996,20 1.390,38 0,00 2.386,58 6.669,74 685,50 0,00 28/02/2015
1077 449700 GABRIELE COSTA FERREIRA OFICIAL DO MP ATIVO BELO HORIZONTE - COMARCA; DIRETORIA DE ORCAMENTO-DIOR/SPC 3.694,41 221,66 0,00 0,00 0,00 0,00 3.916,07 430,77 187,77 0,00 618,54 3.297,53 685,50 0,00 28/02/2015
1078 357600 GABRIELLA CRUZ EMRICH OFICIAL DO MP ATIVO ARCOS - COMARCA; ARCOS-PJ-SECRETARIA 4.696,06 469,61 0,00 0,00 0,00 0,00 5.165,67 568,22 438,15 0,00 1.006,37 4.159,30 685,50 0,00 28/02/2015
1079 470600 GABRIELLA SPIRANDELLI COIMBRA ANALISTA DO MP ATIVO UBERLÂNDIA - COMARCA; UBERLANDIA-PJ-19PJ 6.793,15 407,59 0,00 0,00 2.400,25 0,00 9.600,99 792,08 1.596,30 0,00 2.388,38 7.212,61 685,50 0,00 28/02/2015
1080 86000 GASPAR GOMES DE SOUSA AGENTE DO MP ATIVO BELO HORIZONTE - COMARCA; BH-15PJ M AMB PAT HIST CULT-RECEPCAO 18.218,36 14.574,69 0,00 0,00 0,00 3.351,82 36.144,87 3.351,82 7.584,13 2.321,94 13.257,89 22.886,98 685,50 111,73 28/02/2015
1081 183100 GECIELLE FERNANDA SILVA OFICIAL DO MP ATIVO PITANGUI - COMARCA; PITANGUI-PJ-02PJ 9.358,72 2.807,62 0,00 0,00 0,00 0,00 12.166,34 1.338,30 2.151,56 0,00 3.489,86 8.676,48 685,50 0,00 28/02/2015
1082 387300 GEOFFREY GIULLIANO OLIVEIRA ALMEIDA ANALISTA DO MP ATIVO JANAÚBA - COMARCA; JANAUBA-PJ-03PJ 7.014,37 701,44 0,00 0,00